Wetterdaten: Dienstag, 22.11.2016
Datum Zeit Temp. A. Feuchte A. Luftdruck Regen Wind Richtung Richtung Sonnenschein ET UV Solar Taupunkt Windchill Windben Empfang
22.11.2016 00:00 3,6 C 98 % 1009,4 hPa 0,0 l/m 5,7 km/h (1 Bft) S-SW 196 0 min 0,000 mm 0,0 UV-I 0 W/m 3,3 C 3,6 C 6,4 km/h (2 Bft) 100,00 %
22.11.2016 00:02 3,5 C 98 % 1009,4 hPa 0,0 l/m 4,9 km/h (1 Bft) S-SW 196 0 min 0,000 mm 0,0 UV-I 0 W/m 3,2 C 3,5 C 6,4 km/h (2 Bft) 97,30 %
22.11.2016 00:04 3,4 C 98 % 1009,4 hPa 0,0 l/m 3,7 km/h (1 Bft) S-SW 196 0 min 0,000 mm 0,0 UV-I 0 W/m 3,1 C 3,4 C 4,8 km/h (1 Bft) 97,87 %
22.11.2016 00:06 3,6 C 98 % 1009,5 hPa 0,0 l/m 3,7 km/h (1 Bft) S-SW 196 0 min 0,000 mm 0,0 UV-I 0 W/m 3,3 C 3,6 C 4,8 km/h (1 Bft) 100,00 %
22.11.2016 00:08 3,8 C 99 % 1009,5 hPa 0,0 l/m 1,8 km/h (1 Bft) S-SW 196 0 min 0,000 mm 0,0 UV-I 0 W/m 3,7 C 3,8 C 3,2 km/h (1 Bft) 100,00 %
22.11.2016 00:10 3,9 C 99 % 1009,5 hPa 0,0 l/m 1,3 km/h (1 Bft) S-SW 196 0 min 0,000 mm 0,0 UV-I 0 W/m 3,8 C 3,9 C 4,8 km/h (1 Bft) 100,00 %
22.11.2016 00:12 3,9 C 99 % 1009,5 hPa 0,0 l/m 4,7 km/h (1 Bft) S-SW 196 0 min 0,000 mm 0,0 UV-I 0 W/m 3,8 C 3,9 C 6,4 km/h (2 Bft) 100,00 %
22.11.2016 00:14 3,8 C 99 % 1009,5 hPa 0,0 l/m 5,5 km/h (1 Bft) S-SW 196 0 min 0,000 mm 0,0 UV-I 0 W/m 3,7 C 3,8 C 6,4 km/h (2 Bft) 100,00 %
22.11.2016 00:16 3,4 C 98 % 1009,5 hPa 0,0 l/m 5,8 km/h (2 Bft) S-SW 196 0 min 0,000 mm 0,0 UV-I 0 W/m 3,1 C 3,4 C 8,0 km/h (2 Bft) 100,00 %
22.11.2016 00:18 3,2 C 98 % 1009,5 hPa 0,0 l/m 3,5 km/h (1 Bft) S-SW 196 0 min 0,000 mm 0,0 UV-I 0 W/m 2,9 C 3,2 C 6,4 km/h (2 Bft) 100,00 %
22.11.2016 00:20 3,2 C 98 % 1009,5 hPa 0,0 l/m 2,6 km/h (1 Bft) S-SW 194 0 min 0,000 mm 0,0 UV-I 0 W/m 2,9 C 3,2 C 4,8 km/h (1 Bft) 100,00 %
22.11.2016 00:22 3,3 C 98 % 1009,5 hPa 0,0 l/m 4,0 km/h (1 Bft) S-SW 194 0 min 0,000 mm 0,0 UV-I 0 W/m 3,0 C 3,3 C 6,4 km/h (2 Bft) 100,00 %
22.11.2016 00:24 3,6 C 98 % 1009,5 hPa 0,0 l/m 3,7 km/h (1 Bft) S-SW 194 0 min 0,000 mm 0,0 UV-I 0 W/m 3,3 C 3,6 C 4,8 km/h (1 Bft) 100,00 %
22.11.2016 00:26 3,7 C 99 % 1009,5 hPa 0,0 l/m 3,7 km/h (1 Bft) S-SW 194 0 min 0,000 mm 0,0 UV-I 0 W/m 3,6 C 3,7 C 4,8 km/h (1 Bft) 100,00 %
22.11.2016 00:28 3,8 C 99 % 1009,4 hPa 0,0 l/m 1,9 km/h (1 Bft) S-SW 194 0 min 0,000 mm 0,0 UV-I 0 W/m 3,7 C 3,8 C 3,2 km/h (1 Bft) 100,00 %
22.11.2016 00:30 3,8 C 99 % 1009,4 hPa 0,0 l/m 2,4 km/h (1 Bft) S-SW 194 0 min 0,000 mm 0,0 UV-I 0 W/m 3,7 C 3,8 C 4,8 km/h (1 Bft) 100,00 %
22.11.2016 00:32 3,9 C 99 % 1009,4 hPa 0,0 l/m 2,2 km/h (1 Bft) S-SW 194 0 min 0,000 mm 0,0 UV-I 0 W/m 3,8 C 3,9 C 3,2 km/h (1 Bft) 97,87 %
22.11.2016 00:34 4,2 C 99 % 1009,5 hPa 0,0 l/m 3,7 km/h (1 Bft) S-SW 194 0 min 0,000 mm 0,0 UV-I 0 W/m 4,1 C 4,2 C 4,8 km/h (1 Bft) 98,11 %
22.11.2016 00:36 4,2 C 99 % 1009,4 hPa 0,0 l/m 1,8 km/h (1 Bft) S-SW 194 0 min 0,000 mm 0,0 UV-I 0 W/m 4,1 C 4,2 C 3,2 km/h (1 Bft) 100,00 %
22.11.2016 00:38 3,9 C 99 % 1009,4 hPa 0,0 l/m 0,8 km/h (0 Bft) S-SW 194 0 min 0,000 mm 0,0 UV-I 0 W/m 3,8 C 3,9 C 1,6 km/h (1 Bft) 98,00 %
22.11.2016 00:40 3,8 C 99 % 1009,4 hPa 0,0 l/m 1,4 km/h (1 Bft) S-SW 194 0 min 0,000 mm 0,0 UV-I 0 W/m 3,7 C 3,8 C 3,2 km/h (1 Bft) 100,00 %
22.11.2016 00:42 3,7 C 99 % 1009,3 hPa 0,0 l/m 2,6 km/h (1 Bft) S-SW 194 0 min 0,000 mm 0,0 UV-I 0 W/m 3,6 C 3,7 C 4,8 km/h (1 Bft) 98,46 %
22.11.2016 00:44 3,6 C 98 % 1009,3 hPa 0,0 l/m 4,5 km/h (1 Bft) S-SW 194 0 min 0,000 mm 0,0 UV-I 0 W/m 3,3 C 3,6 C 6,4 km/h (2 Bft) 97,87 %
22.11.2016 00:46 3,4 C 99 % 1009,4 hPa 0,0 l/m 6,1 km/h (2 Bft) S-SW 194 0 min 0,000 mm 0,0 UV-I 0 W/m 3,3 C 3,4 C 6,4 km/h (2 Bft) 100,00 %
22.11.2016 00:48 3,2 C 98 % 1009,3 hPa 0,0 l/m 5,5 km/h (1 Bft) S-SW 194 0 min 0,000 mm 0,0 UV-I 0 W/m 2,9 C 3,2 C 6,4 km/h (2 Bft) 100,00 %
22.11.2016 00:50 3,0 C 98 % 1009,4 hPa 0,0 l/m 5,7 km/h (1 Bft) S-SW 194 0 min 0,000 mm 0,0 UV-I 0 W/m 2,7 C 3,0 C 6,4 km/h (2 Bft) 100,00 %
22.11.2016 00:52 3,0 C 98 % 1009,5 hPa 0,0 l/m 5,0 km/h (1 Bft) S-SW 194 0 min 0,000 mm 0,0 UV-I 0 W/m 2,7 C 3,0 C 6,4 km/h (2 Bft) 100,00 %
22.11.2016 00:54 3,1 C 98 % 1009,5 hPa 0,0 l/m 4,3 km/h (1 Bft) S-SW 194 0 min 0,000 mm 0,0 UV-I 0 W/m 2,8 C 3,1 C 6,4 km/h (2 Bft) 100,00 %
22.11.2016 00:56 3,1 C 98 % 1009,5 hPa 0,0 l/m 3,7 km/h (1 Bft) S-SW 194 0 min 0,000 mm 0,0 UV-I 0 W/m 2,8 C 3,1 C 4,8 km/h (1 Bft) 98,00 %
22.11.2016 00:58 3,1 C 99 % 1009,4 hPa 0,0 l/m 5,2 km/h (1 Bft) S-SW 194 0 min 0,000 mm 0,0 UV-I 0 W/m 3,0 C 3,1 C 6,4 km/h (2 Bft) 97,56 %
22.11.2016 01:00 3,3 C 98 % 1009,4 hPa 0,0 l/m 4,7 km/h (1 Bft) S-SW 194 0 min 0,000 mm 0,0 UV-I 0 W/m 3,0 C 3,3 C 6,4 km/h (2 Bft) 98,00 %
22.11.2016 01:02 3,6 C 99 % 1009,4 hPa 0,0 l/m 2,9 km/h (1 Bft) S-SW 194 0 min 0,000 mm 0,0 UV-I 0 W/m 3,5 C 3,6 C 3,2 km/h (1 Bft) 97,56 %
22.11.2016 01:04 3,7 C 99 % 1009,5 hPa 0,0 l/m 1,6 km/h (1 Bft) S-SW 194 0 min 0,000 mm 0,0 UV-I 0 W/m 3,6 C 3,7 C 4,8 km/h (1 Bft) 96,43 %
22.11.2016 01:06 3,6 C 99 % 1009,5 hPa 0,0 l/m 3,4 km/h (1 Bft) S-SW 194 0 min 0,000 mm 0,0 UV-I 0 W/m 3,5 C 3,6 C 4,8 km/h (1 Bft) 97,37 %
22.11.2016 01:08 3,7 C 99 % 1009,5 hPa 0,0 l/m 4,0 km/h (1 Bft) S-SW 194 0 min 0,000 mm 0,0 UV-I 0 W/m 3,6 C 3,7 C 6,4 km/h (2 Bft) 98,00 %
22.11.2016 01:10 3,8 C 99 % 1009,5 hPa 0,0 l/m 4,3 km/h (1 Bft) S-SW 194 0 min 0,000 mm 0,0 UV-I 0 W/m 3,7 C 3,8 C 6,4 km/h (2 Bft) 97,56 %
22.11.2016 01:12 3,7 C 99 % 1009,5 hPa 0,0 l/m 5,0 km/h (1 Bft) S-SW 195 0 min 0,000 mm 0,0 UV-I 0 W/m 3,6 C 3,7 C 6,4 km/h (2 Bft) 96,00 %
22.11.2016 01:14 3,5 C 99 % 1009,5 hPa 0,0 l/m 5,6 km/h (1 Bft) S-SW 194 0 min 0,000 mm 0,0 UV-I 0 W/m 3,4 C 3,5 C 6,4 km/h (2 Bft) 91,49 %
22.11.2016 01:16 3,2 C 99 % 1009,6 hPa 0,0 l/m 3,6 km/h (1 Bft) S-SW 194 0 min 0,000 mm 0,0 UV-I 0 W/m 3,1 C 3,2 C 4,8 km/h (1 Bft) 98,11 %
22.11.2016 01:18 2,9 C 98 % 1009,6 hPa 0,0 l/m 2,4 km/h (1 Bft) S-SW 194 0 min 0,000 mm 0,0 UV-I 0 W/m 2,6 C 2,9 C 3,2 km/h (1 Bft) 94,87 %
22.11.2016 01:20 2,9 C 98 % 1009,6 hPa 0,0 l/m 3,4 km/h (1 Bft) S-SW 194 0 min 0,000 mm 0,0 UV-I 0 W/m 2,6 C 2,9 C 4,8 km/h (1 Bft) 96,00 %
22.11.2016 01:22 3,2 C 98 % 1009,5 hPa 0,0 l/m 3,5 km/h (1 Bft) S-SW 194 0 min 0,000 mm 0,0 UV-I 0 W/m 2,9 C 3,2 C 4,8 km/h (1 Bft) 97,87 %
22.11.2016 01:24 3,3 C 98 % 1009,5 hPa 0,0 l/m 3,4 km/h (1 Bft) S-SW 194 0 min 0,000 mm 0,0 UV-I 0 W/m 3,0 C 3,3 C 4,8 km/h (1 Bft) 98,00 %
22.11.2016 01:26 3,4 C 99 % 1009,5 hPa 0,0 l/m 2,3 km/h (1 Bft) S-SW 194 0 min 0,000 mm 0,0 UV-I 0 W/m 3,3 C 3,4 C 4,8 km/h (1 Bft) 97,87 %
22.11.2016 01:28 3,5 C 99 % 1009,6 hPa 0,0 l/m 1,7 km/h (1 Bft) S-SW 194 0 min 0,000 mm 0,0 UV-I 0 W/m 3,4 C 3,5 C 3,2 km/h (1 Bft) 97,87 %
22.11.2016 01:30 3,7 C 99 % 1009,7 hPa 0,0 l/m 1,8 km/h (1 Bft) S-SW 194 0 min 0,000 mm 0,0 UV-I 0 W/m 3,6 C 3,7 C 3,2 km/h (1 Bft) 95,45 %
22.11.2016 01:32 3,8 C 99 % 1009,6 hPa 0,0 l/m 1,2 km/h (1 Bft) S-SW 194 0 min 0,000 mm 0,0 UV-I 0 W/m 3,7 C 3,8 C 3,2 km/h (1 Bft) 98,04 %
22.11.2016 01:34 3,7 C 99 % 1009,6 hPa 0,0 l/m 2,4 km/h (1 Bft) S-SW 194 0 min 0,000 mm 0,0 UV-I 0 W/m 3,6 C 3,7 C 4,8 km/h (1 Bft) 97,37 %
22.11.2016 01:36 3,9 C 99 % 1009,7 hPa 0,0 l/m 3,2 km/h (1 Bft) S-SW 194 0 min 0,000 mm 0,0 UV-I 0 W/m 3,8 C 3,9 C 4,8 km/h (1 Bft) 98,11 %
22.11.2016 01:38 3,8 C 99 % 1009,7 hPa 0,0 l/m 1,5 km/h (1 Bft) S-SW 194 0 min 0,000 mm 0,0 UV-I 0 W/m 3,7 C 3,8 C 3,2 km/h (1 Bft) 98,00 %
22.11.2016 01:40 3,7 C 99 % 1009,7 hPa 0,0 l/m 3,3 km/h (1 Bft) S-SW 194 0 min 0,000 mm 0,0 UV-I 0 W/m 3,6 C 3,7 C 4,8 km/h (1 Bft) 97,87 %
22.11.2016 01:42 3,7 C 99 % 1009,7 hPa 0,0 l/m 4,1 km/h (1 Bft) S-SW 194 0 min 0,000 mm 0,0 UV-I 0 W/m 3,6 C 3,7 C 6,4 km/h (2 Bft) 100,00 %
22.11.2016 01:44 3,4 C 99 % 1009,7 hPa 0,0 l/m 6,2 km/h (2 Bft) S-SW 194 0 min 0,000 mm 0,0 UV-I 0 W/m 3,3 C 3,4 C 8,0 km/h (2 Bft) 97,56 %
22.11.2016 01:46 3,2 C 99 % 1009,8 hPa 0,0 l/m 4,5 km/h (1 Bft) S-SW 193 0 min 0,000 mm 0,0 UV-I 0 W/m 3,1 C 3,2 C 8,0 km/h (2 Bft) 97,87 %
22.11.2016 01:48 3,1 C 99 % 1009,8 hPa 0,0 l/m 1,8 km/h (1 Bft) S-SW 193 0 min 0,000 mm 0,0 UV-I 0 W/m 3,0 C 3,1 C 3,2 km/h (1 Bft) 100,00 %
22.11.2016 01:50 2,9 C 98 % 1009,8 hPa 0,0 l/m 2,1 km/h (1 Bft) S-SW 193 0 min 0,000 mm 0,0 UV-I 0 W/m 2,6 C 2,9 C 3,2 km/h (1 Bft) 100,00 %
22.11.2016 01:52 3,1 C 98 % 1009,7 hPa 0,0 l/m 2,4 km/h (1 Bft) S-SW 193 0 min 0,000 mm 0,0 UV-I 0 W/m 2,8 C 3,1 C 3,2 km/h (1 Bft) 100,00 %
22.11.2016 01:54 3,2 C 99 % 1009,8 hPa 0,0 l/m 3,7 km/h (1 Bft) S-SW 193 0 min 0,000 mm 0,0 UV-I 0 W/m 3,1 C 3,2 C 6,4 km/h (2 Bft) 97,87 %
22.11.2016 01:56 3,2 C 99 % 1009,8 hPa 0,0 l/m 4,3 km/h (1 Bft) S-SW 193 0 min 0,000 mm 0,0 UV-I 0 W/m 3,1 C 3,2 C 6,4 km/h (2 Bft) 100,00 %
22.11.2016 01:58 3,1 C 99 % 1009,8 hPa 0,0 l/m 2,3 km/h (1 Bft) S-SW 193 0 min 0,000 mm 0,0 UV-I 0 W/m 3,0 C 3,1 C 3,2 km/h (1 Bft) 100,00 %
22.11.2016 02:00 3,0 C 98 % 1009,8 hPa 0,0 l/m 2,0 km/h (1 Bft) S-SW 193 0 min 0,000 mm 0,0 UV-I 0 W/m 2,7 C 3,0 C 3,2 km/h (1 Bft) 100,00 %
22.11.2016 02:02 3,1 C 98 % 1009,9 hPa 0,0 l/m 3,0 km/h (1 Bft) S-SW 193 0 min 0,000 mm 0,0 UV-I 0 W/m 2,8 C 3,1 C 4,8 km/h (1 Bft) 100,00 %
22.11.2016 02:04 2,9 C 98 % 1009,9 hPa 0,0 l/m 3,6 km/h (1 Bft) S-SW 193 0 min 0,000 mm 0,0 UV-I 0 W/m 2,6 C 2,9 C 4,8 km/h (1 Bft) 100,00 %
22.11.2016 02:06 2,8 C 99 % 1009,9 hPa 0,0 l/m 1,5 km/h (1 Bft) S-SW 193 0 min 0,000 mm 0,0 UV-I 0 W/m 2,7 C 2,8 C 3,2 km/h (1 Bft) 100,00 %
22.11.2016 02:08 2,8 C 99 % 1009,9 hPa 0,0 l/m 0,2 km/h (0 Bft) S-SW 193 0 min 0,000 mm 0,0 UV-I 0 W/m 2,7 C 2,8 C 1,6 km/h (1 Bft) 100,00 %
22.11.2016 02:10 2,7 C 98 % 1009,9 hPa 0,0 l/m 1,4 km/h (1 Bft) S-SW 193 0 min 0,000 mm 0,0 UV-I 0 W/m 2,4 C 2,7 C 4,8 km/h (1 Bft) 100,00 %
22.11.2016 02:12 2,8 C 99 % 1009,8 hPa 0,0 l/m 4,2 km/h (1 Bft) S-SW 193 0 min 0,000 mm 0,0 UV-I 0 W/m 2,7 C 2,8 C 4,8 km/h (1 Bft) 100,00 %
22.11.2016 02:14 2,9 C 99 % 1009,8 hPa 0,0 l/m 2,3 km/h (1 Bft) S-SW 193 0 min 0,000 mm 0,0 UV-I 0 W/m 2,8 C 2,9 C 3,2 km/h (1 Bft) 100,00 %
22.11.2016 02:16 3,0 C 99 % 1009,8 hPa 0,0 l/m 1,3 km/h (1 Bft) S-SW 193 0 min 0,000 mm 0,0 UV-I 0 W/m 2,9 C 3,0 C 3,2 km/h (1 Bft) 100,00 %
22.11.2016 02:18 2,8 C 99 % 1009,8 hPa 0,0 l/m 0,4 km/h (0 Bft) S-SW 193 0 min 0,000 mm 0,0 UV-I 0 W/m 2,7 C 2,8 C 1,6 km/h (1 Bft) 100,00 %
22.11.2016 02:20 2,8 C 99 % 1009,9 hPa 0,0 l/m 2,1 km/h (1 Bft) S-SW 193 0 min 0,000 mm 0,0 UV-I 0 W/m 2,7 C 2,8 C 3,2 km/h (1 Bft) 100,00 %
22.11.2016 02:22 3,0 C 99 % 1009,9 hPa 0,0 l/m 3,5 km/h (1 Bft) S-SW 193 0 min 0,000 mm 0,0 UV-I 0 W/m 2,9 C 3,0 C 4,8 km/h (1 Bft) 100,00 %
22.11.2016 02:24 3,2 C 99 % 1009,9 hPa 0,0 l/m 4,3 km/h (1 Bft) S-SW 193 0 min 0,000 mm 0,0 UV-I 0 W/m 3,1 C 3,2 C 4,8 km/h (1 Bft) 100,00 %
22.11.2016 02:26 3,1 C 99 % 1010,0 hPa 0,0 l/m 5,2 km/h (1 Bft) S-SW 193 0 min 0,000 mm 0,0 UV-I 0 W/m 3,0 C 3,1 C 6,4 km/h (2 Bft) 100,00 %
22.11.2016 02:28 2,9 C 99 % 1010,0 hPa 0,0 l/m 4,5 km/h (1 Bft) S-SW 193 0 min 0,000 mm 0,0 UV-I 0 W/m 2,8 C 2,9 C 6,4 km/h (2 Bft) 100,00 %
22.11.2016 02:30 2,7 C 98 % 1009,9 hPa 0,0 l/m 3,3 km/h (1 Bft) S-SW 193 0 min 0,000 mm 0,0 UV-I 0 W/m 2,4 C 2,7 C 4,8 km/h (1 Bft) 98,00 %
22.11.2016 02:32 2,7 C 98 % 1010,0 hPa 0,0 l/m 3,0 km/h (1 Bft) S-SW 193 0 min 0,000 mm 0,0 UV-I 0 W/m 2,4 C 2,7 C 4,8 km/h (1 Bft) 97,73 %
22.11.2016 02:34 3,0 C 99 % 1010,0 hPa 0,0 l/m 3,7 km/h (1 Bft) S-SW 193 0 min 0,000 mm 0,0 UV-I 0 W/m 2,9 C 3,0 C 4,8 km/h (1 Bft) 98,11 %
22.11.2016 02:36 3,2 C 99 % 1010,0 hPa 0,0 l/m 4,6 km/h (1 Bft) S-SW 193 0 min 0,000 mm 0,0 UV-I 0 W/m 3,1 C 3,2 C 6,4 km/h (2 Bft) 98,00 %
22.11.2016 02:38 3,2 C 99 % 1010,0 hPa 0,0 l/m 4,7 km/h (1 Bft) S-SW 193 0 min 0,000 mm 0,0 UV-I 0 W/m 3,1 C 3,2 C 6,4 km/h (2 Bft) 95,74 %
22.11.2016 02:40 3,1 C 99 % 1010,0 hPa 0,0 l/m 4,1 km/h (1 Bft) S-SW 193 0 min 0,000 mm 0,0 UV-I 0 W/m 3,0 C 3,1 C 4,8 km/h (1 Bft) 100,00 %
22.11.2016 02:42 2,9 C 99 % 1010,0 hPa 0,0 l/m 5,2 km/h (1 Bft) S-SW 193 0 min 0,000 mm 0,0 UV-I 0 W/m 2,8 C 2,9 C 6,4 km/h (2 Bft) 100,00 %
22.11.2016 02:44 2,7 C 99 % 1009,9 hPa 0,0 l/m 3,1 km/h (1 Bft) S-SW 192 0 min 0,000 mm 0,0 UV-I 0 W/m 2,6 C 2,7 C 4,8 km/h (1 Bft) 100,00 %
22.11.2016 02:46 2,8 C 99 % 1009,9 hPa 0,0 l/m 2,2 km/h (1 Bft) S-SW 192 0 min 0,000 mm 0,0 UV-I 0 W/m 2,7 C 2,8 C 4,8 km/h (1 Bft) 98,11 %
22.11.2016 02:48 2,9 C 99 % 1009,9 hPa 0,0 l/m 3,2 km/h (1 Bft) S-SW 192 0 min 0,000 mm 0,0 UV-I 0 W/m 2,8 C 2,9 C 4,8 km/h (1 Bft) 100,00 %
22.11.2016 02:50 2,9 C 99 % 1009,9 hPa 0,0 l/m 3,4 km/h (1 Bft) S-SW 192 0 min 0,000 mm 0,0 UV-I 0 W/m 2,8 C 2,9 C 4,8 km/h (1 Bft) 97,87 %
22.11.2016 02:52 3,2 C 99 % 1009,9 hPa 0,0 l/m 3,7 km/h (1 Bft) S-SW 192 0 min 0,000 mm 0,0 UV-I 0 W/m 3,1 C 3,2 C 4,8 km/h (1 Bft) 100,00 %
22.11.2016 02:54 3,4 C 99 % 1009,9 hPa 0,0 l/m 1,9 km/h (1 Bft) S-SW 192 0 min 0,000 mm 0,0 UV-I 0 W/m 3,3 C 3,4 C 3,2 km/h (1 Bft) 96,00 %
22.11.2016 02:56 3,3 C 99 % 1009,9 hPa 0,0 l/m 1,8 km/h (1 Bft) S-SW 192 0 min 0,000 mm 0,0 UV-I 0 W/m 3,2 C 3,3 C 3,2 km/h (1 Bft) 100,00 %
22.11.2016 02:58 3,3 C 99 % 1009,9 hPa 0,0 l/m 1,7 km/h (1 Bft) S-SW 192 0 min 0,000 mm 0,0 UV-I 0 W/m 3,2 C 3,3 C 3,2 km/h (1 Bft) 97,87 %
22.11.2016 03:00 3,3 C 99 % 1009,9 hPa 0,0 l/m 1,5 km/h (1 Bft) S-SW 192 0 min 0,000 mm 0,0 UV-I 0 W/m 3,2 C 3,3 C 3,2 km/h (1 Bft) 100,00 %
22.11.2016 03:02 3,2 C 99 % 1009,9 hPa 0,0 l/m 2,0 km/h (1 Bft) S-SW 192 0 min 0,000 mm 0,0 UV-I 0 W/m 3,1 C 3,2 C 3,2 km/h (1 Bft) 100,00 %
22.11.2016 03:04 3,2 C 99 % 1009,9 hPa 0,0 l/m 1,0 km/h (0 Bft) S-SW 192 0 min 0,000 mm 0,0 UV-I 0 W/m 3,1 C 3,2 C 3,2 km/h (1 Bft) 98,11 %
22.11.2016 03:06 3,2 C 99 % 1009,9 hPa 0,0 l/m 1,2 km/h (1 Bft) S-SW 192 0 min 0,000 mm 0,0 UV-I 0 W/m 3,1 C 3,2 C 1,6 km/h (1 Bft) 100,00 %
22.11.2016 03:08 3,1 C 99 % 1009,9 hPa 0,0 l/m 1,6 km/h (1 Bft) S-SW 192 0 min 0,000 mm 0,0 UV-I 0 W/m 3,0 C 3,1 C 3,2 km/h (1 Bft) 100,00 %
22.11.2016 03:10 2,8 C 99 % 1010,0 hPa 0,0 l/m 0,4 km/h (0 Bft) S-SW 192 0 min 0,000 mm 0,0 UV-I 0 W/m 2,7 C 2,8 C 1,6 km/h (1 Bft) 100,00 %
22.11.2016 03:12 2,7 C 99 % 1009,9 hPa 0,0 l/m 1,3 km/h (1 Bft) S-SW 192 0 min 0,000 mm 0,0 UV-I 0 W/m 2,6 C 2,7 C 3,2 km/h (1 Bft) 96,00 %
22.11.2016 03:14 2,7 C 98 % 1010,0 hPa 0,0 l/m 0,5 km/h (0 Bft) S-SW 192 0 min 0,000 mm 0,0 UV-I 0 W/m 2,4 C 2,7 C 3,2 km/h (1 Bft) 100,00 %
22.11.2016 03:16 2,7 C 98 % 1010,0 hPa 0,0 l/m 0,8 km/h (0 Bft) S-SW 192 0 min 0,000 mm 0,0 UV-I 0 W/m 2,4 C 2,7 C 3,2 km/h (1 Bft) 100,00 %
22.11.2016 03:18 2,7 C 98 % 1010,0 hPa 0,0 l/m 0,0 km/h (0 Bft) S-SW 192 0 min 0,000 mm 0,0 UV-I 0 W/m 2,4 C 2,7 C 0,0 km/h (0 Bft) 100,00 %
22.11.2016 03:20 2,8 C 99 % 1010,0 hPa 0,0 l/m 0,0 km/h (0 Bft) S-SW 192 0 min 0,000 mm 0,0 UV-I 0 W/m 2,7 C 2,8 C 1,6 km/h (1 Bft) 100,00 %
22.11.2016 03:22 2,8 C 99 % 1010,0 hPa 0,0 l/m 0,2 km/h (0 Bft) S-SW 192 0 min 0,000 mm 0,0 UV-I 0 W/m 2,7 C 2,8 C 1,6 km/h (1 Bft) 100,00 %
22.11.2016 03:24 2,8 C 99 % 1010,0 hPa 0,0 l/m 1,3 km/h (1 Bft) S-SW 192 0 min 0,000 mm 0,0 UV-I 0 W/m 2,7 C 2,8 C 3,2 km/h (1 Bft) 97,37 %
22.11.2016 03:26 2,8 C 99 % 1010,0 hPa 0,0 l/m 0,8 km/h (0 Bft) S-SW 192 0 min 0,000 mm 0,0 UV-I 0 W/m 2,7 C 2,8 C 3,2 km/h (1 Bft) 100,00 %
22.11.2016 03:28 2,7 C 99 % 1010,1 hPa 0,0 l/m 3,2 km/h (1 Bft) S-SW 192 0 min 0,000 mm 0,0 UV-I 0 W/m 2,6 C 2,7 C 4,8 km/h (1 Bft) 98,11 %
22.11.2016 03:30 2,7 C 99 % 1010,1 hPa 0,0 l/m 4,7 km/h (1 Bft) S-SW 192 0 min 0,000 mm 0,0 UV-I 0 W/m 2,6 C 2,7 C 6,4 km/h (2 Bft) 100,00 %
22.11.2016 03:32 2,6 C 99 % 1010,1 hPa 0,2 l/m 2,2 km/h (1 Bft) S-SW 192 0 min 0,000 mm 0,0 UV-I 0 W/m 2,5 C 2,6 C 4,8 km/h (1 Bft) 98,00 %
22.11.2016 03:34 2,5 C 99 % 1010,1 hPa 0,0 l/m 0,1 km/h (0 Bft) S-SW 192 0 min 0,000 mm 0,0 UV-I 0 W/m 2,4 C 2,5 C 1,6 km/h (1 Bft) 98,00 %
22.11.2016 03:36 2,4 C 99 % 1010,1 hPa 0,0 l/m 0,7 km/h (0 Bft) S-SW 192 0 min 0,000 mm 0,0 UV-I 0 W/m 2,3 C 2,4 C 3,2 km/h (1 Bft) 97,56 %
22.11.2016 03:38 2,4 C 98 % 1010,1 hPa 0,0 l/m 2,7 km/h (1 Bft) S-SW 192 0 min 0,000 mm 0,0 UV-I 0 W/m 2,1 C 2,4 C 4,8 km/h (1 Bft) 98,00 %
22.11.2016 03:40 2,6 C 99 % 1010,0 hPa 0,0 l/m 3,7 km/h (1 Bft) S-SW 192 0 min 0,000 mm 0,0 UV-I 0 W/m 2,5 C 2,6 C 4,8 km/h (1 Bft) 97,87 %
22.11.2016 03:42 2,8 C 99 % 1010,0 hPa 0,0 l/m 1,1 km/h (1 Bft) S-SW 192 0 min 0,000 mm 0,0 UV-I 0 W/m 2,7 C 2,8 C 3,2 km/h (1 Bft) 97,56 %
22.11.2016 03:44 3,0 C 99 % 1010,0 hPa 0,0 l/m 0,1 km/h (0 Bft) S-SW 192 0 min 0,000 mm 0,0 UV-I 0 W/m 2,9 C 3,0 C 1,6 km/h (1 Bft) 96,00 %
22.11.2016 03:46 2,9 C 99 % 1010,0 hPa 0,0 l/m 0,7 km/h (0 Bft) S-SW 192 0 min 0,000 mm 0,0 UV-I 0 W/m 2,8 C 2,9 C 1,6 km/h (1 Bft) 97,87 %
22.11.2016 03:48 2,9 C 99 % 1010,0 hPa 0,0 l/m 0,7 km/h (0 Bft) S-SW 192 0 min 0,000 mm 0,0 UV-I 0 W/m 2,8 C 2,9 C 3,2 km/h (1 Bft) 96,00 %
22.11.2016 03:50 3,1 C 99 % 1010,0 hPa 0,0 l/m 1,4 km/h (1 Bft) S-SW 192 0 min 0,000 mm 0,0 UV-I 0 W/m 3,0 C 3,1 C 3,2 km/h (1 Bft) 97,87 %
22.11.2016 03:52 3,1 C 99 % 1010,0 hPa 0,0 l/m 0,6 km/h (0 Bft) S-SW 192 0 min 0,000 mm 0,0 UV-I 0 W/m 3,0 C 3,1 C 1,6 km/h (1 Bft) 95,74 %
22.11.2016 03:54 3,0 C 99 % 1010,1 hPa 0,0 l/m 0,0 km/h (0 Bft) S-SW 192 0 min 0,000 mm 0,0 UV-I 0 W/m 2,9 C 3,0 C 0,0 km/h (0 Bft) 98,00 %
22.11.2016 03:56 2,8 C 99 % 1010,1 hPa 0,0 l/m 0,0 km/h (0 Bft) S-SW 192 0 min 0,000 mm 0,0 UV-I 0 W/m 2,7 C 2,8 C 0,0 km/h (0 Bft) 97,22 %
22.11.2016 03:58 2,9 C 99 % 1010,1 hPa 0,0 l/m 0,0 km/h (0 Bft) S-SW 192 0 min 0,000 mm 0,0 UV-I 0 W/m 2,8 C 2,9 C 0,0 km/h (0 Bft) 98,11 %
22.11.2016 04:00 2,9 C 99 % 1010,1 hPa 0,0 l/m 0,0 km/h (0 Bft) S-SW 192 0 min 0,000 mm 0,0 UV-I 0 W/m 2,8 C 2,9 C 0,0 km/h (0 Bft) 97,87 %
22.11.2016 04:05 3,2 C 99 % 1010,1 hPa 0,0 l/m 0,0 km/h (0 Bft) S-SW 192 0 min 0,000 mm 0,0 UV-I 0 W/m 3,1 C 3,2 C 0,0 km/h (0 Bft) 98,21 %
22.11.2016 04:06 3,1 C 99 % 1010,1 hPa 0,0 l/m 0,1 km/h (0 Bft) S-SW 192 0 min 0,000 mm 0,0 UV-I 0 W/m 3,0 C 3,1 C 1,6 km/h (1 Bft) 95,83 %
22.11.2016 04:08 2,8 C 99 % 1010,1 hPa 0,0 l/m 0,1 km/h (0 Bft) S-SW 193 0 min 0,000 mm 0,0 UV-I 0 W/m 2,7 C 2,8 C 1,6 km/h (1 Bft) 97,37 %
22.11.2016 04:10 3,1 C 99 % 1010,1 hPa 0,0 l/m 0,1 km/h (0 Bft) S-SW 192 0 min 0,000 mm 0,0 UV-I 0 W/m 3,0 C 3,1 C 1,6 km/h (1 Bft) 98,00 %
22.11.2016 04:12 2,9 C 99 % 1010,2 hPa 0,0 l/m 0,0 km/h (0 Bft) S-SW 192 0 min 0,000 mm 0,0 UV-I 0 W/m 2,8 C 2,9 C 0,0 km/h (0 Bft) 95,74 %
22.11.2016 04:14 3,0 C 99 % 1010,1 hPa 0,0 l/m 0,0 km/h (0 Bft) S-SW 192 0 min 0,000 mm 0,0 UV-I 0 W/m 2,9 C 3,0 C 1,6 km/h (1 Bft) 95,74 %
22.11.2016 04:16 3,1 C 99 % 1010,1 hPa 0,0 l/m 0,0 km/h (0 Bft) S-SW 192 0 min 0,000 mm 0,0 UV-I 0 W/m 3,0 C 3,1 C 0,0 km/h (0 Bft) 96,00 %
22.11.2016 04:18 3,2 C 99 % 1010,1 hPa 0,0 l/m 0,0 km/h (0 Bft) S-SW 192 0 min 0,000 mm 0,0 UV-I 0 W/m 3,1 C 3,2 C 0,0 km/h (0 Bft) 100,00 %
22.11.2016 04:20 3,1 C 99 % 1010,2 hPa 0,0 l/m 0,0 km/h (0 Bft) S-SW 192 0 min 0,000 mm 0,0 UV-I 0 W/m 3,0 C 3,1 C 0,0 km/h (0 Bft) 100,00 %
22.11.2016 04:22 2,9 C 99 % 1010,2 hPa 0,0 l/m 0,0 km/h (0 Bft) S-SW 192 0 min 0,000 mm 0,0 UV-I 0 W/m 2,8 C 2,9 C 0,0 km/h (0 Bft) 100,00 %
22.11.2016 04:24 2,8 C 99 % 1010,2 hPa 0,0 l/m 0,0 km/h (0 Bft) S-SW 192 0 min 0,000 mm 0,0 UV-I 0 W/m 2,7 C 2,8 C 0,0 km/h (0 Bft) 100,00 %
22.11.2016 04:26 3,1 C 99 % 1010,2 hPa 0,0 l/m 0,0 km/h (0 Bft) S-SW 192 0 min 0,000 mm 0,0 UV-I 0 W/m 3,0 C 3,1 C 0,0 km/h (0 Bft) 100,00 %
22.11.2016 04:28 3,3 C 99 % 1010,2 hPa 0,0 l/m 0,0 km/h (0 Bft) S-SW 192 0 min 0,000 mm 0,0 UV-I 0 W/m 3,2 C 3,3 C 0,0 km/h (0 Bft) 100,00 %
22.11.2016 04:30 3,4 C 99 % 1010,2 hPa 0,0 l/m 0,0 km/h (0 Bft) S-SW 192 0 min 0,000 mm 0,0 UV-I 0 W/m 3,3 C 3,4 C 0,0 km/h (0 Bft) 100,00 %
22.11.2016 04:32 3,2 C 99 % 1010,3 hPa 0,0 l/m 0,0 km/h (0 Bft) S-SW 192 0 min 0,000 mm 0,0 UV-I 0 W/m 3,1 C 3,2 C 0,0 km/h (0 Bft) 100,00 %
22.11.2016 04:34 2,8 C 99 % 1010,3 hPa 0,0 l/m 0,0 km/h (0 Bft) S-SW 192 0 min 0,000 mm 0,0 UV-I 0 W/m 2,7 C 2,8 C 0,0 km/h (0 Bft) 100,00 %
22.11.2016 04:36 2,8 C 99 % 1010,3 hPa 0,0 l/m 0,0 km/h (0 Bft) S-SW 192 0 min 0,000 mm 0,0 UV-I 0 W/m 2,7 C 2,8 C 0,0 km/h (0 Bft) 100,00 %
22.11.2016 04:38 2,8 C 99 % 1010,3 hPa 0,0 l/m 0,4 km/h (0 Bft) S-SW 192 0 min 0,000 mm 0,0 UV-I 0 W/m 2,7 C 2,8 C 1,6 km/h (1 Bft) 97,44 %
22.11.2016 04:40 2,9 C 99 % 1010,3 hPa 0,0 l/m 0,4 km/h (0 Bft) S-SW 192 0 min 0,000 mm 0,0 UV-I 0 W/m 2,8 C 2,9 C 1,6 km/h (1 Bft) 100,00 %
22.11.2016 04:42 2,9 C 99 % 1010,3 hPa 0,0 l/m 0,0 km/h (0 Bft) S-SW 192 0 min 0,000 mm 0,0 UV-I 0 W/m 2,8 C 2,9 C 0,0 km/h (0 Bft) 100,00 %
22.11.2016 04:44 2,7 C 99 % 1010,4 hPa 0,0 l/m 0,1 km/h (0 Bft) S-SW 192 0 min 0,000 mm 0,0 UV-I 0 W/m 2,6 C 2,7 C 1,6 km/h (1 Bft) 100,00 %
22.11.2016 04:46 2,7 C 99 % 1010,3 hPa 0,0 l/m 0,0 km/h (0 Bft) S-SW 192 0 min 0,000 mm 0,0 UV-I 0 W/m 2,6 C 2,7 C 0,0 km/h (0 Bft) 100,00 %
22.11.2016 04:48 2,7 C 99 % 1010,3 hPa 0,0 l/m 0,0 km/h (0 Bft) S-SW 192 0 min 0,000 mm 0,0 UV-I 0 W/m 2,6 C 2,7 C 0,0 km/h (0 Bft) 100,00 %
22.11.2016 04:50 2,9 C 99 % 1010,3 hPa 0,0 l/m 0,0 km/h (0 Bft) S-SW 192 0 min 0,000 mm 0,0 UV-I 0 W/m 2,8 C 2,9 C 0,0 km/h (0 Bft) 100,00 %
22.11.2016 04:52 3,2 C 99 % 1010,2 hPa 0,0 l/m 0,0 km/h (0 Bft) S-SW 192 0 min 0,000 mm 0,0 UV-I 0 W/m 3,1 C 3,2 C 0,0 km/h (0 Bft) 97,87 %
22.11.2016 04:54 3,2 C 99 % 1010,3 hPa 0,0 l/m 0,0 km/h (0 Bft) S-SW 192 0 min 0,000 mm 0,0 UV-I 0 W/m 3,1 C 3,2 C 0,0 km/h (0 Bft) 100,00 %
22.11.2016 04:56 3,2 C 99 % 1010,3 hPa 0,0 l/m 1,0 km/h (0 Bft) S-SW 192 0 min 0,000 mm 0,0 UV-I 0 W/m 3,1 C 3,2 C 3,2 km/h (1 Bft) 100,00 %
22.11.2016 04:58 3,1 C 99 % 1010,3 hPa 0,0 l/m 0,0 km/h (0 Bft) S-SW 192 0 min 0,000 mm 0,0 UV-I 0 W/m 3,0 C 3,1 C 0,0 km/h (0 Bft) 100,00 %
22.11.2016 05:00 3,4 C 99 % 1010,3 hPa 0,0 l/m 0,0 km/h (0 Bft) S-SW 192 0 min 0,000 mm 0,0 UV-I 0 W/m 3,3 C 3,4 C 0,0 km/h (0 Bft) 100,00 %
22.11.2016 05:02 3,4 C 99 % 1010,4 hPa 0,0 l/m 0,0 km/h (0 Bft) S-SW 192 0 min 0,000 mm 0,0 UV-I 0 W/m 3,3 C 3,4 C 1,6 km/h (1 Bft) 98,11 %
22.11.2016 05:04 3,1 C 99 % 1010,3 hPa 0,0 l/m 0,0 km/h (0 Bft) S-SW 192 0 min 0,000 mm 0,0 UV-I 0 W/m 3,0 C 3,1 C 0,0 km/h (0 Bft) 100,00 %
22.11.2016 05:06 2,9 C 99 % 1010,3 hPa 0,0 l/m 0,0 km/h (0 Bft) S-SW 192 0 min 0,000 mm 0,0 UV-I 0 W/m 2,8 C 2,9 C 1,6 km/h (1 Bft) 98,00 %
22.11.2016 05:08 2,7 C 99 % 1010,4 hPa 0,0 l/m 0,0 km/h (0 Bft) S-SW 192 0 min 0,000 mm 0,0 UV-I 0 W/m 2,6 C 2,7 C 0,0 km/h (0 Bft) 100,00 %
22.11.2016 05:10 2,4 C 99 % 1010,4 hPa 0,0 l/m 0,0 km/h (0 Bft) S-SW 192 0 min 0,000 mm 0,0 UV-I 0 W/m 2,3 C 2,4 C 0,0 km/h (0 Bft) 95,74 %
22.11.2016 05:12 2,4 C 99 % 1010,4 hPa 0,0 l/m 1,4 km/h (1 Bft) S-SW 192 0 min 0,000 mm 0,0 UV-I 0 W/m 2,3 C 2,4 C 3,2 km/h (1 Bft) 97,37 %
22.11.2016 05:14 2,5 C 99 % 1010,4 hPa 0,0 l/m 1,1 km/h (1 Bft) S-SW 192 0 min 0,000 mm 0,0 UV-I 0 W/m 2,4 C 2,5 C 3,2 km/h (1 Bft) 100,00 %
22.11.2016 05:16 2,6 C 99 % 1010,4 hPa 0,0 l/m 1,0 km/h (0 Bft) S-SW 192 0 min 0,000 mm 0,0 UV-I 0 W/m 2,5 C 2,6 C 1,6 km/h (1 Bft) 97,87 %
22.11.2016 05:18 2,7 C 99 % 1010,4 hPa 0,0 l/m 2,4 km/h (1 Bft) S-SW 192 0 min 0,000 mm 0,0 UV-I 0 W/m 2,6 C 2,7 C 3,2 km/h (1 Bft) 100,00 %
22.11.2016 05:20 2,7 C 99 % 1010,5 hPa 0,0 l/m 0,9 km/h (0 Bft) S-SW 192 0 min 0,000 mm 0,0 UV-I 0 W/m 2,6 C 2,7 C 3,2 km/h (1 Bft) 100,00 %
22.11.2016 05:22 2,7 C 99 % 1010,5 hPa 0,0 l/m 0,8 km/h (0 Bft) S-SW 192 0 min 0,000 mm 0,0 UV-I 0 W/m 2,6 C 2,7 C 3,2 km/h (1 Bft) 100,00 %
22.11.2016 05:24 2,8 C 99 % 1010,5 hPa 0,0 l/m 1,6 km/h (1 Bft) S-SW 192 0 min 0,000 mm 0,0 UV-I 0 W/m 2,7 C 2,8 C 3,2 km/h (1 Bft) 100,00 %
22.11.2016 05:26 2,7 C 99 % 1010,5 hPa 0,0 l/m 0,5 km/h (0 Bft) S-SW 192 0 min 0,000 mm 0,0 UV-I 0 W/m 2,6 C 2,7 C 1,6 km/h (1 Bft) 100,00 %
22.11.2016 05:28 2,6 C 99 % 1010,6 hPa 0,0 l/m 0,7 km/h (0 Bft) S-SW 192 0 min 0,000 mm 0,0 UV-I 0 W/m 2,5 C 2,6 C 3,2 km/h (1 Bft) 100,00 %
22.11.2016 05:30 2,6 C 99 % 1010,6 hPa 0,0 l/m 1,9 km/h (1 Bft) S-SW 192 0 min 0,000 mm 0,0 UV-I 0 W/m 2,5 C 2,6 C 3,2 km/h (1 Bft) 100,00 %
22.11.2016 05:32 2,8 C 99 % 1010,5 hPa 0,0 l/m 1,5 km/h (1 Bft) S-SW 192 0 min 0,000 mm 0,0 UV-I 0 W/m 2,7 C 2,8 C 3,2 km/h (1 Bft) 100,00 %
22.11.2016 05:34 2,7 C 99 % 1010,6 hPa 0,0 l/m 0,0 km/h (0 Bft) S-SW 192 0 min 0,000 mm 0,0 UV-I 0 W/m 2,6 C 2,7 C 0,0 km/h (0 Bft) 98,00 %
22.11.2016 05:36 2,6 C 99 % 1010,6 hPa 0,0 l/m 0,0 km/h (0 Bft) S-SW 192 0 min 0,000 mm 0,0 UV-I 0 W/m 2,5 C 2,6 C 0,0 km/h (0 Bft) 100,00 %
22.11.2016 05:38 2,4 C 99 % 1010,7 hPa 0,0 l/m 0,9 km/h (0 Bft) S-SW 192 0 min 0,000 mm 0,0 UV-I 0 W/m 2,3 C 2,4 C 3,2 km/h (1 Bft) 100,00 %
22.11.2016 05:40 2,6 C 99 % 1010,7 hPa 0,0 l/m 1,9 km/h (1 Bft) S-SW 192 0 min 0,000 mm 0,0 UV-I 0 W/m 2,5 C 2,6 C 3,2 km/h (1 Bft) 100,00 %
22.11.2016 05:42 2,7 C 99 % 1010,7 hPa 0,0 l/m 0,0 km/h (0 Bft) S-SW 192 0 min 0,000 mm 0,0 UV-I 0 W/m 2,6 C 2,7 C 0,0 km/h (0 Bft) 100,00 %
22.11.2016 05:44 2,6 C 99 % 1010,7 hPa 0,0 l/m 0,0 km/h (0 Bft) S-SW 192 0 min 0,000 mm 0,0 UV-I 0 W/m 2,5 C 2,6 C 0,0 km/h (0 Bft) 100,00 %
22.11.2016 05:46 2,6 C 99 % 1010,7 hPa 0,0 l/m 2,3 km/h (1 Bft) S-SW 192 0 min 0,000 mm 0,0 UV-I 0 W/m 2,5 C 2,6 C 4,8 km/h (1 Bft) 100,00 %
22.11.2016 05:48 2,6 C 99 % 1010,7 hPa 0,0 l/m 1,7 km/h (1 Bft) S-SW 192 0 min 0,000 mm 0,0 UV-I 0 W/m 2,5 C 2,6 C 3,2 km/h (1 Bft) 100,00 %
22.11.2016 05:50 2,4 C 99 % 1010,8 hPa 0,0 l/m 1,5 km/h (1 Bft) S-SW 192 0 min 0,000 mm 0,0 UV-I 0 W/m 2,3 C 2,4 C 3,2 km/h (1 Bft) 100,00 %
22.11.2016 05:52 2,3 C 99 % 1010,9 hPa 0,0 l/m 1,0 km/h (0 Bft) S-SW 192 0 min 0,000 mm 0,0 UV-I 0 W/m 2,2 C 2,3 C 1,6 km/h (1 Bft) 100,00 %
22.11.2016 05:54 2,2 C 99 % 1010,9 hPa 0,0 l/m 0,0 km/h (0 Bft) S-SW 192 0 min 0,000 mm 0,0 UV-I 0 W/m 2,1 C 2,2 C 1,6 km/h (1 Bft) 100,00 %
22.11.2016 05:56 2,2 C 99 % 1010,8 hPa 0,0 l/m 0,3 km/h (0 Bft) S-SW 192 0 min 0,000 mm 0,0 UV-I 0 W/m 2,1 C 2,2 C 1,6 km/h (1 Bft) 100,00 %
22.11.2016 05:58 2,6 C 99 % 1010,8 hPa 0,0 l/m 0,0 km/h (0 Bft) S-SW 192 0 min 0,000 mm 0,0 UV-I 0 W/m 2,5 C 2,6 C 0,0 km/h (0 Bft) 100,00 %
22.11.2016 06:00 2,8 C 99 % 1010,9 hPa 0,0 l/m 0,0 km/h (0 Bft) S-SW 192 0 min 0,000 mm 0,0 UV-I 0 W/m 2,7 C 2,8 C 0,0 km/h (0 Bft) 100,00 %
22.11.2016 06:02 2,7 C 99 % 1010,8 hPa 0,0 l/m 0,3 km/h (0 Bft) S-SW 192 0 min 0,000 mm 0,0 UV-I 0 W/m 2,6 C 2,7 C 3,2 km/h (1 Bft) 98,00 %
22.11.2016 06:04 2,7 C 99 % 1010,9 hPa 0,0 l/m 0,9 km/h (0 Bft) S-SW 192 0 min 0,000 mm 0,0 UV-I 0 W/m 2,6 C 2,7 C 3,2 km/h (1 Bft) 98,00 %
22.11.2016 06:06 2,7 C 99 % 1010,9 hPa 0,0 l/m 0,0 km/h (0 Bft) S-SW 192 0 min 0,000 mm 0,0 UV-I 0 W/m 2,6 C 2,7 C 0,0 km/h (0 Bft) 100,00 %
22.11.2016 06:08 2,7 C 99 % 1011,0 hPa 0,0 l/m 2,5 km/h (1 Bft) S-SW 192 0 min 0,000 mm 0,0 UV-I 0 W/m 2,6 C 2,7 C 4,8 km/h (1 Bft) 100,00 %
22.11.2016 06:10 2,7 C 99 % 1011,0 hPa 0,0 l/m 2,5 km/h (1 Bft) S-SW 193 0 min 0,000 mm 0,0 UV-I 0 W/m 2,6 C 2,7 C 3,2 km/h (1 Bft) 97,73 %
22.11.2016 06:12 2,7 C 99 % 1011,0 hPa 0,0 l/m 4,0 km/h (1 Bft) S-SW 192 0 min 0,000 mm 0,0 UV-I 0 W/m 2,6 C 2,7 C 4,8 km/h (1 Bft) 98,11 %
22.11.2016 06:14 2,7 C 99 % 1011,0 hPa 0,0 l/m 2,3 km/h (1 Bft) S-SW 192 0 min 0,000 mm 0,0 UV-I 0 W/m 2,6 C 2,7 C 4,8 km/h (1 Bft) 96,55 %
22.11.2016 06:16 2,6 C 99 % 1011,0 hPa 0,0 l/m 0,0 km/h (0 Bft) S-SW 192 0 min 0,000 mm 0,0 UV-I 0 W/m 2,5 C 2,6 C 0,0 km/h (0 Bft) 98,31 %
22.11.2016 06:18 2,6 C 99 % 1011,0 hPa 0,0 l/m 0,0 km/h (0 Bft) S-SW 192 0 min 0,000 mm 0,0 UV-I 0 W/m 2,5 C 2,6 C 0,0 km/h (0 Bft) 95,74 %
22.11.2016 06:20 2,7 C 99 % 1011,0 hPa 0,0 l/m 0,0 km/h (0 Bft) S-SW 192 0 min 0,000 mm 0,0 UV-I 0 W/m 2,6 C 2,7 C 0,0 km/h (0 Bft) 98,00 %
22.11.2016 06:22 2,8 C 99 % 1011,0 hPa 0,0 l/m 0,0 km/h (0 Bft) S-SW 192 0 min 0,000 mm 0,0 UV-I 0 W/m 2,7 C 2,8 C 0,0 km/h (0 Bft) 97,14 %
22.11.2016 06:24 2,7 C 99 % 1011,1 hPa 0,0 l/m 0,0 km/h (0 Bft) S-SW 192 0 min 0,000 mm 0,0 UV-I 0 W/m 2,6 C 2,7 C 0,0 km/h (0 Bft) 98,11 %
22.11.2016 06:26 2,6 C 99 % 1011,1 hPa 0,0 l/m 0,0 km/h (0 Bft) S-SW 192 0 min 0,000 mm 0,0 UV-I 0 W/m 2,5 C 2,6 C 1,6 km/h (1 Bft) 95,74 %
22.11.2016 06:28 2,6 C 99 % 1011,1 hPa 0,0 l/m 1,1 km/h (1 Bft) S-SW 192 0 min 0,000 mm 0,0 UV-I 0 W/m 2,5 C 2,6 C 3,2 km/h (1 Bft) 94,00 %
22.11.2016 06:30 2,7 C 99 % 1011,1 hPa 0,0 l/m 1,6 km/h (1 Bft) S-SW 192 0 min 0,000 mm 0,0 UV-I 0 W/m 2,6 C 2,7 C 3,2 km/h (1 Bft) 98,00 %
22.11.2016 06:32 2,8 C 99 % 1011,1 hPa 0,0 l/m 1,4 km/h (1 Bft) S-SW 192 0 min 0,000 mm 0,0 UV-I 0 W/m 2,7 C 2,8 C 3,2 km/h (1 Bft) 97,87 %
22.11.2016 06:34 2,8 C 99 % 1011,2 hPa 0,0 l/m 1,5 km/h (1 Bft) S-SW 192 0 min 0,000 mm 0,0 UV-I 0 W/m 2,7 C 2,8 C 3,2 km/h (1 Bft) 97,22 %
22.11.2016 06:36 2,5 C 99 % 1011,3 hPa 0,0 l/m 1,3 km/h (1 Bft) S-SW 192 0 min 0,000 mm 0,0 UV-I 0 W/m 2,4 C 2,5 C 1,6 km/h (1 Bft) 98,00 %
22.11.2016 06:38 2,3 C 99 % 1011,4 hPa 0,0 l/m 2,6 km/h (1 Bft) S-SW 192 0 min 0,000 mm 0,0 UV-I 0 W/m 2,2 C 2,3 C 4,8 km/h (1 Bft) 98,00 %
22.11.2016 06:40 2,1 C 99 % 1011,4 hPa 0,0 l/m 3,3 km/h (1 Bft) S-SW 192 0 min 0,000 mm 0,0 UV-I 0 W/m 2,0 C 2,1 C 4,8 km/h (1 Bft) 98,00 %
22.11.2016 06:42 2,0 C 99 % 1011,4 hPa 0,0 l/m 3,8 km/h (1 Bft) S-SW 192 0 min 0,000 mm 0,0 UV-I 0 W/m 1,9 C 2,0 C 4,8 km/h (1 Bft) 96,00 %
22.11.2016 06:44 1,9 C 99 % 1011,4 hPa 0,0 l/m 3,5 km/h (1 Bft) S-SW 192 0 min 0,000 mm 0,0 UV-I 0 W/m 1,8 C 1,9 C 4,8 km/h (1 Bft) 97,56 %
22.11.2016 06:46 1,9 C 99 % 1011,4 hPa 0,0 l/m 2,9 km/h (1 Bft) S-SW 192 0 min 0,000 mm 0,0 UV-I 0 W/m 1,8 C 1,9 C 4,8 km/h (1 Bft) 98,11 %
22.11.2016 06:48 1,9 C 99 % 1011,4 hPa 0,0 l/m 2,6 km/h (1 Bft) S-SW 192 0 min 0,000 mm 0,0 UV-I 0 W/m 1,8 C 1,9 C 4,8 km/h (1 Bft) 97,37 %
22.11.2016 06:50 2,0 C 99 % 1011,4 hPa 0,0 l/m 2,9 km/h (1 Bft) S-SW 192 0 min 0,000 mm 0,0 UV-I 0 W/m 1,9 C 2,0 C 4,8 km/h (1 Bft) 98,00 %
22.11.2016 06:52 2,2 C 99 % 1011,5 hPa 0,0 l/m 4,1 km/h (1 Bft) S-SW 192 0 min 0,000 mm 0,0 UV-I 0 W/m 2,1 C 2,2 C 4,8 km/h (1 Bft) 97,87 %
22.11.2016 06:54 2,4 C 99 % 1011,5 hPa 0,0 l/m 3,3 km/h (1 Bft) S-SW 192 0 min 0,000 mm 0,0 UV-I 0 W/m 2,3 C 2,4 C 4,8 km/h (1 Bft) 98,00 %
22.11.2016 06:56 2,5 C 99 % 1011,5 hPa 0,0 l/m 1,0 km/h (0 Bft) S-SW 192 0 min 0,000 mm 0,0 UV-I 0 W/m 2,4 C 2,5 C 3,2 km/h (1 Bft) 97,37 %
22.11.2016 06:58 2,7 C 99 % 1011,5 hPa 0,0 l/m 1,8 km/h (1 Bft) S-SW 192 0 min 0,000 mm 0,0 UV-I 0 W/m 2,6 C 2,7 C 3,2 km/h (1 Bft) 96,43 %
22.11.2016 07:00 2,7 C 99 % 1011,5 hPa 0,0 l/m 0,9 km/h (0 Bft) S-SW 192 0 min 0,000 mm 0,0 UV-I 0 W/m 2,6 C 2,7 C 3,2 km/h (1 Bft) 100,00 %
22.11.2016 07:02 2,7 C 99 % 1011,5 hPa 0,0 l/m 0,8 km/h (0 Bft) S-SW 192 0 min 0,000 mm 0,0 UV-I 0 W/m 2,6 C 2,7 C 3,2 km/h (1 Bft) 98,11 %
22.11.2016 07:04 2,7 C 99 % 1011,5 hPa 0,0 l/m 0,5 km/h (0 Bft) S-SW 192 0 min 0,000 mm 0,0 UV-I 5 W/m 2,6 C 2,7 C 1,6 km/h (1 Bft) 100,00 %
22.11.2016 07:06 2,4 C 99 % 1011,5 hPa 0,0 l/m 1,0 km/h (0 Bft) S-SW 192 0 min 0,000 mm 0,0 UV-I 0 W/m 2,3 C 2,4 C 1,6 km/h (1 Bft) 100,00 %
22.11.2016 07:08 2,4 C 99 % 1011,5 hPa 0,0 l/m 0,1 km/h (0 Bft) S-SW 192 0 min 0,000 mm 0,0 UV-I 10 W/m 2,3 C 2,4 C 1,6 km/h (1 Bft) 100,00 %
22.11.2016 07:10 2,5 C 99 % 1011,5 hPa 0,0 l/m 0,7 km/h (0 Bft) S-SW 192 0 min 0,000 mm 0,0 UV-I 12 W/m 2,4 C 2,5 C 3,2 km/h (1 Bft) 97,87 %
22.11.2016 07:12 2,6 C 99 % 1011,5 hPa 0,0 l/m 0,0 km/h (0 Bft) S-SW 192 0 min 0,000 mm 0,0 UV-I 12 W/m 2,5 C 2,6 C 0,0 km/h (0 Bft) 100,00 %
22.11.2016 07:14 2,4 C 99 % 1011,6 hPa 0,0 l/m 0,0 km/h (0 Bft) S-SW 192 0 min 0,000 mm 0,0 UV-I 14 W/m 2,3 C 2,4 C 1,6 km/h (1 Bft) 100,00 %
22.11.2016 07:16 2,3 C 99 % 1011,6 hPa 0,0 l/m 0,1 km/h (0 Bft) S-SW 192 0 min 0,000 mm 0,0 UV-I 14 W/m 2,2 C 2,3 C 1,6 km/h (1 Bft) 100,00 %
22.11.2016 07:18 2,3 C 99 % 1011,6 hPa 0,0 l/m 0,0 km/h (0 Bft) S-SW 192 0 min 0,000 mm 0,0 UV-I 14 W/m 2,2 C 2,3 C 0,0 km/h (0 Bft) 100,00 %
22.11.2016 07:20 2,3 C 99 % 1011,7 hPa 0,0 l/m 0,0 km/h (0 Bft) S-SW 192 0 min 0,000 mm 0,0 UV-I 14 W/m 2,2 C 2,3 C 0,0 km/h (0 Bft) 97,87 %
22.11.2016 07:22 2,2 C 99 % 1011,7 hPa 0,0 l/m 0,0 km/h (0 Bft) S-SW 192 0 min 0,000 mm 0,0 UV-I 14 W/m 2,1 C 2,2 C 0,0 km/h (0 Bft) 100,00 %
22.11.2016 07:24 2,1 C 99 % 1011,7 hPa 0,0 l/m 1,2 km/h (1 Bft) S-SW 192 0 min 0,000 mm 0,0 UV-I 14 W/m 2,0 C 2,1 C 3,2 km/h (1 Bft) 96,77 %
22.11.2016 07:26 2,1 C 99 % 1011,8 hPa 0,0 l/m 2,0 km/h (1 Bft) S-SW 192 0 min 0,000 mm 0,0 UV-I 14 W/m 2,0 C 2,1 C 3,2 km/h (1 Bft) 100,00 %
22.11.2016 07:28 2,1 C 99 % 1011,8 hPa 0,0 l/m 1,3 km/h (1 Bft) S-SW 192 0 min 0,000 mm 0,0 UV-I 16 W/m 2,0 C 2,1 C 3,2 km/h (1 Bft) 100,00 %
22.11.2016 07:30 2,2 C 99 % 1011,9 hPa 0,0 l/m 0,7 km/h (0 Bft) S-SW 192 0 min 0,000 mm 0,0 UV-I 17 W/m 2,1 C 2,2 C 1,6 km/h (1 Bft) 100,00 %
22.11.2016 07:32 2,1 C 99 % 1011,9 hPa 0,0 l/m 1,1 km/h (1 Bft) S-SW 192 0 min 0,000 mm 0,0 UV-I 18 W/m 2,0 C 2,1 C 3,2 km/h (1 Bft) 98,00 %
22.11.2016 07:34 2,1 C 99 % 1011,9 hPa 0,0 l/m 2,2 km/h (1 Bft) S-SW 192 2 min 0,000 mm 0,0 UV-I 20 W/m 2,0 C 2,1 C 3,2 km/h (1 Bft) 97,87 %
22.11.2016 07:36 2,1 C 99 % 1011,9 hPa 0,0 l/m 1,3 km/h (1 Bft) S-SW 192 2 min 0,000 mm 0,0 UV-I 23 W/m 2,0 C 2,1 C 3,2 km/h (1 Bft) 100,00 %
22.11.2016 07:38 2,2 C 99 % 1012,0 hPa 0,0 l/m 1,0 km/h (0 Bft) S-SW 192 2 min 0,000 mm 0,0 UV-I 25 W/m 2,1 C 2,2 C 1,6 km/h (1 Bft) 100,00 %
22.11.2016 07:40 2,4 C 99 % 1012,1 hPa 0,0 l/m 1,6 km/h (1 Bft) S-SW 192 2 min 0,000 mm 0,0 UV-I 26 W/m 2,3 C 2,4 C 3,2 km/h (1 Bft) 98,00 %
22.11.2016 07:42 2,4 C 99 % 1012,1 hPa 0,0 l/m 3,0 km/h (1 Bft) S-SW 192 2 min 0,000 mm 0,0 UV-I 28 W/m 2,3 C 2,4 C 4,8 km/h (1 Bft) 100,00 %
22.11.2016 07:44 2,6 C 99 % 1012,1 hPa 0,0 l/m 2,9 km/h (1 Bft) S-SW 192 2 min 0,000 mm 0,0 UV-I 32 W/m 2,5 C 2,6 C 4,8 km/h (1 Bft) 100,00 %
22.11.2016 07:46 2,6 C 99 % 1012,2 hPa 0,0 l/m 3,5 km/h (1 Bft) S-SW 192 2 min 0,000 mm 0,0 UV-I 39 W/m 2,5 C 2,6 C 4,8 km/h (1 Bft) 98,00 %
22.11.2016 07:48 2,4 C 99 % 1012,2 hPa 0,0 l/m 1,5 km/h (1 Bft) S-SW 192 2 min 0,000 mm 0,0 UV-I 53 W/m 2,3 C 2,4 C 3,2 km/h (1 Bft) 100,00 %
22.11.2016 07:50 2,2 C 99 % 1012,2 hPa 0,0 l/m 2,2 km/h (1 Bft) S-SW 193 2 min 0,000 mm 0,0 UV-I 70 W/m 2,1 C 2,2 C 3,2 km/h (1 Bft) 100,00 %
22.11.2016 07:52 2,3 C 99 % 1012,2 hPa 0,0 l/m 2,4 km/h (1 Bft) S-SW 192 2 min 0,000 mm 0,0 UV-I 80 W/m 2,2 C 2,3 C 3,2 km/h (1 Bft) 97,87 %
22.11.2016 07:54 2,4 C 99 % 1012,2 hPa 0,0 l/m 3,1 km/h (1 Bft) S-SW 192 2 min 0,000 mm 0,0 UV-I 84 W/m 2,3 C 2,4 C 4,8 km/h (1 Bft) 100,00 %
22.11.2016 07:56 2,6 C 99 % 1012,2 hPa 0,0 l/m 2,7 km/h (1 Bft) S-SW 192 2 min 0,000 mm 0,0 UV-I 89 W/m 2,5 C 2,6 C 3,2 km/h (1 Bft) 97,62 %
22.11.2016 07:58 2,6 C 99 % 1012,2 hPa 0,0 l/m 1,1 km/h (1 Bft) S-SW 192 2 min 0,000 mm 0,0 UV-I 94 W/m 2,5 C 2,6 C 3,2 km/h (1 Bft) 100,00 %
22.11.2016 08:00 2,5 C 99 % 1012,3 hPa 0,0 l/m 0,8 km/h (0 Bft) S-SW 193 2 min 0,000 mm 0,0 UV-I 99 W/m 2,4 C 2,5 C 1,6 km/h (1 Bft) 100,00 %
22.11.2016 08:02 2,6 C 99 % 1012,3 hPa 0,0 l/m 2,3 km/h (1 Bft) S-SW 192 2 min 0,000 mm 0,0 UV-I 105 W/m 2,5 C 2,6 C 3,2 km/h (1 Bft) 100,00 %
22.11.2016 08:04 2,8 C 99 % 1012,3 hPa 0,0 l/m 1,1 km/h (1 Bft) S-SW 192 2 min 0,000 mm 0,0 UV-I 111 W/m 2,7 C 2,8 C 3,2 km/h (1 Bft) 100,00 %
22.11.2016 08:06 3,0 C 99 % 1012,3 hPa 0,0 l/m 0,0 km/h (0 Bft) S-SW 192 2 min 0,000 mm 0,0 UV-I 115 W/m 2,9 C 3,0 C 0,0 km/h (0 Bft) 100,00 %
22.11.2016 08:08 3,2 C 99 % 1012,3 hPa 0,0 l/m 0,4 km/h (0 Bft) S-SW 192 2 min 0,000 mm 0,0 UV-I 117 W/m 3,1 C 3,2 C 1,6 km/h (1 Bft) 100,00 %
22.11.2016 08:10 3,3 C 99 % 1012,4 hPa 0,0 l/m 2,3 km/h (1 Bft) S-SW 192 2 min 0,000 mm 0,0 UV-I 125 W/m 3,2 C 3,3 C 3,2 km/h (1 Bft) 100,00 %
22.11.2016 08:12 3,3 C 99 % 1012,4 hPa 0,0 l/m 2,0 km/h (1 Bft) S-SW 192 2 min 0,000 mm 0,0 UV-I 129 W/m 3,2 C 3,3 C 3,2 km/h (1 Bft) 100,00 %
22.11.2016 08:14 3,4 C 99 % 1012,5 hPa 0,0 l/m 1,5 km/h (1 Bft) S-SW 192 2 min 0,000 mm 0,0 UV-I 133 W/m 3,3 C 3,4 C 3,2 km/h (1 Bft) 100,00 %
22.11.2016 08:16 3,4 C 99 % 1012,6 hPa 0,0 l/m 2,5 km/h (1 Bft) S-SW 192 2 min 0,000 mm 0,0 UV-I 137 W/m 3,3 C 3,4 C 3,2 km/h (1 Bft) 100,00 %
22.11.2016 08:18 3,4 C 99 % 1012,6 hPa 0,0 l/m 3,8 km/h (1 Bft) S-SW 192 2 min 0,000 mm 0,0 UV-I 139 W/m 3,3 C 3,4 C 4,8 km/h (1 Bft) 100,00 %
22.11.2016 08:20 3,3 C 99 % 1012,5 hPa 0,0 l/m 2,9 km/h (1 Bft) S-SW 193 2 min 0,000 mm 0,0 UV-I 136 W/m 3,2 C 3,3 C 3,2 km/h (1 Bft) 100,00 %
22.11.2016 08:22 3,3 C 99 % 1012,5 hPa 0,0 l/m 1,8 km/h (1 Bft) S-SW 193 2 min 0,000 mm 0,0 UV-I 129 W/m 3,2 C 3,3 C 3,2 km/h (1 Bft) 100,00 %
22.11.2016 08:24 3,4 C 99 % 1012,6 hPa 0,0 l/m 0,7 km/h (0 Bft) S-SW 192 2 min 0,000 mm 0,0 UV-I 120 W/m 3,3 C 3,4 C 4,8 km/h (1 Bft) 95,45 %
22.11.2016 08:26 3,5 C 99 % 1012,6 hPa 0,0 l/m 1,0 km/h (0 Bft) S-SW 192 2 min 0,000 mm 0,0 UV-I 129 W/m 3,4 C 3,5 C 4,8 km/h (1 Bft) 100,00 %
22.11.2016 08:28 3,6 C 99 % 1012,5 hPa 0,0 l/m 2,6 km/h (1 Bft) S-SW 192 2 min 0,000 mm 0,0 UV-I 125 W/m 3,5 C 3,6 C 4,8 km/h (1 Bft) 100,00 %
22.11.2016 08:30 3,6 C 99 % 1012,6 hPa 0,0 l/m 1,8 km/h (1 Bft) S-SW 192 2 min 0,000 mm 0,0 UV-I 111 W/m 3,5 C 3,6 C 3,2 km/h (1 Bft) 100,00 %
22.11.2016 08:32 3,9 C 99 % 1012,5 hPa 0,0 l/m 0,6 km/h (0 Bft) S-SW 193 2 min 0,000 mm 0,0 UV-I 122 W/m 3,8 C 3,9 C 3,2 km/h (1 Bft) 100,00 %
22.11.2016 08:34 4,2 C 99 % 1012,6 hPa 0,0 l/m 0,0 km/h (0 Bft) S-SW 193 2 min 0,000 mm 0,0 UV-I 119 W/m 4,1 C 4,2 C 0,0 km/h (0 Bft) 100,00 %
22.11.2016 08:36 4,3 C 99 % 1012,6 hPa 0,0 l/m 0,2 km/h (0 Bft) S-SW 193 2 min 0,000 mm 0,0 UV-I 133 W/m 4,2 C 4,3 C 1,6 km/h (1 Bft) 98,11 %
22.11.2016 08:38 4,3 C 99 % 1012,6 hPa 0,0 l/m 0,3 km/h (0 Bft) S-SW 192 2 min 0,000 mm 0,0 UV-I 147 W/m 4,2 C 4,3 C 1,6 km/h (1 Bft) 97,56 %
22.11.2016 08:40 4,2 C 99 % 1012,6 hPa 0,0 l/m 0,0 km/h (0 Bft) S-SW 193 2 min 0,000 mm 0,0 UV-I 136 W/m 4,1 C 4,2 C 1,6 km/h (1 Bft) 95,74 %
22.11.2016 08:42 4,2 C 99 % 1012,6 hPa 0,0 l/m 0,2 km/h (0 Bft) S-SW 193 2 min 0,000 mm 0,0 UV-I 104 W/m 4,1 C 4,2 C 1,6 km/h (1 Bft) 97,87 %
22.11.2016 08:44 4,2 C 99 % 1012,6 hPa 0,0 l/m 0,0 km/h (0 Bft) S-SW 192 2 min 0,000 mm 0,0 UV-I 99 W/m 4,1 C 4,2 C 0,0 km/h (0 Bft) 96,00 %
22.11.2016 08:46 4,3 C 99 % 1012,7 hPa 0,0 l/m 0,0 km/h (0 Bft) S-SW 193 2 min 0,000 mm 0,0 UV-I 108 W/m 4,2 C 4,3 C 0,0 km/h (0 Bft) 95,74 %
22.11.2016 08:48 4,3 C 99 % 1012,7 hPa 0,0 l/m 0,0 km/h (0 Bft) S-SW 192 2 min 0,000 mm 0,0 UV-I 114 W/m 4,2 C 4,3 C 0,0 km/h (0 Bft) 98,11 %
22.11.2016 08:50 4,5 C 99 % 1012,6 hPa 0,0 l/m 0,0 km/h (0 Bft) S-SW 193 0 min 0,000 mm 0,0 UV-I 99 W/m 4,4 C 4,5 C 0,0 km/h (0 Bft) 94,29 %
22.11.2016 08:52 4,6 C 99 % 1012,6 hPa 0,0 l/m 0,0 km/h (0 Bft) S-SW 192 0 min 0,000 mm 0,0 UV-I 87 W/m 4,5 C 4,6 C 0,0 km/h (0 Bft) 98,11 %
22.11.2016 08:54 4,6 C 99 % 1012,7 hPa 0,0 l/m 0,5 km/h (0 Bft) S-SW 192 0 min 0,000 mm 0,0 UV-I 83 W/m 4,5 C 4,6 C 1,6 km/h (1 Bft) 97,87 %
22.11.2016 08:56 4,4 C 99 % 1012,7 hPa 0,0 l/m 0,3 km/h (0 Bft) S-SW 192 0 min 0,000 mm 0,0 UV-I 78 W/m 4,3 C 4,4 C 1,6 km/h (1 Bft) 98,11 %
22.11.2016 08:58 4,3 C 99 % 1012,8 hPa 0,0 l/m 0,0 km/h (0 Bft) S-SW 192 0 min 0,000 mm 0,0 UV-I 87 W/m 4,2 C 4,3 C 0,0 km/h (0 Bft) 94,74 %
22.11.2016 09:00 4,3 C 99 % 1012,8 hPa 0,0 l/m 0,6 km/h (0 Bft) S-SW 192 0 min 0,000 mm 0,0 UV-I 106 W/m 4,2 C 4,3 C 3,2 km/h (1 Bft) 98,00 %
22.11.2016 09:02 4,3 C 99 % 1012,8 hPa 0,0 l/m 0,0 km/h (0 Bft) S-SW 192 2 min 0,051 mm 0,0 UV-I 127 W/m 4,2 C 4,3 C 0,0 km/h (0 Bft) 96,23 %
22.11.2016 09:04 4,4 C 99 % 1012,8 hPa 0,0 l/m 0,0 km/h (0 Bft) S-SW 192 2 min 0,000 mm 0,0 UV-I 123 W/m 4,3 C 4,4 C 0,0 km/h (0 Bft) 97,87 %
22.11.2016 09:06 4,4 C 99 % 1012,8 hPa 0,0 l/m 0,0 km/h (0 Bft) S-SW 192 2 min 0,000 mm 0,0 UV-I 132 W/m 4,3 C 4,4 C 1,6 km/h (1 Bft) 100,00 %
22.11.2016 09:08 4,4 C 99 % 1012,9 hPa 0,0 l/m 1,1 km/h (1 Bft) S-SW 193 2 min 0,000 mm 0,0 UV-I 146 W/m 4,3 C 4,4 C 3,2 km/h (1 Bft) 96,00 %
22.11.2016 09:10 4,3 C 99 % 1012,9 hPa 0,0 l/m 0,0 km/h (0 Bft) S-SW 192 2 min 0,000 mm 0,0 UV-I 153 W/m 4,2 C 4,3 C 0,0 km/h (0 Bft) 100,00 %
22.11.2016 09:12 4,3 C 99 % 1012,9 hPa 0,0 l/m 0,2 km/h (0 Bft) S-SW 193 2 min 0,000 mm 0,0 UV-I 154 W/m 4,2 C 4,3 C 1,6 km/h (1 Bft) 100,00 %
22.11.2016 09:14 4,4 C 99 % 1012,9 hPa 0,0 l/m 0,4 km/h (0 Bft) S-SW 192 2 min 0,000 mm 0,0 UV-I 153 W/m 4,3 C 4,4 C 1,6 km/h (1 Bft) 100,00 %
22.11.2016 09:16 4,7 C 99 % 1012,9 hPa 0,0 l/m 1,8 km/h (1 Bft) S-SW 192 2 min 0,000 mm 0,0 UV-I 154 W/m 4,6 C 4,7 C 3,2 km/h (1 Bft) 100,00 %
22.11.2016 09:18 5,1 C 99 % 1012,9 hPa 0,0 l/m 1,5 km/h (1 Bft) S-SW 192 2 min 0,000 mm 0,0 UV-I 195 W/m 5,0 C 5,1 C 3,2 km/h (1 Bft) 100,00 %
22.11.2016 09:20 5,4 C 99 % 1012,9 hPa 0,0 l/m 0,1 km/h (0 Bft) S-SW 192 2 min 0,000 mm 0,0 UV-I 217 W/m 5,3 C 5,4 C 1,6 km/h (1 Bft) 100,00 %
22.11.2016 09:22 5,5 C 99 % 1012,9 hPa 0,0 l/m 0,0 km/h (0 Bft) S-SW 192 2 min 0,000 mm 0,0 UV-I 192 W/m 5,4 C 5,5 C 0,0 km/h (0 Bft) 100,00 %
22.11.2016 09:24 5,4 C 99 % 1013,0 hPa 0,0 l/m 0,0 km/h (0 Bft) S-SW 192 2 min 0,000 mm 0,0 UV-I 189 W/m 5,3 C 5,4 C 0,0 km/h (0 Bft) 98,18 %
22.11.2016 09:26 5,6 C 99 % 1013,0 hPa 0,0 l/m 0,0 km/h (0 Bft) S-SW 193 2 min 0,000 mm 0,0 UV-I 196 W/m 5,5 C 5,6 C 0,0 km/h (0 Bft) 100,00 %
22.11.2016 09:28 5,6 C 99 % 1013,1 hPa 0,0 l/m 0,0 km/h (0 Bft) S-SW 193 2 min 0,000 mm 0,0 UV-I 196 W/m 5,5 C 5,6 C 0,0 km/h (0 Bft) 100,00 %
22.11.2016 09:30 5,6 C 99 % 1013,1 hPa 0,0 l/m 0,0 km/h (0 Bft) S-SW 192 2 min 0,000 mm 0,0 UV-I 157 W/m 5,5 C 5,6 C 0,0 km/h (0 Bft) 97,87 %
22.11.2016 09:32 5,4 C 99 % 1013,1 hPa 0,0 l/m 0,0 km/h (0 Bft) S-SW 193 2 min 0,000 mm 0,0 UV-I 150 W/m 5,3 C 5,4 C 0,0 km/h (0 Bft) 97,87 %
22.11.2016 09:34 5,4 C 99 % 1013,1 hPa 0,0 l/m 0,0 km/h (0 Bft) S-SW 193 2 min 0,000 mm 0,0 UV-I 168 W/m 5,3 C 5,4 C 0,0 km/h (0 Bft) 98,00 %
22.11.2016 09:36 5,6 C 99 % 1013,1 hPa 0,0 l/m 0,0 km/h (0 Bft) S-SW 192 2 min 0,000 mm 0,0 UV-I 162 W/m 5,5 C 5,6 C 0,0 km/h (0 Bft) 100,00 %
22.11.2016 09:38 5,8 C 99 % 1013,1 hPa 0,0 l/m 1,2 km/h (1 Bft) S-SW 192 2 min 0,000 mm 0,0 UV-I 163 W/m 5,7 C 5,8 C 4,8 km/h (1 Bft) 100,00 %
22.11.2016 09:40 6,0 C 99 % 1013,2 hPa 0,0 l/m 1,8 km/h (1 Bft) S-SW 192 2 min 0,000 mm 0,0 UV-I 161 W/m 5,9 C 6,0 C 3,2 km/h (1 Bft) 98,00 %
22.11.2016 09:42 6,2 C 99 % 1013,2 hPa 0,0 l/m 0,6 km/h (0 Bft) S-SW 192 2 min 0,000 mm 0,0 UV-I 158 W/m 6,1 C 6,2 C 3,2 km/h (1 Bft) 100,00 %
22.11.2016 09:44 6,3 C 99 % 1013,2 hPa 0,0 l/m 0,2 km/h (0 Bft) S-SW 192 2 min 0,000 mm 0,0 UV-I 167 W/m 6,2 C 6,3 C 1,6 km/h (1 Bft) 100,00 %
22.11.2016 09:46 6,4 C 99 % 1013,2 hPa 0,0 l/m 0,0 km/h (0 Bft) S-SW 192 2 min 0,000 mm 0,0 UV-I 159 W/m 6,3 C 6,4 C 1,6 km/h (1 Bft) 100,00 %
22.11.2016 09:48 6,6 C 99 % 1013,2 hPa 0,0 l/m 0,5 km/h (0 Bft) S-SW 192 2 min 0,000 mm 0,2 UV-I 196 W/m 6,5 C 6,6 C 1,6 km/h (1 Bft) 97,87 %
22.11.2016 09:50 6,8 C 99 % 1013,2 hPa 0,0 l/m 1,4 km/h (1 Bft) S-SW 192 2 min 0,000 mm 0,5 UV-I 254 W/m 6,7 C 6,8 C 3,2 km/h (1 Bft) 100,00 %
22.11.2016 09:52 6,8 C 99 % 1013,2 hPa 0,0 l/m 1,6 km/h (1 Bft) S-SW 192 2 min 0,000 mm 0,5 UV-I 221 W/m 6,7 C 6,8 C 3,2 km/h (1 Bft) 100,00 %
22.11.2016 09:54 7,0 C 99 % 1013,2 hPa 0,0 l/m 2,0 km/h (1 Bft) S-SW 192 2 min 0,000 mm 0,5 UV-I 209 W/m 6,9 C 7,0 C 3,2 km/h (1 Bft) 100,00 %
22.11.2016 09:56 7,1 C 99 % 1013,2 hPa 0,0 l/m 2,5 km/h (1 Bft) S-SW 192 2 min 0,000 mm 0,5 UV-I 229 W/m 7,0 C 7,1 C 4,8 km/h (1 Bft) 100,00 %
22.11.2016 09:58 7,2 C 99 % 1013,3 hPa 0,0 l/m 2,0 km/h (1 Bft) S-SW 192 2 min 0,000 mm 0,5 UV-I 269 W/m 7,1 C 7,2 C 3,2 km/h (1 Bft) 100,00 %
22.11.2016 10:00 7,3 C 99 % 1013,3 hPa 0,0 l/m 1,0 km/h (0 Bft) S-SW 192 2 min 0,076 mm 0,5 UV-I 280 W/m 7,2 C 7,3 C 3,2 km/h (1 Bft) 100,00 %
22.11.2016 10:02 7,4 C 98 % 1013,3 hPa 0,0 l/m 0,8 km/h (0 Bft) S-SW 192 2 min 0,000 mm 0,5 UV-I 243 W/m 7,1 C 7,4 C 3,2 km/h (1 Bft) 98,00 %
22.11.2016 10:04 7,5 C 98 % 1013,3 hPa 0,0 l/m 1,7 km/h (1 Bft) S-SW 192 2 min 0,000 mm 0,5 UV-I 211 W/m 7,2 C 7,5 C 3,2 km/h (1 Bft) 100,00 %
22.11.2016 10:06 7,6 C 98 % 1013,3 hPa 0,0 l/m 1,7 km/h (1 Bft) S-SW 192 2 min 0,000 mm 0,5 UV-I 196 W/m 7,3 C 7,6 C 4,8 km/h (1 Bft) 100,00 %
22.11.2016 10:08 7,6 C 98 % 1013,3 hPa 0,0 l/m 1,3 km/h (1 Bft) S-SW 192 2 min 0,000 mm 0,6 UV-I 238 W/m 7,3 C 7,6 C 3,2 km/h (1 Bft) 100,00 %
22.11.2016 10:10 7,7 C 98 % 1013,3 hPa 0,0 l/m 1,5 km/h (1 Bft) S-SW 192 2 min 0,000 mm 0,6 UV-I 236 W/m 7,4 C 7,7 C 3,2 km/h (1 Bft) 100,00 %
22.11.2016 10:12 7,7 C 97 % 1013,3 hPa 0,0 l/m 1,1 km/h (1 Bft) S-SW 192 2 min 0,000 mm 0,6 UV-I 226 W/m 7,3 C 7,7 C 3,2 km/h (1 Bft) 97,37 %
22.11.2016 10:15 7,8 C 97 % 1013,3 hPa 0,0 l/m 0,9 km/h (0 Bft) S-SW 192 3 min 0,000 mm 0,6 UV-I 277 W/m 7,4 C 7,8 C 3,2 km/h (1 Bft) 100,00 %
22.11.2016 10:16 7,9 C 97 % 1013,2 hPa 0,0 l/m 1,8 km/h (1 Bft) S-SW 192 1 min 0,000 mm 0,6 UV-I 276 W/m 7,5 C 7,9 C 3,2 km/h (1 Bft) 100,00 %
22.11.2016 10:18 8,1 C 97 % 1013,2 hPa 0,0 l/m 2,5 km/h (1 Bft) S 190 2 min 0,000 mm 0,6 UV-I 257 W/m 7,7 C 8,1 C 4,8 km/h (1 Bft) 100,00 %
22.11.2016 10:20 8,1 C 96 % 1013,2 hPa 0,0 l/m 3,1 km/h (1 Bft) S 190 2 min 0,000 mm 0,6 UV-I 252 W/m 7,5 C 8,1 C 4,8 km/h (1 Bft) 95,16 %
22.11.2016 10:22 8,1 C 96 % 1013,2 hPa 0,0 l/m 3,4 km/h (1 Bft) S 188 2 min 0,000 mm 0,6 UV-I 289 W/m 7,5 C 8,1 C 4,8 km/h (1 Bft) 97,37 %
22.11.2016 10:24 8,2 C 96 % 1013,2 hPa 0,0 l/m 2,5 km/h (1 Bft) S 188 2 min 0,000 mm 0,6 UV-I 306 W/m 7,6 C 8,2 C 3,2 km/h (1 Bft) 98,11 %
22.11.2016 10:26 8,3 C 95 % 1013,3 hPa 0,0 l/m 4,2 km/h (1 Bft) O 87 2 min 0,000 mm 0,7 UV-I 358 W/m 7,5 C 8,3 C 8,0 km/h (2 Bft) 94,74 %
22.11.2016 10:28 8,3 C 95 % 1013,3 hPa 0,0 l/m 4,7 km/h (1 Bft) O 80 2 min 0,000 mm 0,6 UV-I 307 W/m 7,5 C 8,3 C 6,4 km/h (2 Bft) 96,00 %
22.11.2016 10:30 8,3 C 94 % 1013,4 hPa 0,0 l/m 5,2 km/h (1 Bft) O-NO 61 2 min 0,000 mm 0,6 UV-I 281 W/m 7,4 C 8,3 C 6,4 km/h (2 Bft) 97,87 %
22.11.2016 10:32 8,4 C 94 % 1013,4 hPa 0,0 l/m 3,6 km/h (1 Bft) O-NO 61 2 min 0,000 mm 0,7 UV-I 297 W/m 7,5 C 8,4 C 4,8 km/h (1 Bft) 98,11 %
22.11.2016 10:34 8,6 C 93 % 1013,4 hPa 0,0 l/m 3,7 km/h (1 Bft) O-NO 61 2 min 0,000 mm 0,7 UV-I 308 W/m 7,5 C 8,6 C 6,4 km/h (2 Bft) 97,44 %
22.11.2016 10:36 8,7 C 94 % 1013,4 hPa 0,0 l/m 3,5 km/h (1 Bft) O-NO 61 2 min 0,000 mm 0,7 UV-I 291 W/m 7,8 C 8,7 C 6,4 km/h (2 Bft) 96,23 %
22.11.2016 10:38 8,7 C 93 % 1013,3 hPa 0,0 l/m 4,7 km/h (1 Bft) O-NO 62 2 min 0,000 mm 0,6 UV-I 237 W/m 7,6 C 8,7 C 6,4 km/h (2 Bft) 97,56 %
22.11.2016 10:40 8,8 C 92 % 1013,3 hPa 0,0 l/m 4,5 km/h (1 Bft) O-NO 61 2 min 0,000 mm 0,7 UV-I 248 W/m 7,6 C 8,8 C 6,4 km/h (2 Bft) 98,21 %
22.11.2016 10:42 8,8 C 92 % 1013,4 hPa 0,0 l/m 4,6 km/h (1 Bft) O-NO 63 2 min 0,000 mm 0,7 UV-I 247 W/m 7,6 C 8,8 C 8,0 km/h (2 Bft) 97,37 %
22.11.2016 10:44 8,8 C 92 % 1013,4 hPa 0,0 l/m 6,1 km/h (2 Bft) O-NO 64 2 min 0,000 mm 0,7 UV-I 289 W/m 7,6 C 8,8 C 8,0 km/h (2 Bft) 97,87 %
22.11.2016 10:46 8,9 C 91 % 1013,4 hPa 0,0 l/m 4,7 km/h (1 Bft) O-NO 64 2 min 0,000 mm 0,7 UV-I 339 W/m 7,5 C 8,9 C 6,4 km/h (2 Bft) 94,00 %
22.11.2016 10:48 9,1 C 92 % 1013,4 hPa 0,0 l/m 5,5 km/h (1 Bft) O-NO 63 2 min 0,000 mm 0,7 UV-I 349 W/m 7,9 C 9,1 C 8,0 km/h (2 Bft) 100,00 %
22.11.2016 10:50 9,1 C 91 % 1013,4 hPa 0,0 l/m 5,7 km/h (1 Bft) O-NO 61 2 min 0,000 mm 0,8 UV-I 349 W/m 7,7 C 9,1 C 8,0 km/h (2 Bft) 100,00 %
22.11.2016 10:52 9,2 C 92 % 1013,3 hPa 0,0 l/m 4,9 km/h (1 Bft) O-NO 61 2 min 0,000 mm 0,8 UV-I 425 W/m 8,0 C 9,2 C 6,4 km/h (2 Bft) 100,00 %
22.11.2016 10:54 9,3 C 92 % 1013,4 hPa 0,0 l/m 2,7 km/h (1 Bft) O-NO 59 2 min 0,000 mm 0,8 UV-I 379 W/m 8,1 C 9,3 C 4,8 km/h (1 Bft) 98,00 %
22.11.2016 10:56 9,4 C 92 % 1013,3 hPa 0,0 l/m 4,6 km/h (1 Bft) NO 51 2 min 0,000 mm 0,8 UV-I 415 W/m 8,2 C 9,4 C 6,4 km/h (2 Bft) 100,00 %
22.11.2016 10:58 9,7 C 91 % 1013,3 hPa 0,0 l/m 5,4 km/h (1 Bft) NO 49 2 min 0,000 mm 0,8 UV-I 382 W/m 8,3 C 9,7 C 8,0 km/h (2 Bft) 100,00 %
22.11.2016 11:00 9,7 C 90 % 1013,3 hPa 0,0 l/m 5,3 km/h (1 Bft) NO 48 2 min 0,127 mm 0,8 UV-I 330 W/m 8,1 C 9,7 C 8,0 km/h (2 Bft) 100,00 %
22.11.2016 11:03 9,6 C 90 % 1013,3 hPa 0,0 l/m 3,3 km/h (1 Bft) NO 49 3 min 0,000 mm 0,7 UV-I 271 W/m 8,0 C 9,6 C 6,4 km/h (2 Bft) 100,00 %
22.11.2016 11:04 9,6 C 90 % 1013,3 hPa 0,0 l/m 1,8 km/h (1 Bft) NO 49 1 min 0,000 mm 0,8 UV-I 283 W/m 8,0 C 9,6 C 3,2 km/h (1 Bft) 100,00 %
22.11.2016 11:06 9,7 C 90 % 1013,3 hPa 0,0 l/m 3,3 km/h (1 Bft) NO 54 2 min 0,000 mm 0,8 UV-I 316 W/m 8,1 C 9,7 C 6,4 km/h (2 Bft) 100,00 %
22.11.2016 11:08 9,7 C 90 % 1013,2 hPa 0,0 l/m 4,9 km/h (1 Bft) NO 55 2 min 0,000 mm 0,8 UV-I 300 W/m 8,1 C 9,7 C 8,0 km/h (2 Bft) 96,23 %
22.11.2016 11:10 9,8 C 90 % 1013,2 hPa 0,0 l/m 5,5 km/h (1 Bft) NO 55 2 min 0,000 mm 0,8 UV-I 277 W/m 8,2 C 9,8 C 6,4 km/h (2 Bft) 100,00 %
22.11.2016 11:12 9,8 C 90 % 1013,2 hPa 0,0 l/m 6,1 km/h (2 Bft) O-NO 65 2 min 0,000 mm 0,8 UV-I 277 W/m 8,2 C 9,8 C 8,0 km/h (2 Bft) 100,00 %
22.11.2016 11:14 9,8 C 89 % 1013,2 hPa 0,0 l/m 6,3 km/h (2 Bft) O-NO 61 2 min 0,000 mm 0,8 UV-I 272 W/m 8,1 C 9,8 C 9,7 km/h (2 Bft) 100,00 %
22.11.2016 11:16 9,9 C 90 % 1013,3 hPa 0,0 l/m 5,5 km/h (1 Bft) O-NO 65 2 min 0,000 mm 0,8 UV-I 259 W/m 8,3 C 9,9 C 8,0 km/h (2 Bft) 100,00 %
22.11.2016 11:18 9,9 C 90 % 1013,3 hPa 0,0 l/m 6,4 km/h (2 Bft) O-NO 65 2 min 0,000 mm 0,8 UV-I 263 W/m 8,3 C 9,9 C 8,0 km/h (2 Bft) 100,00 %
22.11.2016 11:20 9,9 C 89 % 1013,3 hPa 0,0 l/m 4,7 km/h (1 Bft) O-NO 67 2 min 0,000 mm 0,8 UV-I 265 W/m 8,2 C 9,9 C 8,0 km/h (2 Bft) 100,00 %
22.11.2016 11:22 9,9 C 89 % 1013,2 hPa 0,0 l/m 3,2 km/h (1 Bft) O-NO 67 2 min 0,000 mm 0,8 UV-I 299 W/m 8,2 C 9,9 C 4,8 km/h (1 Bft) 97,56 %
22.11.2016 11:24 10,0 C 90 % 1013,2 hPa 0,0 l/m 4,2 km/h (1 Bft) O-NO 62 2 min 0,000 mm 0,8 UV-I 334 W/m 8,4 C 10,0 C 6,4 km/h (2 Bft) 100,00 %
22.11.2016 11:26 10,1 C 90 % 1013,2 hPa 0,0 l/m 5,0 km/h (1 Bft) O-NO 58 2 min 0,000 mm 0,8 UV-I 325 W/m 8,5 C 10,1 C 6,4 km/h (2 Bft) 100,00 %
22.11.2016 11:28 10,2 C 90 % 1013,3 hPa 0,0 l/m 5,3 km/h (1 Bft) NO 53 2 min 0,000 mm 0,8 UV-I 307 W/m 8,6 C 10,2 C 8,0 km/h (2 Bft) 98,00 %
22.11.2016 11:30 10,2 C 89 % 1013,3 hPa 0,0 l/m 4,2 km/h (1 Bft) NO 53 2 min 0,000 mm 0,8 UV-I 330 W/m 8,5 C 10,2 C 6,4 km/h (2 Bft) 100,00 %
22.11.2016 11:32 10,3 C 90 % 1013,4 hPa 0,0 l/m 3,1 km/h (1 Bft) NO 53 2 min 0,000 mm 0,8 UV-I 325 W/m 8,7 C 10,3 C 6,4 km/h (2 Bft) 100,00 %
22.11.2016 11:34 10,3 C 89 % 1013,3 hPa 0,0 l/m 1,9 km/h (1 Bft) NO 53 2 min 0,000 mm 0,8 UV-I 292 W/m 8,6 C 10,3 C 4,8 km/h (1 Bft) 100,00 %
22.11.2016 11:36 10,4 C 89 % 1013,3 hPa 0,0 l/m 5,9 km/h (2 Bft) NO 54 2 min 0,000 mm 0,8 UV-I 302 W/m 8,7 C 10,4 C 8,0 km/h (2 Bft) 100,00 %
22.11.2016 11:38 10,4 C 89 % 1013,3 hPa 0,0 l/m 5,1 km/h (1 Bft) NO 54 2 min 0,000 mm 0,8 UV-I 286 W/m 8,7 C 10,4 C 6,4 km/h (2 Bft) 100,00 %
22.11.2016 11:40 10,4 C 88 % 1013,4 hPa 0,0 l/m 3,7 km/h (1 Bft) NO 54 2 min 0,000 mm 0,8 UV-I 269 W/m 8,5 C 10,4 C 6,4 km/h (2 Bft) 97,87 %
22.11.2016 11:42 10,5 C 89 % 1013,3 hPa 0,0 l/m 3,5 km/h (1 Bft) NO 54 2 min 0,000 mm 0,8 UV-I 252 W/m 8,8 C 10,5 C 4,8 km/h (1 Bft) 100,00 %
22.11.2016 11:44 10,5 C 88 % 1013,3 hPa 0,0 l/m 3,5 km/h (1 Bft) NO 54 2 min 0,000 mm 0,8 UV-I 247 W/m 8,6 C 10,5 C 4,8 km/h (1 Bft) 100,00 %
22.11.2016 11:46 10,6 C 88 % 1013,3 hPa 0,0 l/m 3,8 km/h (1 Bft) NO 54 2 min 0,000 mm 0,8 UV-I 257 W/m 8,7 C 10,6 C 6,4 km/h (2 Bft) 100,00 %
22.11.2016 11:48 10,6 C 89 % 1013,3 hPa 0,0 l/m 5,5 km/h (1 Bft) NO 52 2 min 0,000 mm 0,8 UV-I 256 W/m 8,9 C 10,6 C 8,0 km/h (2 Bft) 97,37 %
22.11.2016 11:50 10,6 C 88 % 1013,3 hPa 0,0 l/m 5,0 km/h (1 Bft) NO 52 2 min 0,000 mm 0,8 UV-I 241 W/m 8,7 C 10,6 C 6,4 km/h (2 Bft) 100,00 %
22.11.2016 11:52 10,5 C 88 % 1013,2 hPa 0,0 l/m 4,6 km/h (1 Bft) NO 54 2 min 0,000 mm 0,8 UV-I 244 W/m 8,6 C 10,5 C 8,0 km/h (2 Bft) 100,00 %
22.11.2016 11:54 10,6 C 88 % 1013,2 hPa 0,0 l/m 4,1 km/h (1 Bft) NO 52 2 min 0,000 mm 0,8 UV-I 260 W/m 8,7 C 10,6 C 6,4 km/h (2 Bft) 100,00 %
22.11.2016 11:56 10,6 C 88 % 1013,3 hPa 0,0 l/m 4,5 km/h (1 Bft) NO 56 2 min 0,000 mm 0,8 UV-I 249 W/m 8,7 C 10,6 C 8,0 km/h (2 Bft) 98,00 %
22.11.2016 11:58 10,6 C 87 % 1013,3 hPa 0,0 l/m 6,7 km/h (2 Bft) O-NO 58 2 min 0,000 mm 0,7 UV-I 232 W/m 8,5 C 10,4 C 9,7 km/h (2 Bft) 97,87 %
22.11.2016 12:00 10,7 C 87 % 1013,3 hPa 0,0 l/m 4,8 km/h (1 Bft) O-NO 59 2 min 0,127 mm 0,7 UV-I 228 W/m 8,6 C 10,7 C 8,0 km/h (2 Bft) 96,00 %
22.11.2016 12:04 10,7 C 87 % 1013,3 hPa 0,0 l/m 5,7 km/h (1 Bft) O-NO 63 4 min 0,000 mm 0,7 UV-I 234 W/m 8,6 C 10,7 C 8,0 km/h (2 Bft) 100,00 %
22.11.2016 12:06 10,8 C 87 % 1013,3 hPa 0,0 l/m 5,5 km/h (1 Bft) O-NO 62 2 min 0,000 mm 0,7 UV-I 242 W/m 8,7 C 10,8 C 8,0 km/h (2 Bft) 97,87 %
22.11.2016 12:08 10,8 C 87 % 1013,2 hPa 0,0 l/m 5,9 km/h (2 Bft) O-NO 59 2 min 0,000 mm 0,7 UV-I 246 W/m 8,7 C 10,8 C 8,0 km/h (2 Bft) 97,37 %
22.11.2016 12:10 10,8 C 87 % 1013,2 hPa 0,0 l/m 6,0 km/h (2 Bft) O-NO 63 2 min 0,000 mm 0,7 UV-I 241 W/m 8,7 C 10,8 C 8,0 km/h (2 Bft) 98,21 %
22.11.2016 12:12 10,8 C 87 % 1013,2 hPa 0,0 l/m 6,5 km/h (2 Bft) O-NO 59 2 min 0,000 mm 0,7 UV-I 239 W/m 8,7 C 10,8 C 8,0 km/h (2 Bft) 97,56 %
22.11.2016 12:14 10,9 C 87 % 1013,2 hPa 0,0 l/m 4,6 km/h (1 Bft) O-NO 59 2 min 0,000 mm 0,8 UV-I 275 W/m 8,8 C 10,9 C 6,4 km/h (2 Bft) 96,23 %
22.11.2016 12:16 10,9 C 87 % 1013,2 hPa 0,0 l/m 6,0 km/h (2 Bft) O-NO 58 2 min 0,000 mm 0,8 UV-I 300 W/m 8,8 C 10,9 C 8,0 km/h (2 Bft) 94,87 %
22.11.2016 12:18 11,0 C 87 % 1013,2 hPa 0,0 l/m 5,7 km/h (1 Bft) O-NO 61 2 min 0,000 mm 0,8 UV-I 309 W/m 8,9 C 11,0 C 8,0 km/h (2 Bft) 97,96 %
22.11.2016 12:20 11,0 C 86 % 1013,2 hPa 0,0 l/m 5,0 km/h (1 Bft) O-NO 69 2 min 0,000 mm 0,8 UV-I 314 W/m 8,7 C 11,0 C 8,0 km/h (2 Bft) 98,00 %
22.11.2016 12:22 11,1 C 87 % 1013,2 hPa 0,0 l/m 4,5 km/h (1 Bft) O-NO 69 2 min 0,000 mm 0,8 UV-I 303 W/m 9,0 C 11,1 C 6,4 km/h (2 Bft) 98,00 %
22.11.2016 12:24 11,2 C 88 % 1013,2 hPa 0,0 l/m 5,1 km/h (1 Bft) O-NO 69 2 min 0,000 mm 0,8 UV-I 323 W/m 9,3 C 11,2 C 8,0 km/h (2 Bft) 97,44 %
22.11.2016 12:26 11,2 C 87 % 1013,2 hPa 0,0 l/m 4,8 km/h (1 Bft) O-NO 68 2 min 0,000 mm 0,8 UV-I 383 W/m 9,1 C 11,2 C 8,0 km/h (2 Bft) 98,11 %
22.11.2016 12:28 11,4 C 86 % 1013,2 hPa 0,0 l/m 4,9 km/h (1 Bft) O-NO 68 2 min 0,000 mm 0,9 UV-I 450 W/m 9,1 C 11,4 C 6,4 km/h (2 Bft) 100,00 %
22.11.2016 12:30 11,5 C 86 % 1013,1 hPa 0,0 l/m 5,9 km/h (2 Bft) O-NO 61 2 min 0,000 mm 0,9 UV-I 443 W/m 9,2 C 11,5 C 8,0 km/h (2 Bft) 100,00 %
22.11.2016 12:32 11,6 C 86 % 1013,1 hPa 0,0 l/m 6,1 km/h (2 Bft) O-NO 57 2 min 0,000 mm 0,9 UV-I 436 W/m 9,3 C 11,6 C 8,0 km/h (2 Bft) 100,00 %
22.11.2016 12:34 11,7 C 86 % 1013,1 hPa 0,0 l/m 6,4 km/h (2 Bft) NO 53 2 min 0,000 mm 0,9 UV-I 428 W/m 9,4 C 11,7 C 9,7 km/h (2 Bft) 98,11 %
22.11.2016 12:36 11,8 C 85 % 1013,0 hPa 0,0 l/m 5,7 km/h (1 Bft) NO 43 2 min 0,000 mm 0,9 UV-I 452 W/m 9,4 C 11,8 C 9,7 km/h (2 Bft) 100,00 %
22.11.2016 12:38 11,8 C 84 % 1013,1 hPa 0,0 l/m 7,2 km/h (2 Bft) NO 52 2 min 0,000 mm 0,9 UV-I 421 W/m 9,2 C 11,3 C 9,7 km/h (2 Bft) 100,00 %
22.11.2016 12:40 11,8 C 85 % 1013,0 hPa 0,0 l/m 7,8 km/h (2 Bft) NO 56 2 min 0,000 mm 0,8 UV-I 358 W/m 9,4 C 10,9 C 9,7 km/h (2 Bft) 100,00 %
22.11.2016 12:42 11,8 C 85 % 1013,0 hPa 0,0 l/m 7,5 km/h (2 Bft) NO 36 2 min 0,000 mm 0,8 UV-I 313 W/m 9,4 C 11,1 C 11,3 km/h (2 Bft) 97,56 %
22.11.2016 12:44 11,8 C 86 % 1012,9 hPa 0,0 l/m 7,7 km/h (2 Bft) NO 40 2 min 0,000 mm 0,8 UV-I 329 W/m 9,5 C 10,9 C 9,7 km/h (2 Bft) 100,00 %
22.11.2016 12:46 11,8 C 86 % 1012,9 hPa 0,0 l/m 6,3 km/h (2 Bft) O-NO 57 2 min 0,000 mm 0,8 UV-I 340 W/m 9,5 C 11,8 C 9,7 km/h (2 Bft) 100,00 %
22.11.2016 12:48 11,8 C 84 % 1012,9 hPa 0,0 l/m 7,0 km/h (2 Bft) O-NO 70 2 min 0,000 mm 0,8 UV-I 333 W/m 9,2 C 11,4 C 11,3 km/h (2 Bft) 98,11 %
22.11.2016 12:50 11,8 C 85 % 1012,9 hPa 0,0 l/m 8,3 km/h (2 Bft) O-NO 64 2 min 0,000 mm 0,8 UV-I 337 W/m 9,4 C 10,6 C 12,9 km/h (3 Bft) 100,00 %
22.11.2016 12:52 11,9 C 85 % 1012,9 hPa 0,0 l/m 7,8 km/h (2 Bft) O-NO 68 2 min 0,000 mm 0,8 UV-I 363 W/m 9,5 C 11,0 C 12,9 km/h (3 Bft) 100,00 %
22.11.2016 12:54 11,9 C 84 % 1012,9 hPa 0,0 l/m 6,8 km/h (2 Bft) O-NO 69 2 min 0,000 mm 0,8 UV-I 390 W/m 9,3 C 11,6 C 9,7 km/h (2 Bft) 100,00 %
22.11.2016 12:56 12,1 C 84 % 1012,9 hPa 0,0 l/m 6,7 km/h (2 Bft) NO 46 2 min 0,000 mm 0,8 UV-I 355 W/m 9,5 C 11,9 C 9,7 km/h (2 Bft) 98,00 %
22.11.2016 12:58 12,1 C 85 % 1012,8 hPa 0,0 l/m 7,4 km/h (2 Bft) NO 53 2 min 0,000 mm 0,8 UV-I 346 W/m 9,7 C 11,4 C 9,7 km/h (2 Bft) 100,00 %
22.11.2016 13:00 12,2 C 85 % 1012,8 hPa 0,0 l/m 6,6 km/h (2 Bft) O-NO 61 2 min 0,178 mm 0,8 UV-I 345 W/m 9,8 C 12,1 C 9,7 km/h (2 Bft) 100,00 %
22.11.2016 13:03 12,3 C 83 % 1012,8 hPa 0,0 l/m 7,5 km/h (2 Bft) O-NO 59 3 min 0,000 mm 0,8 UV-I 381 W/m 9,5 C 11,6 C 9,7 km/h (2 Bft) 100,00 %
22.11.2016 13:04 12,3 C 84 % 1012,8 hPa 0,0 l/m 6,2 km/h (2 Bft) O-NO 57 1 min 0,000 mm 0,8 UV-I 396 W/m 9,7 C 12,3 C 9,7 km/h (2 Bft) 100,00 %
22.11.2016 13:06 12,4 C 85 % 1012,8 hPa 0,0 l/m 5,1 km/h (1 Bft) O-NO 57 2 min 0,000 mm 0,8 UV-I 397 W/m 9,9 C 12,4 C 6,4 km/h (2 Bft) 100,00 %
22.11.2016 13:08 12,4 C 85 % 1012,8 hPa 0,0 l/m 6,6 km/h (2 Bft) NO 42 2 min 0,000 mm 0,8 UV-I 396 W/m 9,9 C 12,3 C 8,0 km/h (2 Bft) 100,00 %
22.11.2016 13:10 12,5 C 85 % 1012,8 hPa 0,0 l/m 5,1 km/h (1 Bft) N-NO 26 2 min 0,000 mm 0,8 UV-I 431 W/m 10,0 C 12,5 C 8,0 km/h (2 Bft) 100,00 %
22.11.2016 13:12 12,6 C 84 % 1012,8 hPa 0,0 l/m 5,5 km/h (1 Bft) NO 46 2 min 0,000 mm 0,8 UV-I 430 W/m 10,0 C 12,6 C 8,0 km/h (2 Bft) 96,23 %
22.11.2016 13:14 12,7 C 83 % 1012,8 hPa 0,0 l/m 6,9 km/h (2 Bft) NO 49 2 min 0,000 mm 0,8 UV-I 430 W/m 9,9 C 12,4 C 8,0 km/h (2 Bft) 100,00 %
22.11.2016 13:16 12,8 C 82 % 1012,8 hPa 0,0 l/m 7,0 km/h (2 Bft) NO 55 2 min 0,000 mm 0,8 UV-I 434 W/m 9,8 C 12,4 C 11,3 km/h (2 Bft) 100,00 %
22.11.2016 13:18 12,8 C 83 % 1012,7 hPa 0,0 l/m 6,9 km/h (2 Bft) NO 49 2 min 0,000 mm 0,8 UV-I 436 W/m 10,0 C 12,5 C 8,0 km/h (2 Bft) 96,00 %
22.11.2016 13:20 12,8 C 83 % 1012,7 hPa 0,0 l/m 6,4 km/h (2 Bft) O-NO 57 2 min 0,000 mm 0,8 UV-I 433 W/m 10,0 C 12,8 C 11,3 km/h (2 Bft) 100,00 %
22.11.2016 13:22 12,9 C 82 % 1012,7 hPa 0,0 l/m 5,9 km/h (2 Bft) O-NO 71 2 min 0,000 mm 0,7 UV-I 427 W/m 9,9 C 12,9 C 8,0 km/h (2 Bft) 100,00 %
22.11.2016 13:24 13,0 C 82 % 1012,7 hPa 0,0 l/m 7,7 km/h (2 Bft) NO 35 2 min 0,000 mm 0,7 UV-I 421 W/m 10,0 C 12,2 C 11,3 km/h (2 Bft) 98,11 %
22.11.2016 13:26 13,1 C 83 % 1012,6 hPa 0,0 l/m 8,9 km/h (2 Bft) NO 49 2 min 0,000 mm 0,7 UV-I 388 W/m 10,3 C 11,6 C 11,3 km/h (2 Bft) 100,00 %
22.11.2016 13:28 13,1 C 82 % 1012,6 hPa 0,0 l/m 8,0 km/h (2 Bft) O-NO 61 2 min 0,000 mm 0,7 UV-I 412 W/m 10,1 C 12,1 C 12,9 km/h (3 Bft) 100,00 %
22.11.2016 13:30 13,2 C 81 % 1012,6 hPa 0,0 l/m 9,2 km/h (2 Bft) NO 49 2 min 0,000 mm 0,7 UV-I 403 W/m 10,0 C 11,5 C 14,5 km/h (3 Bft) 95,74 %
22.11.2016 13:32 13,2 C 81 % 1012,6 hPa 0,0 l/m 8,5 km/h (2 Bft) O-NO 69 2 min 0,000 mm 0,7 UV-I 394 W/m 10,0 C 11,9 C 12,9 km/h (3 Bft) 100,00 %
22.11.2016 13:34 13,3 C 80 % 1012,6 hPa 0,0 l/m 9,0 km/h (2 Bft) O-NO 59 2 min 0,000 mm 0,6 UV-I 352 W/m 9,9 C 11,8 C 12,9 km/h (3 Bft) 100,00 %
22.11.2016 13:36 13,2 C 80 % 1012,6 hPa 0,0 l/m 9,9 km/h (2 Bft) NO 49 2 min 0,000 mm 0,6 UV-I 316 W/m 9,8 C 11,2 C 14,5 km/h (3 Bft) 97,78 %
22.11.2016 13:38 13,2 C 80 % 1012,6 hPa 0,0 l/m 10,0 km/h (2 Bft) NO 54 2 min 0,000 mm 0,6 UV-I 322 W/m 9,8 C 11,1 C 14,5 km/h (3 Bft) 100,00 %
22.11.2016 13:40 13,1 C 80 % 1012,6 hPa 0,0 l/m 10,1 km/h (2 Bft) NO 49 2 min 0,000 mm 0,6 UV-I 337 W/m 9,7 C 11,0 C 16,1 km/h (3 Bft) 100,00 %
22.11.2016 13:42 13,1 C 80 % 1012,6 hPa 0,0 l/m 7,6 km/h (2 Bft) O-NO 69 2 min 0,000 mm 0,6 UV-I 333 W/m 9,7 C 12,3 C 12,9 km/h (3 Bft) 96,55 %
22.11.2016 13:44 13,1 C 80 % 1012,6 hPa 0,0 l/m 8,7 km/h (2 Bft) NO 56 2 min 0,000 mm 0,6 UV-I 297 W/m 9,7 C 11,7 C 14,5 km/h (3 Bft) 97,92 %
22.11.2016 13:46 13,1 C 80 % 1012,7 hPa 0,0 l/m 7,8 km/h (2 Bft) O-NO 78 2 min 0,000 mm 0,6 UV-I 249 W/m 9,7 C 12,2 C 11,3 km/h (2 Bft) 97,73 %
22.11.2016 13:48 13,1 C 81 % 1012,7 hPa 0,0 l/m 7,2 km/h (2 Bft) O-NO 59 2 min 0,000 mm 0,5 UV-I 282 W/m 9,9 C 12,6 C 9,7 km/h (2 Bft) 97,87 %
22.11.2016 13:50 13,2 C 82 % 1012,7 hPa 0,0 l/m 6,8 km/h (2 Bft) NO 55 2 min 0,000 mm 0,5 UV-I 286 W/m 10,2 C 13,0 C 11,3 km/h (2 Bft) 98,00 %
22.11.2016 13:52 13,2 C 81 % 1012,7 hPa 0,0 l/m 6,3 km/h (2 Bft) NO 43 2 min 0,000 mm 0,5 UV-I 284 W/m 10,0 C 13,2 C 9,7 km/h (2 Bft) 97,37 %
22.11.2016 13:54 13,2 C 81 % 1012,7 hPa 0,0 l/m 6,2 km/h (2 Bft) O-NO 57 2 min 0,000 mm 0,5 UV-I 240 W/m 10,0 C 13,2 C 8,0 km/h (2 Bft) 96,23 %
22.11.2016 13:56 13,1 C 81 % 1012,7 hPa 0,0 l/m 6,9 km/h (2 Bft) O-NO 67 2 min 0,000 mm 0,5 UV-I 221 W/m 9,9 C 12,8 C 9,7 km/h (2 Bft) 100,00 %
22.11.2016 13:58 13,1 C 81 % 1012,7 hPa 0,0 l/m 6,8 km/h (2 Bft) NO 55 2 min 0,000 mm 0,5 UV-I 190 W/m 9,9 C 12,9 C 11,3 km/h (2 Bft) 94,34 %
22.11.2016 14:00 13,0 C 81 % 1012,7 hPa 0,0 l/m 4,4 km/h (1 Bft) O-NO 58 2 min 0,178 mm 0,1 UV-I 180 W/m 9,8 C 13,0 C 6,4 km/h (2 Bft) 91,49 %
22.11.2016 14:02 13,0 C 82 % 1012,8 hPa 0,0 l/m 3,9 km/h (1 Bft) NO 47 2 min 0,000 mm 0,0 UV-I 198 W/m 10,0 C 13,0 C 6,4 km/h (2 Bft) 97,14 %
22.11.2016 14:04 13,0 C 83 % 1012,8 hPa 0,0 l/m 5,3 km/h (1 Bft) NO 37 2 min 0,000 mm 0,0 UV-I 244 W/m 10,2 C 13,0 C 8,0 km/h (2 Bft) 98,00 %
22.11.2016 14:06 13,0 C 83 % 1012,8 hPa 0,0 l/m 4,9 km/h (1 Bft) NO 41 2 min 0,000 mm 0,0 UV-I 172 W/m 10,2 C 13,0 C 6,4 km/h (2 Bft) 96,43 %
22.11.2016 14:08 12,9 C 82 % 1012,8 hPa 0,0 l/m 4,7 km/h (1 Bft) NO 36 2 min 0,000 mm 0,0 UV-I 154 W/m 9,9 C 12,9 C 6,4 km/h (2 Bft) 97,37 %
22.11.2016 14:10 12,9 C 82 % 1012,8 hPa 0,0 l/m 4,6 km/h (1 Bft) O-NO 57 2 min 0,000 mm 0,0 UV-I 174 W/m 9,9 C 12,9 C 6,4 km/h (2 Bft) 100,00 %
22.11.2016 14:12 12,9 C 82 % 1012,8 hPa 0,0 l/m 4,8 km/h (1 Bft) NO 46 2 min 0,000 mm 0,0 UV-I 157 W/m 9,9 C 12,9 C 6,4 km/h (2 Bft) 98,11 %
22.11.2016 14:14 12,9 C 82 % 1012,9 hPa 0,0 l/m 4,4 km/h (1 Bft) NO 53 0 min 0,000 mm 0,0 UV-I 138 W/m 9,9 C 12,9 C 6,4 km/h (2 Bft) 97,87 %
22.11.2016 14:16 12,8 C 83 % 1012,9 hPa 0,0 l/m 3,6 km/h (1 Bft) NO 53 0 min 0,000 mm 0,0 UV-I 111 W/m 10,0 C 12,8 C 4,8 km/h (1 Bft) 100,00 %
22.11.2016 14:18 12,8 C 83 % 1012,8 hPa 0,0 l/m 3,4 km/h (1 Bft) NO 53 2 min 0,000 mm 0,0 UV-I 165 W/m 10,0 C 12,8 C 4,8 km/h (1 Bft) 100,00 %
22.11.2016 14:20 12,8 C 84 % 1012,8 hPa 0,0 l/m 3,9 km/h (1 Bft) NO 53 2 min 0,000 mm 0,0 UV-I 189 W/m 10,2 C 12,8 C 6,4 km/h (2 Bft) 100,00 %
22.11.2016 14:22 12,8 C 84 % 1012,8 hPa 0,0 l/m 4,2 km/h (1 Bft) NO 54 2 min 0,000 mm 0,0 UV-I 166 W/m 10,2 C 12,8 C 6,4 km/h (2 Bft) 96,15 %
22.11.2016 14:24 12,8 C 83 % 1012,9 hPa 0,0 l/m 4,2 km/h (1 Bft) NO 54 2 min 0,000 mm 0,0 UV-I 134 W/m 10,0 C 12,8 C 6,4 km/h (2 Bft) 100,00 %
22.11.2016 14:26 12,8 C 84 % 1012,9 hPa 0,0 l/m 3,5 km/h (1 Bft) NO 54 0 min 0,000 mm 0,0 UV-I 110 W/m 10,2 C 12,8 C 4,8 km/h (1 Bft) 98,11 %
22.11.2016 14:28 12,7 C 85 % 1012,9 hPa 0,0 l/m 2,4 km/h (1 Bft) NO 54 0 min 0,000 mm 0,0 UV-I 93 W/m 10,2 C 12,7 C 4,8 km/h (1 Bft) 100,00 %
22.11.2016 14:30 12,6 C 85 % 1012,9 hPa 0,0 l/m 2,2 km/h (1 Bft) NO 54 0 min 0,000 mm 0,0 UV-I 78 W/m 10,1 C 12,6 C 3,2 km/h (1 Bft) 98,00 %
22.11.2016 14:32 12,6 C 85 % 1012,9 hPa 0,0 l/m 3,5 km/h (1 Bft) NO 54 0 min 0,000 mm 0,0 UV-I 74 W/m 10,1 C 12,6 C 4,8 km/h (1 Bft) 100,00 %
22.11.2016 14:34 12,6 C 85 % 1012,9 hPa 0,0 l/m 4,4 km/h (1 Bft) NO 54 0 min 0,000 mm 0,0 UV-I 74 W/m 10,1 C 12,6 C 6,4 km/h (2 Bft) 100,00 %
22.11.2016 14:36 12,5 C 85 % 1012,9 hPa 0,0 l/m 3,0 km/h (1 Bft) NO 54 0 min 0,000 mm 0,0 UV-I 76 W/m 10,0 C 12,5 C 4,8 km/h (1 Bft) 100,00 %
22.11.2016 14:38 12,4 C 86 % 1012,9 hPa 0,0 l/m 2,3 km/h (1 Bft) NO 54 0 min 0,000 mm 0,0 UV-I 72 W/m 10,1 C 12,4 C 3,2 km/h (1 Bft) 100,00 %
22.11.2016 14:40 12,3 C 86 % 1012,9 hPa 0,0 l/m 2,9 km/h (1 Bft) NO 54 0 min 0,000 mm 0,0 UV-I 70 W/m 10,0 C 12,3 C 4,8 km/h (1 Bft) 100,00 %
22.11.2016 14:42 12,3 C 86 % 1012,9 hPa 0,0 l/m 3,4 km/h (1 Bft) NO 54 0 min 0,000 mm 0,0 UV-I 109 W/m 10,0 C 12,3 C 4,8 km/h (1 Bft) 100,00 %
22.11.2016 14:44 12,2 C 87 % 1012,9 hPa 0,0 l/m 3,7 km/h (1 Bft) NO 54 2 min 0,000 mm 0,0 UV-I 143 W/m 10,1 C 12,2 C 4,8 km/h (1 Bft) 100,00 %
22.11.2016 14:46 12,2 C 87 % 1012,9 hPa 0,0 l/m 3,0 km/h (1 Bft) NO 54 2 min 0,000 mm 0,0 UV-I 164 W/m 10,1 C 12,2 C 4,8 km/h (1 Bft) 100,00 %
22.11.2016 14:48 12,2 C 87 % 1012,9 hPa 0,0 l/m 2,5 km/h (1 Bft) NO 54 2 min 0,000 mm 0,0 UV-I 143 W/m 10,1 C 12,2 C 3,2 km/h (1 Bft) 96,00 %
22.11.2016 14:50 12,3 C 86 % 1012,9 hPa 0,0 l/m 2,9 km/h (1 Bft) NO 54 2 min 0,000 mm 0,0 UV-I 118 W/m 10,0 C 12,3 C 4,8 km/h (1 Bft) 98,00 %
22.11.2016 14:52 12,2 C 86 % 1012,9 hPa 0,0 l/m 2,3 km/h (1 Bft) NO 54 0 min 0,000 mm 0,0 UV-I 94 W/m 9,9 C 12,2 C 4,8 km/h (1 Bft) 98,11 %
22.11.2016 14:54 12,2 C 86 % 1013,0 hPa 0,0 l/m 2,1 km/h (1 Bft) NO 54 2 min 0,000 mm 0,0 UV-I 103 W/m 9,9 C 12,2 C 3,2 km/h (1 Bft) 100,00 %
22.11.2016 14:56 12,2 C 87 % 1013,0 hPa 0,0 l/m 1,7 km/h (1 Bft) NO 54 2 min 0,000 mm 0,0 UV-I 103 W/m 10,1 C 12,2 C 3,2 km/h (1 Bft) 100,00 %
22.11.2016 14:58 12,1 C 87 % 1013,1 hPa 0,0 l/m 2,3 km/h (1 Bft) NO 54 2 min 0,000 mm 0,0 UV-I 102 W/m 10,0 C 12,1 C 4,8 km/h (1 Bft) 100,00 %
22.11.2016 15:00 12,1 C 87 % 1013,0 hPa 0,0 l/m 2,7 km/h (1 Bft) NO 54 2 min 0,076 mm 0,0 UV-I 101 W/m 10,0 C 12,1 C 4,8 km/h (1 Bft) 100,00 %
22.11.2016 15:02 11,9 C 88 % 1013,1 hPa 0,0 l/m 2,5 km/h (1 Bft) NO 54 2 min 0,000 mm 0,0 UV-I 98 W/m 10,0 C 11,9 C 3,2 km/h (1 Bft) 97,62 %
22.11.2016 15:04 11,8 C 88 % 1013,0 hPa 0,0 l/m 2,7 km/h (1 Bft) NO 54 0 min 0,000 mm 0,0 UV-I 76 W/m 9,9 C 11,8 C 3,2 km/h (1 Bft) 100,00 %
22.11.2016 15:06 11,9 C 88 % 1013,0 hPa 0,0 l/m 3,0 km/h (1 Bft) NO 54 0 min 0,000 mm 0,0 UV-I 68 W/m 10,0 C 11,9 C 4,8 km/h (1 Bft) 100,00 %
22.11.2016 15:08 12,2 C 87 % 1013,0 hPa 0,0 l/m 2,6 km/h (1 Bft) NO 54 0 min 0,000 mm 0,0 UV-I 63 W/m 10,1 C 12,2 C 4,8 km/h (1 Bft) 100,00 %
22.11.2016 15:10 12,2 C 87 % 1013,0 hPa 0,0 l/m 3,0 km/h (1 Bft) NO 54 0 min 0,000 mm 0,0 UV-I 62 W/m 10,1 C 12,2 C 3,2 km/h (1 Bft) 100,00 %
22.11.2016 15:12 12,2 C 87 % 1013,0 hPa 0,0 l/m 3,4 km/h (1 Bft) NO 54 0 min 0,000 mm 0,0 UV-I 62 W/m 10,1 C 12,2 C 4,8 km/h (1 Bft) 100,00 %
22.11.2016 15:14 12,2 C 87 % 1013,1 hPa 0,0 l/m 3,1 km/h (1 Bft) NO 54 0 min 0,000 mm 0,0 UV-I 60 W/m 10,1 C 12,2 C 4,8 km/h (1 Bft) 100,00 %
22.11.2016 15:16 12,1 C 87 % 1013,1 hPa 0,0 l/m 2,6 km/h (1 Bft) NO 54 0 min 0,000 mm 0,0 UV-I 60 W/m 10,0 C 12,1 C 3,2 km/h (1 Bft) 100,00 %
22.11.2016 15:18 12,0 C 87 % 1013,1 hPa 0,0 l/m 2,9 km/h (1 Bft) NO 54 0 min 0,000 mm 0,0 UV-I 59 W/m 9,9 C 12,0 C 4,8 km/h (1 Bft) 100,00 %
22.11.2016 15:20 11,9 C 88 % 1013,1 hPa 0,0 l/m 2,8 km/h (1 Bft) NO 54 0 min 0,000 mm 0,0 UV-I 57 W/m 10,0 C 11,9 C 4,8 km/h (1 Bft) 100,00 %
22.11.2016 15:22 11,9 C 88 % 1013,1 hPa 0,0 l/m 3,2 km/h (1 Bft) NO 54 0 min 0,000 mm 0,0 UV-I 55 W/m 10,0 C 11,9 C 4,8 km/h (1 Bft) 100,00 %
22.11.2016 15:24 11,9 C 88 % 1013,2 hPa 0,0 l/m 3,0 km/h (1 Bft) NO 54 0 min 0,000 mm 0,0 UV-I 54 W/m 10,0 C 11,9 C 4,8 km/h (1 Bft) 100,00 %
22.11.2016 15:26 11,8 C 88 % 1013,1 hPa 0,0 l/m 2,8 km/h (1 Bft) NO 54 0 min 0,000 mm 0,0 UV-I 52 W/m 9,9 C 11,8 C 3,2 km/h (1 Bft) 97,56 %
22.11.2016 15:28 11,7 C 88 % 1013,1 hPa 0,0 l/m 1,7 km/h (1 Bft) NO 54 0 min 0,000 mm 0,0 UV-I 49 W/m 9,8 C 11,7 C 3,2 km/h (1 Bft) 100,00 %
22.11.2016 15:30 11,7 C 89 % 1013,1 hPa 0,0 l/m 1,4 km/h (1 Bft) NO 54 0 min 0,000 mm 0,0 UV-I 46 W/m 9,9 C 11,7 C 3,2 km/h (1 Bft) 95,74 %
22.11.2016 15:32 11,7 C 89 % 1013,1 hPa 0,0 l/m 1,2 km/h (1 Bft) NO 54 0 min 0,000 mm 0,0 UV-I 43 W/m 9,9 C 11,7 C 1,6 km/h (1 Bft) 100,00 %
22.11.2016 15:34 11,7 C 89 % 1013,1 hPa 0,0 l/m 1,3 km/h (1 Bft) NO 54 0 min 0,000 mm 0,0 UV-I 40 W/m 9,9 C 11,7 C 3,2 km/h (1 Bft) 95,24 %
22.11.2016 15:36 11,7 C 89 % 1013,1 hPa 0,0 l/m 0,7 km/h (0 Bft) NO 54 0 min 0,000 mm 0,0 UV-I 38 W/m 9,9 C 11,7 C 1,6 km/h (1 Bft) 100,00 %
22.11.2016 15:38 11,7 C 88 % 1013,1 hPa 0,0 l/m 1,7 km/h (1 Bft) NO 54 0 min 0,000 mm 0,0 UV-I 35 W/m 9,8 C 11,7 C 3,2 km/h (1 Bft) 100,00 %
22.11.2016 15:40 11,7 C 88 % 1013,1 hPa 0,0 l/m 1,5 km/h (1 Bft) NO 54 0 min 0,000 mm 0,0 UV-I 33 W/m 9,8 C 11,7 C 1,6 km/h (1 Bft) 96,23 %
22.11.2016 15:42 11,4 C 88 % 1013,0 hPa 0,0 l/m 2,2 km/h (1 Bft) NO 54 0 min 0,000 mm 0,0 UV-I 32 W/m 9,5 C 11,4 C 3,2 km/h (1 Bft) 97,87 %
22.11.2016 15:44 11,3 C 90 % 1013,0 hPa 0,0 l/m 2,5 km/h (1 Bft) NO 54 0 min 0,000 mm 0,0 UV-I 30 W/m 9,7 C 11,3 C 3,2 km/h (1 Bft) 95,74 %
22.11.2016 15:46 11,4 C 90 % 1013,1 hPa 0,0 l/m 3,3 km/h (1 Bft) NO 54 0 min 0,000 mm 0,0 UV-I 28 W/m 9,8 C 11,4 C 4,8 km/h (1 Bft) 98,11 %
22.11.2016 15:48 11,4 C 89 % 1013,1 hPa 0,0 l/m 3,4 km/h (1 Bft) NO 54 0 min 0,000 mm 0,0 UV-I 26 W/m 9,7 C 11,4 C 4,8 km/h (1 Bft) 97,87 %
22.11.2016 15:50 11,3 C 90 % 1013,1 hPa 0,0 l/m 2,9 km/h (1 Bft) NO 54 0 min 0,000 mm 0,0 UV-I 25 W/m 9,7 C 11,3 C 4,8 km/h (1 Bft) 97,37 %
22.11.2016 15:52 11,2 C 90 % 1013,1 hPa 0,0 l/m 2,6 km/h (1 Bft) NO 54 0 min 0,000 mm 0,0 UV-I 24 W/m 9,6 C 11,2 C 3,2 km/h (1 Bft) 98,00 %
22.11.2016 15:54 11,2 C 90 % 1013,1 hPa 0,0 l/m 2,8 km/h (1 Bft) NO 54 0 min 0,000 mm 0,0 UV-I 22 W/m 9,6 C 11,2 C 3,2 km/h (1 Bft) 96,23 %
22.11.2016 15:56 11,2 C 90 % 1013,1 hPa 0,0 l/m 2,0 km/h (1 Bft) NO 55 0 min 0,000 mm 0,0 UV-I 21 W/m 9,6 C 11,2 C 3,2 km/h (1 Bft) 93,62 %
22.11.2016 15:58 11,1 C 90 % 1013,1 hPa 0,0 l/m 2,8 km/h (1 Bft) NO 54 0 min 0,000 mm 0,0 UV-I 19 W/m 9,5 C 11,1 C 4,8 km/h (1 Bft) 95,12 %
22.11.2016 16:00 10,9 C 90 % 1013,1 hPa 0,0 l/m 1,8 km/h (1 Bft) NO 54 2 min 0,025 mm 0,0 UV-I 18 W/m 9,3 C 10,9 C 3,2 km/h (1 Bft) 96,00 %
22.11.2016 16:02 10,8 C 91 % 1013,1 hPa 0,0 l/m 1,1 km/h (1 Bft) NO 54 2 min 0,000 mm 0,0 UV-I 18 W/m 9,4 C 10,8 C 1,6 km/h (1 Bft) 97,37 %
22.11.2016 16:04 10,6 C 92 % 1013,1 hPa 0,0 l/m 0,2 km/h (0 Bft) NO 54 2 min 0,000 mm 0,0 UV-I 14 W/m 9,4 C 10,6 C 1,6 km/h (1 Bft) 95,74 %
22.11.2016 16:06 10,5 C 92 % 1013,1 hPa 0,0 l/m 0,0 km/h (0 Bft) NO 54 2 min 0,000 mm 0,0 UV-I 13 W/m 9,3 C 10,5 C 0,0 km/h (0 Bft) 97,96 %
22.11.2016 16:08 10,4 C 92 % 1013,2 hPa 0,0 l/m 0,4 km/h (0 Bft) NO 54 0 min 0,000 mm 0,0 UV-I 11 W/m 9,2 C 10,4 C 1,6 km/h (1 Bft) 97,87 %
22.11.2016 16:10 10,3 C 92 % 1013,2 hPa 0,0 l/m 0,0 km/h (0 Bft) NO 54 0 min 0,000 mm 0,0 UV-I 9 W/m 9,1 C 10,3 C 1,6 km/h (1 Bft) 96,23 %
22.11.2016 16:12 10,2 C 92 % 1013,2 hPa 0,0 l/m 0,0 km/h (0 Bft) NO 54 0 min 0,000 mm 0,0 UV-I 8 W/m 9,0 C 10,2 C 0,0 km/h (0 Bft) 91,49 %
22.11.2016 16:14 10,1 C 93 % 1013,3 hPa 0,0 l/m 0,0 km/h (0 Bft) NO 54 0 min 0,000 mm 0,0 UV-I 7 W/m 9,0 C 10,1 C 0,0 km/h (0 Bft) 95,74 %
22.11.2016 16:16 9,9 C 92 % 1013,3 hPa 0,0 l/m 0,0 km/h (0 Bft) NO 54 0 min 0,000 mm 0,0 UV-I 7 W/m 8,7 C 9,9 C 1,6 km/h (1 Bft) 97,44 %
22.11.2016 16:18 9,7 C 93 % 1013,3 hPa 0,0 l/m 0,0 km/h (0 Bft) NO 54 0 min 0,000 mm 0,0 UV-I 6 W/m 8,6 C 9,7 C 0,0 km/h (0 Bft) 97,87 %
22.11.2016 16:20 9,5 C 93 % 1013,3 hPa 0,0 l/m 1,3 km/h (1 Bft) NO 54 0 min 0,000 mm 0,0 UV-I 5 W/m 8,4 C 9,5 C 1,6 km/h (1 Bft) 100,00 %
22.11.2016 16:22 9,4 C 94 % 1013,2 hPa 0,0 l/m 0,5 km/h (0 Bft) NO 54 0 min 0,000 mm 0,0 UV-I 5 W/m 8,5 C 9,4 C 1,6 km/h (1 Bft) 92,45 %
22.11.2016 16:24 9,4 C 95 % 1013,3 hPa 0,0 l/m 0,2 km/h (0 Bft) NO 54 0 min 0,000 mm 0,0 UV-I 5 W/m 8,6 C 9,4 C 1,6 km/h (1 Bft) 100,00 %
22.11.2016 16:26 9,5 C 95 % 1013,3 hPa 0,0 l/m 0,1 km/h (0 Bft) NO 54 0 min 0,000 mm 0,0 UV-I 5 W/m 8,7 C 9,5 C 1,6 km/h (1 Bft) 97,87 %
22.11.2016 16:28 9,6 C 95 % 1013,3 hPa 0,0 l/m 0,0 km/h (0 Bft) NO 54 0 min 0,000 mm 0,0 UV-I 4 W/m 8,8 C 9,6 C 1,6 km/h (1 Bft) 95,74 %
22.11.2016 16:30 9,5 C 95 % 1013,3 hPa 0,0 l/m 0,3 km/h (0 Bft) NO 54 0 min 0,000 mm 0,0 UV-I 0 W/m 8,7 C 9,5 C 1,6 km/h (1 Bft) 100,00 %
22.11.2016 16:32 9,3 C 94 % 1013,3 hPa 0,0 l/m 0,3 km/h (0 Bft) NO 54 0 min 0,000 mm 0,0 UV-I 0 W/m 8,4 C 9,3 C 1,6 km/h (1 Bft) 97,87 %
22.11.2016 16:34 9,1 C 95 % 1013,2 hPa 0,0 l/m 1,7 km/h (1 Bft) NO 54 0 min 0,000 mm 0,0 UV-I 0 W/m 8,3 C 9,1 C 3,2 km/h (1 Bft) 100,00 %
22.11.2016 16:36 9,1 C 95 % 1013,2 hPa 0,0 l/m 2,0 km/h (1 Bft) NO 54 0 min 0,000 mm 0,0 UV-I 0 W/m 8,3 C 9,1 C 3,2 km/h (1 Bft) 100,00 %
22.11.2016 16:38 9,1 C 96 % 1013,3 hPa 0,0 l/m 2,7 km/h (1 Bft) NO 54 0 min 0,000 mm 0,0 UV-I 0 W/m 8,5 C 9,1 C 3,2 km/h (1 Bft) 97,87 %
22.11.2016 16:40 9,2 C 96 % 1013,4 hPa 0,0 l/m 1,8 km/h (1 Bft) NO 54 0 min 0,000 mm 0,0 UV-I 0 W/m 8,6 C 9,2 C 3,2 km/h (1 Bft) 97,87 %
22.11.2016 16:42 9,3 C 96 % 1013,4 hPa 0,0 l/m 0,2 km/h (0 Bft) NO 54 0 min 0,000 mm 0,0 UV-I 0 W/m 8,7 C 9,3 C 1,6 km/h (1 Bft) 100,00 %
22.11.2016 16:44 9,3 C 95 % 1013,4 hPa 0,0 l/m 0,8 km/h (0 Bft) NO 54 0 min 0,000 mm 0,0 UV-I 0 W/m 8,5 C 9,3 C 1,6 km/h (1 Bft) 96,23 %
22.11.2016 16:46 9,3 C 96 % 1013,5 hPa 0,0 l/m 0,3 km/h (0 Bft) NO 54 0 min 0,000 mm 0,0 UV-I 0 W/m 8,7 C 9,3 C 1,6 km/h (1 Bft) 100,00 %
22.11.2016 16:48 9,2 C 95 % 1013,4 hPa 0,0 l/m 0,1 km/h (0 Bft) NO 54 0 min 0,000 mm 0,0 UV-I 0 W/m 8,4 C 9,2 C 1,6 km/h (1 Bft) 100,00 %
22.11.2016 16:50 9,1 C 95 % 1013,5 hPa 0,0 l/m 0,0 km/h (0 Bft) NO 54 0 min 0,000 mm 0,0 UV-I 0 W/m 8,3 C 9,1 C 0,0 km/h (0 Bft) 97,87 %
22.11.2016 16:52 9,0 C 95 % 1013,5 hPa 0,0 l/m 0,0 km/h (0 Bft) NO 54 0 min 0,000 mm 0,0 UV-I 0 W/m 8,2 C 9,0 C 0,0 km/h (0 Bft) 100,00 %
22.11.2016 16:54 8,8 C 94 % 1013,6 hPa 0,0 l/m 0,5 km/h (0 Bft) NO 54 0 min 0,000 mm 0,0 UV-I 0 W/m 7,9 C 8,8 C 1,6 km/h (1 Bft) 100,00 %
22.11.2016 16:56 8,6 C 95 % 1013,6 hPa 0,0 l/m 1,3 km/h (1 Bft) NO 54 0 min 0,000 mm 0,0 UV-I 0 W/m 7,8 C 8,6 C 3,2 km/h (1 Bft) 100,00 %
22.11.2016 16:58 8,4 C 95 % 1013,6 hPa 0,0 l/m 1,4 km/h (1 Bft) NO 54 0 min 0,000 mm 0,0 UV-I 0 W/m 7,6 C 8,4 C 3,2 km/h (1 Bft) 100,00 %
22.11.2016 17:00 8,3 C 95 % 1013,6 hPa 0,0 l/m 0,6 km/h (0 Bft) NO 54 0 min 0,000 mm 0,0 UV-I 0 W/m 7,5 C 8,3 C 1,6 km/h (1 Bft) 100,00 %
22.11.2016 17:03 8,2 C 96 % 1013,6 hPa 0,0 l/m 0,3 km/h (0 Bft) NO 54 0 min 0,000 mm 0,0 UV-I 0 W/m 7,6 C 8,2 C 1,6 km/h (1 Bft) 98,44 %
22.11.2016 17:04 8,2 C 96 % 1013,6 hPa 0,0 l/m 0,0 km/h (0 Bft) NO 54 0 min 0,000 mm 0,0 UV-I 0 W/m 7,6 C 8,2 C 0,0 km/h (0 Bft) 100,00 %
22.11.2016 17:06 8,3 C 96 % 1013,6 hPa 0,0 l/m 0,0 km/h (0 Bft) NO 54 0 min 0,000 mm 0,0 UV-I 0 W/m 7,7 C 8,3 C 0,0 km/h (0 Bft) 100,00 %
22.11.2016 17:08 8,4 C 97 % 1013,6 hPa 0,0 l/m 0,0 km/h (0 Bft) NO 54 0 min 0,000 mm 0,0 UV-I 0 W/m 8,0 C 8,4 C 0,0 km/h (0 Bft) 100,00 %
22.11.2016 17:10 8,4 C 96 % 1013,6 hPa 0,0 l/m 0,8 km/h (0 Bft) NO 54 0 min 0,000 mm 0,0 UV-I 0 W/m 7,8 C 8,4 C 3,2 km/h (1 Bft) 100,00 %
22.11.2016 17:12 8,3 C 96 % 1013,6 hPa 0,0 l/m 1,4 km/h (1 Bft) NO 54 0 min 0,000 mm 0,0 UV-I 0 W/m 7,7 C 8,3 C 3,2 km/h (1 Bft) 100,00 %
22.11.2016 17:14 8,1 C 96 % 1013,6 hPa 0,0 l/m 1,5 km/h (1 Bft) NO 54 0 min 0,000 mm 0,0 UV-I 0 W/m 7,5 C 8,1 C 3,2 km/h (1 Bft) 100,00 %
22.11.2016 17:16 8,0 C 96 % 1013,7 hPa 0,0 l/m 0,2 km/h (0 Bft) NO 54 0 min 0,000 mm 0,0 UV-I 0 W/m 7,4 C 8,0 C 1,6 km/h (1 Bft) 100,00 %
22.11.2016 17:18 7,9 C 96 % 1013,7 hPa 0,0 l/m 0,5 km/h (0 Bft) NO 54 0 min 0,000 mm 0,0 UV-I 0 W/m 7,3 C 7,9 C 1,6 km/h (1 Bft) 100,00 %
22.11.2016 17:20 7,9 C 96 % 1013,8 hPa 0,0 l/m 1,1 km/h (1 Bft) NO 54 0 min 0,000 mm 0,0 UV-I 0 W/m 7,3 C 7,9 C 1,6 km/h (1 Bft) 100,00 %
22.11.2016 17:22 7,9 C 97 % 1013,8 hPa 0,0 l/m 0,2 km/h (0 Bft) NO 54 0 min 0,000 mm 0,0 UV-I 0 W/m 7,5 C 7,9 C 1,6 km/h (1 Bft) 100,00 %
22.11.2016 17:24 7,9 C 97 % 1013,8 hPa 0,0 l/m 0,0 km/h (0 Bft) NO 54 0 min 0,000 mm 0,0 UV-I 0 W/m 7,5 C 7,9 C 0,0 km/h (0 Bft) 97,37 %
22.11.2016 17:26 8,0 C 97 % 1013,9 hPa 0,0 l/m 0,0 km/h (0 Bft) NO 54 0 min 0,000 mm 0,0 UV-I 0 W/m 7,6 C 8,0 C 0,0 km/h (0 Bft) 100,00 %
22.11.2016 17:28 8,2 C 97 % 1013,8 hPa 0,0 l/m 0,1 km/h (0 Bft) NO 54 0 min 0,000 mm 0,0 UV-I 0 W/m 7,8 C 8,2 C 1,6 km/h (1 Bft) 97,87 %
22.11.2016 17:30 8,3 C 98 % 1013,9 hPa 0,0 l/m 1,3 km/h (1 Bft) NO 55 0 min 0,000 mm 0,0 UV-I 0 W/m 8,0 C 8,3 C 3,2 km/h (1 Bft) 100,00 %
22.11.2016 17:32 8,4 C 97 % 1013,9 hPa 0,0 l/m 0,3 km/h (0 Bft) NO 54 0 min 0,000 mm 0,0 UV-I 0 W/m 8,0 C 8,4 C 1,6 km/h (1 Bft) 100,00 %
22.11.2016 17:34 8,4 C 97 % 1014,0 hPa 0,0 l/m 1,2 km/h (1 Bft) O-NO 71 0 min 0,000 mm 0,0 UV-I 0 W/m 8,0 C 8,4 C 3,2 km/h (1 Bft) 97,44 %
22.11.2016 17:36 8,1 C 96 % 1014,0 hPa 0,0 l/m 3,7 km/h (1 Bft) S-SO 164 0 min 0,000 mm 0,0 UV-I 0 W/m 7,5 C 8,1 C 6,4 km/h (2 Bft) 100,00 %
22.11.2016 17:38 7,9 C 96 % 1014,0 hPa 0,0 l/m 5,7 km/h (1 Bft) S-SO 167 0 min 0,000 mm 0,0 UV-I 0 W/m 7,3 C 7,9 C 6,4 km/h (2 Bft) 98,00 %
22.11.2016 17:40 7,8 C 97 % 1014,0 hPa 0,0 l/m 0,9 km/h (0 Bft) S-SO 167 0 min 0,000 mm 0,0 UV-I 0 W/m 7,4 C 7,8 C 4,8 km/h (1 Bft) 97,87 %
22.11.2016 17:42 7,5 C 96 % 1014,0 hPa 0,0 l/m 0,7 km/h (0 Bft) S-SO 167 0 min 0,000 mm 0,0 UV-I 0 W/m 6,9 C 7,5 C 1,6 km/h (1 Bft) 95,74 %
22.11.2016 17:44 7,3 C 96 % 1014,0 hPa 0,0 l/m 0,1 km/h (0 Bft) S-SO 167 0 min 0,000 mm 0,0 UV-I 0 W/m 6,7 C 7,3 C 1,6 km/h (1 Bft) 100,00 %
22.11.2016 17:46 7,5 C 97 % 1014,0 hPa 0,0 l/m 0,0 km/h (0 Bft) S-SO 167 0 min 0,000 mm 0,0 UV-I 0 W/m 7,1 C 7,5 C 0,0 km/h (0 Bft) 100,00 %
22.11.2016 17:48 7,8 C 98 % 1014,0 hPa 0,0 l/m 0,8 km/h (0 Bft) S-SO 167 0 min 0,000 mm 0,0 UV-I 0 W/m 7,5 C 7,8 C 4,8 km/h (1 Bft) 100,00 %
22.11.2016 17:50 7,8 C 98 % 1014,1 hPa 0,0 l/m 0,2 km/h (0 Bft) S-SO 167 0 min 0,000 mm 0,0 UV-I 0 W/m 7,5 C 7,8 C 1,6 km/h (1 Bft) 100,00 %
22.11.2016 17:52 7,7 C 97 % 1014,1 hPa 0,0 l/m 0,5 km/h (0 Bft) S-SO 167 0 min 0,000 mm 0,0 UV-I 0 W/m 7,3 C 7,7 C 1,6 km/h (1 Bft) 100,00 %
22.11.2016 17:54 7,6 C 97 % 1014,0 hPa 0,0 l/m 0,0 km/h (0 Bft) S-SO 167 0 min 0,000 mm 0,0 UV-I 0 W/m 7,2 C 7,6 C 1,6 km/h (1 Bft) 97,87 %
22.11.2016 17:56 7,7 C 98 % 1014,1 hPa 0,0 l/m 0,0 km/h (0 Bft) S-SO 167 0 min 0,000 mm 0,0 UV-I 0 W/m 7,4 C 7,7 C 0,0 km/h (0 Bft) 100,00 %
22.11.2016 17:58 7,7 C 98 % 1014,1 hPa 0,0 l/m 0,7 km/h (0 Bft) S-SO 167 0 min 0,000 mm 0,0 UV-I 0 W/m 7,4 C 7,7 C 1,6 km/h (1 Bft) 100,00 %
22.11.2016 18:00 7,8 C 98 % 1014,1 hPa 0,0 l/m 1,0 km/h (0 Bft) S-SO 167 0 min 0,000 mm 0,0 UV-I 0 W/m 7,5 C 7,8 C 1,6 km/h (1 Bft) 100,00 %
22.11.2016 18:03 7,8 C 98 % 1014,2 hPa 0,0 l/m 0,3 km/h (0 Bft) S-SO 167 0 min 0,000 mm 0,0 UV-I 0 W/m 7,5 C 7,8 C 1,6 km/h (1 Bft) 98,46 %
22.11.2016 18:04 7,8 C 98 % 1014,2 hPa 0,0 l/m 0,2 km/h (0 Bft) S-SO 167 0 min 0,000 mm 0,0 UV-I 0 W/m 7,5 C 7,8 C 1,6 km/h (1 Bft) 96,00 %
22.11.2016 18:06 7,6 C 97 % 1014,1 hPa 0,0 l/m 0,0 km/h (0 Bft) S-SO 167 0 min 0,000 mm 0,0 UV-I 0 W/m 7,2 C 7,6 C 0,0 km/h (0 Bft) 97,87 %
22.11.2016 18:08 7,3 C 97 % 1014,1 hPa 0,0 l/m 0,0 km/h (0 Bft) S-SO 167 0 min 0,000 mm 0,0 UV-I 0 W/m 6,9 C 7,3 C 0,0 km/h (0 Bft) 98,00 %
22.11.2016 18:10 7,2 C 97 % 1014,1 hPa 0,0 l/m 0,0 km/h (0 Bft) S-SO 167 0 min 0,000 mm 0,0 UV-I 0 W/m 6,8 C 7,2 C 0,0 km/h (0 Bft) 95,12 %
22.11.2016 18:12 7,1 C 97 % 1014,2 hPa 0,0 l/m 0,0 km/h (0 Bft) S-SO 167 0 min 0,000 mm 0,0 UV-I 0 W/m 6,7 C 7,1 C 0,0 km/h (0 Bft) 95,74 %
22.11.2016 18:14 7,1 C 97 % 1014,2 hPa 0,0 l/m 0,0 km/h (0 Bft) S-SO 167 0 min 0,000 mm 0,0 UV-I 0 W/m 6,7 C 7,1 C 0,0 km/h (0 Bft) 97,92 %
22.11.2016 18:16 7,2 C 97 % 1014,2 hPa 0,0 l/m 0,0 km/h (0 Bft) S-SO 167 0 min 0,000 mm 0,0 UV-I 0 W/m 6,8 C 7,2 C 0,0 km/h (0 Bft) 95,74 %
22.11.2016 18:18 7,3 C 98 % 1014,2 hPa 0,0 l/m 0,9 km/h (0 Bft) S-SO 167 0 min 0,000 mm 0,0 UV-I 0 W/m 7,0 C 7,3 C 4,8 km/h (1 Bft) 98,00 %
22.11.2016 18:20 7,3 C 98 % 1014,2 hPa 0,0 l/m 2,1 km/h (1 Bft) S-SO 167 0 min 0,000 mm 0,0 UV-I 0 W/m 7,0 C 7,3 C 4,8 km/h (1 Bft) 95,12 %
22.11.2016 18:22 7,2 C 97 % 1014,3 hPa 0,0 l/m 1,5 km/h (1 Bft) S-SO 167 0 min 0,000 mm 0,0 UV-I 0 W/m 6,8 C 7,2 C 4,8 km/h (1 Bft) 96,00 %
22.11.2016 18:24 7,2 C 98 % 1014,3 hPa 0,0 l/m 0,4 km/h (0 Bft) S-SO 167 0 min 0,000 mm 0,0 UV-I 0 W/m 6,9 C 7,2 C 1,6 km/h (1 Bft) 97,37 %
22.11.2016 18:26 7,0 C 97 % 1014,3 hPa 0,0 l/m 1,9 km/h (1 Bft) S-SO 167 0 min 0,000 mm 0,0 UV-I 0 W/m 6,6 C 7,0 C 4,8 km/h (1 Bft) 98,21 %
22.11.2016 18:28 6,9 C 98 % 1014,3 hPa 0,0 l/m 0,2 km/h (0 Bft) S-SO 167 0 min 0,000 mm 0,0 UV-I 0 W/m 6,6 C 6,9 C 1,6 km/h (1 Bft) 97,87 %
22.11.2016 18:30 7,1 C 98 % 1014,3 hPa 0,0 l/m 0,3 km/h (0 Bft) S-SO 167 0 min 0,000 mm 0,0 UV-I 0 W/m 6,8 C 7,1 C 1,6 km/h (1 Bft) 96,23 %
22.11.2016 18:32 6,9 C 98 % 1014,3 hPa 0,0 l/m 0,8 km/h (0 Bft) S-SO 167 0 min 0,000 mm 0,0 UV-I 0 W/m 6,6 C 6,9 C 1,6 km/h (1 Bft) 100,00 %
22.11.2016 18:34 6,8 C 97 % 1014,3 hPa 0,0 l/m 1,1 km/h (1 Bft) S-SO 167 0 min 0,000 mm 0,0 UV-I 0 W/m 6,4 C 6,8 C 1,6 km/h (1 Bft) 96,00 %
22.11.2016 18:36 7,0 C 98 % 1014,3 hPa 0,0 l/m 0,0 km/h (0 Bft) S-SO 167 0 min 0,000 mm 0,0 UV-I 0 W/m 6,7 C 7,0 C 0,0 km/h (0 Bft) 97,56 %
22.11.2016 18:38 7,2 C 98 % 1014,3 hPa 0,0 l/m 0,0 km/h (0 Bft) S-SO 167 0 min 0,000 mm 0,0 UV-I 0 W/m 6,9 C 7,2 C 0,0 km/h (0 Bft) 97,87 %
22.11.2016 18:40 7,3 C 98 % 1014,3 hPa 0,0 l/m 0,0 km/h (0 Bft) S-SO 167 0 min 0,000 mm 0,0 UV-I 0 W/m 7,0 C 7,3 C 0,0 km/h (0 Bft) 98,00 %
22.11.2016 18:42 7,3 C 98 % 1014,3 hPa 0,0 l/m 0,0 km/h (0 Bft) S-SO 167 0 min 0,000 mm 0,0 UV-I 0 W/m 7,0 C 7,3 C 0,0 km/h (0 Bft) 97,56 %
22.11.2016 18:44 7,3 C 98 % 1014,3 hPa 0,0 l/m 0,0 km/h (0 Bft) S-SO 167 0 min 0,000 mm 0,0 UV-I 0 W/m 7,0 C 7,3 C 0,0 km/h (0 Bft) 96,23 %
22.11.2016 18:46 7,1 C 98 % 1014,3 hPa 0,0 l/m 0,0 km/h (0 Bft) S-SO 167 0 min 0,000 mm 0,0 UV-I 0 W/m 6,8 C 7,1 C 0,0 km/h (0 Bft) 100,00 %
22.11.2016 18:48 6,9 C 98 % 1014,3 hPa 0,0 l/m 0,0 km/h (0 Bft) S-SO 167 0 min 0,000 mm 0,0 UV-I 0 W/m 6,6 C 6,9 C 0,0 km/h (0 Bft) 100,00 %
22.11.2016 18:50 6,9 C 98 % 1014,3 hPa 0,0 l/m 0,0 km/h (0 Bft) S-SO 167 0 min 0,000 mm 0,0 UV-I 0 W/m 6,6 C 6,9 C 0,0 km/h (0 Bft) 95,74 %
22.11.2016 18:52 6,9 C 98 % 1014,4 hPa 0,0 l/m 0,0 km/h (0 Bft) S-SO 167 0 min 0,000 mm 0,0 UV-I 0 W/m 6,6 C 6,9 C 0,0 km/h (0 Bft) 100,00 %
22.11.2016 18:54 6,8 C 98 % 1014,5 hPa 0,0 l/m 0,0 km/h (0 Bft) S-SO 167 0 min 0,000 mm 0,0 UV-I 0 W/m 6,5 C 6,8 C 0,0 km/h (0 Bft) 97,87 %
22.11.2016 18:56 6,9 C 98 % 1014,5 hPa 0,0 l/m 0,0 km/h (0 Bft) S-SO 167 0 min 0,000 mm 0,0 UV-I 0 W/m 6,6 C 6,9 C 0,0 km/h (0 Bft) 100,00 %
22.11.2016 18:58 6,7 C 98 % 1014,5 hPa 0,0 l/m 0,2 km/h (0 Bft) S-SO 167 0 min 0,000 mm 0,0 UV-I 0 W/m 6,4 C 6,7 C 1,6 km/h (1 Bft) 100,00 %
22.11.2016 19:00 6,7 C 98 % 1014,5 hPa 0,0 l/m 3,4 km/h (1 Bft) S-SO 167 0 min 0,000 mm 0,0 UV-I 0 W/m 6,4 C 6,7 C 6,4 km/h (2 Bft) 100,00 %
22.11.2016 19:03 6,5 C 98 % 1014,5 hPa 0,0 l/m 1,5 km/h (1 Bft) S-SO 167 0 min 0,000 mm 0,0 UV-I 0 W/m 6,2 C 6,5 C 4,8 km/h (1 Bft) 97,26 %
22.11.2016 19:04 6,4 C 98 % 1014,5 hPa 0,0 l/m 0,0 km/h (0 Bft) S-SO 167 0 min 0,000 mm 0,0 UV-I 0 W/m 6,1 C 6,4 C 0,0 km/h (0 Bft) 100,00 %
22.11.2016 19:06 6,5 C 98 % 1014,5 hPa 0,0 l/m 0,0 km/h (0 Bft) S-SO 167 0 min 0,000 mm 0,0 UV-I 0 W/m 6,2 C 6,5 C 0,0 km/h (0 Bft) 100,00 %
22.11.2016 19:08 6,4 C 98 % 1014,5 hPa 0,0 l/m 0,5 km/h (0 Bft) S-SO 167 0 min 0,000 mm 0,0 UV-I 0 W/m 6,1 C 6,4 C 1,6 km/h (1 Bft) 100,00 %
22.11.2016 19:10 6,3 C 98 % 1014,5 hPa 0,0 l/m 2,7 km/h (1 Bft) S-SO 167 0 min 0,000 mm 0,0 UV-I 0 W/m 6,0 C 6,3 C 4,8 km/h (1 Bft) 97,87 %
22.11.2016 19:12 6,5 C 98 % 1014,6 hPa 0,0 l/m 2,6 km/h (1 Bft) S-SO 167 0 min 0,000 mm 0,0 UV-I 0 W/m 6,2 C 6,5 C 4,8 km/h (1 Bft) 100,00 %
22.11.2016 19:14 6,7 C 98 % 1014,6 hPa 0,0 l/m 0,3 km/h (0 Bft) S-SO 167 0 min 0,000 mm 0,0 UV-I 0 W/m 6,4 C 6,7 C 1,6 km/h (1 Bft) 100,00 %
22.11.2016 19:16 6,9 C 98 % 1014,6 hPa 0,0 l/m 0,0 km/h (0 Bft) S-SO 167 0 min 0,000 mm 0,0 UV-I 0 W/m 6,6 C 6,9 C 0,0 km/h (0 Bft) 100,00 %
22.11.2016 19:18 7,0 C 98 % 1014,5 hPa 0,0 l/m 0,0 km/h (0 Bft) S-SO 167 0 min 0,000 mm 0,0 UV-I 0 W/m 6,7 C 7,0 C 0,0 km/h (0 Bft) 100,00 %
22.11.2016 19:20 7,1 C 98 % 1014,5 hPa 0,0 l/m 0,0 km/h (0 Bft) S-SO 167 0 min 0,000 mm 0,0 UV-I 0 W/m 6,8 C 7,1 C 0,0 km/h (0 Bft) 100,00 %
22.11.2016 19:22 7,0 C 98 % 1014,4 hPa 0,0 l/m 0,4 km/h (0 Bft) S-SO 167 0 min 0,000 mm 0,0 UV-I 0 W/m 6,7 C 7,0 C 1,6 km/h (1 Bft) 100,00 %
22.11.2016 19:24 7,3 C 99 % 1014,4 hPa 0,0 l/m 2,9 km/h (1 Bft) S-SO 167 0 min 0,000 mm 0,0 UV-I 0 W/m 7,2 C 7,3 C 4,8 km/h (1 Bft) 97,37 %
22.11.2016 19:26 7,6 C 99 % 1014,5 hPa 0,0 l/m 3,0 km/h (1 Bft) S-SO 167 0 min 0,000 mm 0,0 UV-I 0 W/m 7,5 C 7,6 C 4,8 km/h (1 Bft) 97,87 %
22.11.2016 19:28 7,8 C 99 % 1014,5 hPa 0,0 l/m 3,1 km/h (1 Bft) S-SO 167 0 min 0,000 mm 0,0 UV-I 0 W/m 7,7 C 7,8 C 4,8 km/h (1 Bft) 97,87 %
22.11.2016 19:30 7,9 C 99 % 1014,5 hPa 0,0 l/m 3,7 km/h (1 Bft) S-SO 167 0 min 0,000 mm 0,0 UV-I 0 W/m 7,8 C 7,9 C 4,8 km/h (1 Bft) 100,00 %
22.11.2016 19:32 8,0 C 99 % 1014,5 hPa 0,0 l/m 3,4 km/h (1 Bft) O-SO 113 0 min 0,000 mm 0,0 UV-I 0 W/m 7,9 C 8,0 C 4,8 km/h (1 Bft) 100,00 %
22.11.2016 19:34 7,9 C 99 % 1014,5 hPa 0,0 l/m 3,6 km/h (1 Bft) O-SO 113 0 min 0,000 mm 0,0 UV-I 0 W/m 7,8 C 7,9 C 4,8 km/h (1 Bft) 98,11 %
22.11.2016 19:36 7,8 C 99 % 1014,5 hPa 0,0 l/m 3,9 km/h (1 Bft) O-SO 103 0 min 0,000 mm 0,0 UV-I 0 W/m 7,7 C 7,8 C 4,8 km/h (1 Bft) 97,44 %
22.11.2016 19:38 7,9 C 99 % 1014,5 hPa 0,0 l/m 4,0 km/h (1 Bft) O 87 0 min 0,000 mm 0,0 UV-I 0 W/m 7,8 C 7,9 C 4,8 km/h (1 Bft) 96,00 %
22.11.2016 19:40 8,0 C 99 % 1014,5 hPa 0,0 l/m 4,0 km/h (1 Bft) O 86 0 min 0,000 mm 0,0 UV-I 0 W/m 7,9 C 8,0 C 4,8 km/h (1 Bft) 100,00 %
22.11.2016 19:42 8,2 C 99 % 1014,5 hPa 0,0 l/m 3,0 km/h (1 Bft) O 86 0 min 0,000 mm 0,0 UV-I 0 W/m 8,1 C 8,2 C 4,8 km/h (1 Bft) 100,00 %
22.11.2016 19:44 8,2 C 99 % 1014,5 hPa 0,0 l/m 2,5 km/h (1 Bft) O 86 0 min 0,000 mm 0,0 UV-I 0 W/m 8,1 C 8,2 C 3,2 km/h (1 Bft) 100,00 %
22.11.2016 19:46 7,8 C 98 % 1014,5 hPa 0,0 l/m 1,5 km/h (1 Bft) O 86 0 min 0,000 mm 0,0 UV-I 0 W/m 7,5 C 7,8 C 3,2 km/h (1 Bft) 100,00 %
22.11.2016 19:48 7,2 C 98 % 1014,6 hPa 0,0 l/m 1,2 km/h (1 Bft) O 86 0 min 0,000 mm 0,0 UV-I 0 W/m 6,9 C 7,2 C 3,2 km/h (1 Bft) 100,00 %
22.11.2016 19:50 6,8 C 97 % 1014,6 hPa 0,0 l/m 2,0 km/h (1 Bft) O 86 0 min 0,000 mm 0,0 UV-I 0 W/m 6,4 C 6,8 C 3,2 km/h (1 Bft) 98,00 %
22.11.2016 19:52 7,0 C 98 % 1014,6 hPa 0,0 l/m 3,1 km/h (1 Bft) O 86 0 min 0,000 mm 0,0 UV-I 0 W/m 6,7 C 7,0 C 4,8 km/h (1 Bft) 100,00 %
22.11.2016 19:54 6,8 C 98 % 1014,6 hPa 0,0 l/m 2,9 km/h (1 Bft) O 86 0 min 0,000 mm 0,0 UV-I 0 W/m 6,5 C 6,8 C 3,2 km/h (1 Bft) 100,00 %
22.11.2016 19:56 6,7 C 98 % 1014,6 hPa 0,0 l/m 3,2 km/h (1 Bft) O 86 0 min 0,000 mm 0,0 UV-I 0 W/m 6,4 C 6,7 C 4,8 km/h (1 Bft) 100,00 %
22.11.2016 19:58 6,9 C 98 % 1014,6 hPa 0,0 l/m 2,3 km/h (1 Bft) O 86 0 min 0,000 mm 0,0 UV-I 0 W/m 6,6 C 6,9 C 3,2 km/h (1 Bft) 100,00 %
22.11.2016 20:00 6,8 C 98 % 1014,6 hPa 0,0 l/m 2,0 km/h (1 Bft) O 86 0 min 0,000 mm 0,0 UV-I 0 W/m 6,5 C 6,8 C 3,2 km/h (1 Bft) 100,00 %
22.11.2016 20:02 7,0 C 98 % 1014,6 hPa 0,0 l/m 3,0 km/h (1 Bft) O 86 0 min 0,000 mm 0,0 UV-I 0 W/m 6,7 C 7,0 C 3,2 km/h (1 Bft) 97,37 %
22.11.2016 20:04 7,4 C 98 % 1014,6 hPa 0,0 l/m 2,7 km/h (1 Bft) O 86 0 min 0,000 mm 0,0 UV-I 0 W/m 7,1 C 7,4 C 3,2 km/h (1 Bft) 100,00 %
22.11.2016 20:06 7,5 C 99 % 1014,7 hPa 0,0 l/m 2,3 km/h (1 Bft) O 86 0 min 0,000 mm 0,0 UV-I 0 W/m 7,4 C 7,5 C 3,2 km/h (1 Bft) 100,00 %
22.11.2016 20:08 7,7 C 99 % 1014,7 hPa 0,0 l/m 3,1 km/h (1 Bft) O 86 0 min 0,000 mm 0,0 UV-I 0 W/m 7,6 C 7,7 C 4,8 km/h (1 Bft) 100,00 %
22.11.2016 20:10 7,8 C 99 % 1014,7 hPa 0,0 l/m 2,3 km/h (1 Bft) O 86 0 min 0,000 mm 0,0 UV-I 0 W/m 7,7 C 7,8 C 3,2 km/h (1 Bft) 100,00 %
22.11.2016 20:12 7,8 C 99 % 1014,7 hPa 0,0 l/m 0,7 km/h (0 Bft) O 86 0 min 0,000 mm 0,0 UV-I 0 W/m 7,7 C 7,8 C 3,2 km/h (1 Bft) 100,00 %
22.11.2016 20:14 7,3 C 99 % 1014,8 hPa 0,0 l/m 0,0 km/h (0 Bft) O 86 0 min 0,000 mm 0,0 UV-I 0 W/m 7,2 C 7,3 C 0,0 km/h (0 Bft) 100,00 %
22.11.2016 20:16 6,7 C 98 % 1014,9 hPa 0,0 l/m 0,0 km/h (0 Bft) O 86 0 min 0,000 mm 0,0 UV-I 0 W/m 6,4 C 6,7 C 0,0 km/h (0 Bft) 95,74 %
22.11.2016 20:18 6,2 C 97 % 1014,9 hPa 0,0 l/m 0,0 km/h (0 Bft) O 86 0 min 0,000 mm 0,0 UV-I 0 W/m 5,8 C 6,2 C 0,0 km/h (0 Bft) 100,00 %
22.11.2016 20:20 6,0 C 98 % 1014,9 hPa 0,0 l/m 0,0 km/h (0 Bft) O 86 0 min 0,000 mm 0,0 UV-I 0 W/m 5,7 C 6,0 C 0,0 km/h (0 Bft) 100,00 %
22.11.2016 20:22 5,8 C 98 % 1014,9 hPa 0,0 l/m 1,0 km/h (0 Bft) O 86 0 min 0,000 mm 0,0 UV-I 0 W/m 5,5 C 5,8 C 1,6 km/h (1 Bft) 95,74 %
22.11.2016 20:24 5,6 C 98 % 1014,9 hPa 0,0 l/m 1,4 km/h (1 Bft) O 86 0 min 0,000 mm 0,0 UV-I 0 W/m 5,3 C 5,6 C 3,2 km/h (1 Bft) 95,12 %
22.11.2016 20:26 5,5 C 98 % 1014,9 hPa 0,0 l/m 0,2 km/h (0 Bft) O 86 0 min 0,000 mm 0,0 UV-I 0 W/m 5,2 C 5,5 C 1,6 km/h (1 Bft) 98,00 %
22.11.2016 20:28 5,4 C 98 % 1014,9 hPa 0,0 l/m 0,0 km/h (0 Bft) O 86 0 min 0,000 mm 0,0 UV-I 0 W/m 5,1 C 5,4 C 0,0 km/h (0 Bft) 93,62 %
22.11.2016 20:30 5,4 C 98 % 1015,0 hPa 0,0 l/m 0,0 km/h (0 Bft) O 86 0 min 0,000 mm 0,0 UV-I 0 W/m 5,1 C 5,4 C 0,0 km/h (0 Bft) 97,37 %
22.11.2016 20:32 5,4 C 98 % 1014,9 hPa 0,0 l/m 0,0 km/h (0 Bft) O 86 0 min 0,000 mm 0,0 UV-I 0 W/m 5,1 C 5,4 C 0,0 km/h (0 Bft) 97,87 %
22.11.2016 20:34 5,7 C 98 % 1015,0 hPa 0,0 l/m 2,8 km/h (1 Bft) O 91 0 min 0,000 mm 0,0 UV-I 0 W/m 5,4 C 5,7 C 4,8 km/h (1 Bft) 96,43 %
22.11.2016 20:36 5,9 C 98 % 1015,0 hPa 0,0 l/m 3,3 km/h (1 Bft) O 91 0 min 0,000 mm 0,0 UV-I 0 W/m 5,6 C 5,9 C 4,8 km/h (1 Bft) 97,37 %
22.11.2016 20:38 6,1 C 98 % 1015,1 hPa 0,0 l/m 2,3 km/h (1 Bft) O 91 0 min 0,000 mm 0,0 UV-I 0 W/m 5,8 C 6,1 C 3,2 km/h (1 Bft) 97,87 %
22.11.2016 20:40 5,9 C 98 % 1015,0 hPa 0,0 l/m 0,2 km/h (0 Bft) O 91 0 min 0,000 mm 0,0 UV-I 0 W/m 5,6 C 5,9 C 1,6 km/h (1 Bft) 97,87 %
22.11.2016 20:43 5,7 C 98 % 1015,0 hPa 0,0 l/m 1,3 km/h (1 Bft) O 91 0 min 0,000 mm 0,0 UV-I 0 W/m 5,4 C 5,7 C 3,2 km/h (1 Bft) 97,59 %
22.11.2016 20:44 5,6 C 98 % 1015,0 hPa 0,0 l/m 0,5 km/h (0 Bft) O 91 0 min 0,000 mm 0,0 UV-I 0 W/m 5,3 C 5,6 C 1,6 km/h (1 Bft) 100,00 %
22.11.2016 20:46 5,7 C 98 % 1015,1 hPa 0,0 l/m 0,4 km/h (0 Bft) O 91 0 min 0,000 mm 0,0 UV-I 0 W/m 5,4 C 5,7 C 1,6 km/h (1 Bft) 97,87 %
22.11.2016 20:48 6,1 C 98 % 1015,0 hPa 0,0 l/m 1,0 km/h (0 Bft) O 91 0 min 0,000 mm 0,0 UV-I 0 W/m 5,8 C 6,1 C 1,6 km/h (1 Bft) 96,67 %
22.11.2016 20:50 6,3 C 99 % 1015,0 hPa 0,0 l/m 0,0 km/h (0 Bft) O 91 0 min 0,000 mm 0,0 UV-I 0 W/m 6,2 C 6,3 C 0,0 km/h (0 Bft) 98,44 %
22.11.2016 20:52 6,3 C 99 % 1015,0 hPa 0,0 l/m 0,0 km/h (0 Bft) O 91 0 min 0,000 mm 0,0 UV-I 0 W/m 6,2 C 6,3 C 0,0 km/h (0 Bft) 96,00 %
22.11.2016 20:54 6,3 C 99 % 1015,0 hPa 0,0 l/m 0,0 km/h (0 Bft) O 91 0 min 0,000 mm 0,0 UV-I 0 W/m 6,2 C 6,3 C 0,0 km/h (0 Bft) 100,00 %
22.11.2016 20:56 6,2 C 99 % 1015,1 hPa 0,0 l/m 0,0 km/h (0 Bft) O 91 0 min 0,000 mm 0,0 UV-I 0 W/m 6,1 C 6,2 C 0,0 km/h (0 Bft) 96,00 %
22.11.2016 20:58 5,9 C 98 % 1015,1 hPa 0,0 l/m 0,8 km/h (0 Bft) O 91 0 min 0,000 mm 0,0 UV-I 0 W/m 5,6 C 5,9 C 3,2 km/h (1 Bft) 98,21 %
22.11.2016 21:00 5,8 C 98 % 1015,1 hPa 0,0 l/m 1,9 km/h (1 Bft) O 91 0 min 0,000 mm 0,0 UV-I 0 W/m 5,5 C 5,8 C 3,2 km/h (1 Bft) 97,87 %
22.11.2016 21:02 5,7 C 98 % 1015,1 hPa 0,0 l/m 0,0 km/h (0 Bft) O 91 0 min 0,000 mm 0,0 UV-I 0 W/m 5,4 C 5,7 C 0,0 km/h (0 Bft) 97,56 %
22.11.2016 21:04 5,5 C 98 % 1015,2 hPa 0,0 l/m 0,0 km/h (0 Bft) O 91 0 min 0,000 mm 0,0 UV-I 0 W/m 5,2 C 5,5 C 0,0 km/h (0 Bft) 98,00 %
22.11.2016 21:06 5,2 C 98 % 1015,2 hPa 0,0 l/m 0,0 km/h (0 Bft) O 91 0 min 0,000 mm 0,0 UV-I 0 W/m 4,9 C 5,2 C 0,0 km/h (0 Bft) 97,87 %
22.11.2016 21:08 5,0 C 98 % 1015,3 hPa 0,0 l/m 1,2 km/h (1 Bft) O 91 0 min 0,000 mm 0,0 UV-I 0 W/m 4,7 C 5,0 C 3,2 km/h (1 Bft) 98,00 %
22.11.2016 21:10 4,9 C 98 % 1015,3 hPa 0,0 l/m 2,3 km/h (1 Bft) SO 140 0 min 0,000 mm 0,0 UV-I 0 W/m 4,6 C 4,9 C 4,8 km/h (1 Bft) 100,00 %
22.11.2016 21:12 4,8 C 98 % 1015,4 hPa 0,0 l/m 5,7 km/h (1 Bft) SW 223 0 min 0,000 mm 0,0 UV-I 0 W/m 4,5 C 4,8 C 8,0 km/h (2 Bft) 100,00 %
22.11.2016 21:14 4,8 C 98 % 1015,5 hPa 0,0 l/m 6,6 km/h (2 Bft) SW 214 0 min 0,000 mm 0,0 UV-I 0 W/m 4,5 C 4,6 C 8,0 km/h (2 Bft) 97,37 %
22.11.2016 21:16 4,7 C 98 % 1015,4 hPa 0,0 l/m 6,2 km/h (2 Bft) SW 214 0 min 0,000 mm 0,0 UV-I 0 W/m 4,4 C 4,7 C 8,0 km/h (2 Bft) 100,00 %
22.11.2016 21:18 4,8 C 98 % 1015,4 hPa 0,0 l/m 4,7 km/h (1 Bft) S-SW 213 0 min 0,000 mm 0,0 UV-I 0 W/m 4,5 C 4,8 C 6,4 km/h (2 Bft) 98,11 %
22.11.2016 21:20 4,8 C 98 % 1015,4 hPa 0,0 l/m 4,7 km/h (1 Bft) S 184 0 min 0,000 mm 0,0 UV-I 0 W/m 4,5 C 4,8 C 6,4 km/h (2 Bft) 95,74 %
22.11.2016 21:22 4,6 C 98 % 1015,5 hPa 0,0 l/m 3,5 km/h (1 Bft) S 185 0 min 0,000 mm 0,0 UV-I 0 W/m 4,3 C 4,6 C 6,4 km/h (2 Bft) 100,00 %
22.11.2016 21:24 4,6 C 98 % 1015,6 hPa 0,0 l/m 2,7 km/h (1 Bft) S 184 0 min 0,000 mm 0,0 UV-I 0 W/m 4,3 C 4,6 C 4,8 km/h (1 Bft) 100,00 %
22.11.2016 21:26 4,8 C 98 % 1015,6 hPa 0,0 l/m 2,2 km/h (1 Bft) S 184 0 min 0,000 mm 0,0 UV-I 0 W/m 4,5 C 4,8 C 3,2 km/h (1 Bft) 96,00 %
22.11.2016 21:28 4,9 C 99 % 1015,6 hPa 0,0 l/m 1,8 km/h (1 Bft) S 179 0 min 0,000 mm 0,0 UV-I 0 W/m 4,8 C 4,9 C 3,2 km/h (1 Bft) 100,00 %
22.11.2016 21:30 5,1 C 99 % 1015,6 hPa 0,0 l/m 3,6 km/h (1 Bft) S 177 0 min 0,000 mm 0,0 UV-I 0 W/m 5,0 C 5,1 C 4,8 km/h (1 Bft) 100,00 %
22.11.2016 21:32 5,2 C 98 % 1015,6 hPa 0,0 l/m 2,8 km/h (1 Bft) S 177 0 min 0,000 mm 0,0 UV-I 0 W/m 4,9 C 5,2 C 4,8 km/h (1 Bft) 100,00 %
22.11.2016 21:34 5,3 C 98 % 1015,6 hPa 0,0 l/m 1,7 km/h (1 Bft) S 177 0 min 0,000 mm 0,0 UV-I 0 W/m 5,0 C 5,3 C 3,2 km/h (1 Bft) 100,00 %
22.11.2016 21:36 5,3 C 99 % 1015,6 hPa 0,0 l/m 3,0 km/h (1 Bft) S 177 0 min 0,000 mm 0,0 UV-I 0 W/m 5,2 C 5,3 C 3,2 km/h (1 Bft) 100,00 %
22.11.2016 21:38 5,6 C 99 % 1015,6 hPa 0,0 l/m 1,9 km/h (1 Bft) S 177 0 min 0,000 mm 0,0 UV-I 0 W/m 5,5 C 5,6 C 3,2 km/h (1 Bft) 100,00 %
22.11.2016 21:40 5,7 C 99 % 1015,6 hPa 0,0 l/m 1,2 km/h (1 Bft) S 177 0 min 0,000 mm 0,0 UV-I 0 W/m 5,6 C 5,7 C 3,2 km/h (1 Bft) 95,74 %
22.11.2016 21:42 5,7 C 99 % 1015,6 hPa 0,0 l/m 1,9 km/h (1 Bft) S 177 0 min 0,000 mm 0,0 UV-I 0 W/m 5,6 C 5,7 C 3,2 km/h (1 Bft) 100,00 %
22.11.2016 21:44 5,7 C 99 % 1015,6 hPa 0,0 l/m 0,4 km/h (0 Bft) S 177 0 min 0,000 mm 0,0 UV-I 0 W/m 5,6 C 5,7 C 1,6 km/h (1 Bft) 100,00 %
22.11.2016 21:46 5,6 C 99 % 1015,6 hPa 0,0 l/m 1,4 km/h (1 Bft) S 177 0 min 0,000 mm 0,0 UV-I 0 W/m 5,5 C 5,6 C 3,2 km/h (1 Bft) 95,74 %
22.11.2016 21:48 5,4 C 99 % 1015,6 hPa 0,0 l/m 1,4 km/h (1 Bft) S 177 0 min 0,000 mm 0,0 UV-I 0 W/m 5,3 C 5,4 C 3,2 km/h (1 Bft) 96,00 %
22.11.2016 21:50 5,7 C 99 % 1015,6 hPa 0,0 l/m 0,1 km/h (0 Bft) S 177 0 min 0,000 mm 0,0 UV-I 0 W/m 5,6 C 5,7 C 1,6 km/h (1 Bft) 100,00 %
22.11.2016 21:52 5,8 C 99 % 1015,6 hPa 0,0 l/m 0,0 km/h (0 Bft) S 177 0 min 0,000 mm 0,0 UV-I 0 W/m 5,7 C 5,8 C 0,0 km/h (0 Bft) 97,87 %
22.11.2016 21:54 5,5 C 99 % 1015,6 hPa 0,0 l/m 0,0 km/h (0 Bft) S 177 0 min 0,000 mm 0,0 UV-I 0 W/m 5,4 C 5,5 C 0,0 km/h (0 Bft) 100,00 %
22.11.2016 21:56 5,1 C 99 % 1015,6 hPa 0,0 l/m 0,0 km/h (0 Bft) S 177 0 min 0,000 mm 0,0 UV-I 0 W/m 5,0 C 5,1 C 1,6 km/h (1 Bft) 100,00 %
22.11.2016 21:58 4,9 C 99 % 1015,7 hPa 0,0 l/m 0,2 km/h (0 Bft) S 177 0 min 0,000 mm 0,0 UV-I 0 W/m 4,8 C 4,9 C 1,6 km/h (1 Bft) 100,00 %
22.11.2016 22:00 5,2 C 98 % 1015,7 hPa 0,0 l/m 0,0 km/h (0 Bft) S 177 0 min 0,000 mm 0,0 UV-I 0 W/m 4,9 C 5,2 C 0,0 km/h (0 Bft) 96,00 %
22.11.2016 22:02 5,1 C 98 % 1015,7 hPa 0,0 l/m 3,4 km/h (1 Bft) S 177 0 min 0,000 mm 0,0 UV-I 0 W/m 4,8 C 5,1 C 4,8 km/h (1 Bft) 100,00 %
22.11.2016 22:04 4,8 C 98 % 1015,7 hPa 0,0 l/m 4,8 km/h (1 Bft) S 178 0 min 0,000 mm 0,0 UV-I 0 W/m 4,5 C 4,8 C 6,4 km/h (2 Bft) 100,00 %
22.11.2016 22:06 4,4 C 98 % 1015,7 hPa 0,0 l/m 5,4 km/h (1 Bft) S-SW 194 0 min 0,000 mm 0,0 UV-I 0 W/m 4,1 C 4,4 C 6,4 km/h (2 Bft) 100,00 %
22.11.2016 22:08 4,2 C 98 % 1015,8 hPa 0,0 l/m 5,2 km/h (1 Bft) S-SW 195 0 min 0,000 mm 0,0 UV-I 0 W/m 3,9 C 4,2 C 6,4 km/h (2 Bft) 97,87 %
22.11.2016 22:10 4,1 C 98 % 1015,7 hPa 0,0 l/m 3,6 km/h (1 Bft) S 188 0 min 0,000 mm 0,0 UV-I 0 W/m 3,8 C 4,1 C 4,8 km/h (1 Bft) 96,00 %
22.11.2016 22:12 4,1 C 98 % 1015,7 hPa 0,0 l/m 1,3 km/h (1 Bft) S 188 0 min 0,000 mm 0,0 UV-I 0 W/m 3,8 C 4,1 C 3,2 km/h (1 Bft) 100,00 %
22.11.2016 22:14 4,1 C 98 % 1015,8 hPa 0,0 l/m 1,2 km/h (1 Bft) S 185 0 min 0,000 mm 0,0 UV-I 0 W/m 3,8 C 4,1 C 3,2 km/h (1 Bft) 98,11 %
22.11.2016 22:16 4,1 C 98 % 1015,8 hPa 0,0 l/m 1,1 km/h (1 Bft) S 185 0 min 0,000 mm 0,0 UV-I 0 W/m 3,8 C 4,1 C 3,2 km/h (1 Bft) 98,00 %
22.11.2016 22:18 4,2 C 98 % 1015,8 hPa 0,0 l/m 3,3 km/h (1 Bft) S 185 0 min 0,000 mm 0,0 UV-I 0 W/m 3,9 C 4,2 C 4,8 km/h (1 Bft) 97,87 %
22.11.2016 22:20 4,3 C 99 % 1015,8 hPa 0,0 l/m 4,2 km/h (1 Bft) S 185 0 min 0,000 mm 0,0 UV-I 0 W/m 4,2 C 4,3 C 4,8 km/h (1 Bft) 100,00 %
22.11.2016 22:22 4,4 C 98 % 1015,8 hPa 0,0 l/m 4,8 km/h (1 Bft) S 185 0 min 0,000 mm 0,0 UV-I 0 W/m 4,1 C 4,4 C 6,4 km/h (2 Bft) 100,00 %
22.11.2016 22:24 4,4 C 98 % 1015,8 hPa 0,0 l/m 2,4 km/h (1 Bft) S 185 0 min 0,000 mm 0,0 UV-I 0 W/m 4,1 C 4,4 C 3,2 km/h (1 Bft) 100,00 %
22.11.2016 22:26 4,3 C 99 % 1015,9 hPa 0,0 l/m 1,1 km/h (1 Bft) S 185 0 min 0,000 mm 0,0 UV-I 0 W/m 4,2 C 4,3 C 3,2 km/h (1 Bft) 100,00 %
22.11.2016 22:28 4,2 C 98 % 1015,8 hPa 0,0 l/m 0,5 km/h (0 Bft) S 185 0 min 0,000 mm 0,0 UV-I 0 W/m 3,9 C 4,2 C 1,6 km/h (1 Bft) 100,00 %
22.11.2016 22:30 4,2 C 98 % 1015,8 hPa 0,0 l/m 1,0 km/h (0 Bft) S 184 0 min 0,000 mm 0,0 UV-I 0 W/m 3,9 C 4,2 C 1,6 km/h (1 Bft) 100,00 %
22.11.2016 22:32 4,4 C 99 % 1015,8 hPa 0,0 l/m 1,3 km/h (1 Bft) S 184 0 min 0,000 mm 0,0 UV-I 0 W/m 4,3 C 4,4 C 1,6 km/h (1 Bft) 97,87 %
22.11.2016 22:34 4,3 C 98 % 1015,8 hPa 0,0 l/m 0,3 km/h (0 Bft) S 184 0 min 0,000 mm 0,0 UV-I 0 W/m 4,0 C 4,3 C 1,6 km/h (1 Bft) 100,00 %
22.11.2016 22:36 4,3 C 98 % 1015,8 hPa 0,0 l/m 0,0 km/h (0 Bft) S 184 0 min 0,000 mm 0,0 UV-I 0 W/m 4,0 C 4,3 C 0,0 km/h (0 Bft) 100,00 %
22.11.2016 22:38 4,2 C 98 % 1015,9 hPa 0,0 l/m 0,1 km/h (0 Bft) S 184 0 min 0,000 mm 0,0 UV-I 0 W/m 3,9 C 4,2 C 1,6 km/h (1 Bft) 97,87 %
22.11.2016 22:40 4,1 C 99 % 1015,9 hPa 0,0 l/m 0,0 km/h (0 Bft) S 184 0 min 0,000 mm 0,0 UV-I 0 W/m 4,0 C 4,1 C 1,6 km/h (1 Bft) 100,00 %
22.11.2016 22:42 4,1 C 99 % 1015,9 hPa 0,0 l/m 0,0 km/h (0 Bft) S 184 0 min 0,000 mm 0,0 UV-I 0 W/m 4,0 C 4,1 C 0,0 km/h (0 Bft) 100,00 %
22.11.2016 22:44 3,9 C 98 % 1015,9 hPa 0,0 l/m 0,0 km/h (0 Bft) S 184 0 min 0,000 mm 0,0 UV-I 0 W/m 3,6 C 3,9 C 0,0 km/h (0 Bft) 100,00 %
22.11.2016 22:46 3,8 C 98 % 1015,9 hPa 0,0 l/m 0,6 km/h (0 Bft) S 184 0 min 0,000 mm 0,0 UV-I 0 W/m 3,5 C 3,8 C 1,6 km/h (1 Bft) 100,00 %
22.11.2016 22:48 3,8 C 99 % 1015,9 hPa 0,0 l/m 0,0 km/h (0 Bft) S 184 0 min 0,000 mm 0,0 UV-I 0 W/m 3,7 C 3,8 C 0,0 km/h (0 Bft) 98,00 %
22.11.2016 22:50 3,8 C 99 % 1016,0 hPa 0,0 l/m 0,3 km/h (0 Bft) S 184 0 min 0,000 mm 0,0 UV-I 0 W/m 3,7 C 3,8 C 1,6 km/h (1 Bft) 95,74 %
22.11.2016 22:52 3,7 C 99 % 1016,0 hPa 0,0 l/m 0,6 km/h (0 Bft) S 184 0 min 0,000 mm 0,0 UV-I 0 W/m 3,6 C 3,7 C 1,6 km/h (1 Bft) 93,62 %
22.11.2016 22:54 3,5 C 98 % 1016,0 hPa 0,0 l/m 1,2 km/h (1 Bft) S 184 0 min 0,000 mm 0,0 UV-I 0 W/m 3,2 C 3,5 C 3,2 km/h (1 Bft) 97,92 %
22.11.2016 22:56 3,4 C 98 % 1016,1 hPa 0,0 l/m 1,3 km/h (1 Bft) S 184 0 min 0,000 mm 0,0 UV-I 0 W/m 3,1 C 3,4 C 1,6 km/h (1 Bft) 97,37 %
22.11.2016 22:58 3,4 C 98 % 1016,0 hPa 0,0 l/m 0,0 km/h (0 Bft) S 184 0 min 0,000 mm 0,0 UV-I 0 W/m 3,1 C 3,4 C 0,0 km/h (0 Bft) 98,21 %
22.11.2016 23:00 3,4 C 98 % 1016,0 hPa 0,0 l/m 0,0 km/h (0 Bft) S 184 0 min 0,000 mm 0,0 UV-I 0 W/m 3,1 C 3,4 C 0,0 km/h (0 Bft) 98,00 %
22.11.2016 23:02 3,5 C 98 % 1016,1 hPa 0,0 l/m 2,3 km/h (1 Bft) S 184 0 min 0,000 mm 0,0 UV-I 0 W/m 3,2 C 3,5 C 3,2 km/h (1 Bft) 97,37 %
22.11.2016 23:04 3,6 C 98 % 1016,1 hPa 0,0 l/m 2,0 km/h (1 Bft) S 184 0 min 0,000 mm 0,0 UV-I 0 W/m 3,3 C 3,6 C 3,2 km/h (1 Bft) 96,23 %
22.11.2016 23:06 3,6 C 98 % 1016,1 hPa 0,0 l/m 1,4 km/h (1 Bft) S 184 0 min 0,000 mm 0,0 UV-I 0 W/m 3,3 C 3,6 C 3,2 km/h (1 Bft) 95,74 %
22.11.2016 23:08 3,6 C 98 % 1016,1 hPa 0,0 l/m 2,5 km/h (1 Bft) S 184 0 min 0,000 mm 0,0 UV-I 0 W/m 3,3 C 3,6 C 4,8 km/h (1 Bft) 97,56 %
22.11.2016 23:10 3,6 C 98 % 1016,1 hPa 0,0 l/m 2,6 km/h (1 Bft) S 184 0 min 0,000 mm 0,0 UV-I 0 W/m 3,3 C 3,6 C 3,2 km/h (1 Bft) 96,23 %
22.11.2016 23:13 3,6 C 98 % 1016,1 hPa 0,0 l/m 3,0 km/h (1 Bft) S 184 0 min 0,000 mm 0,0 UV-I 0 W/m 3,3 C 3,6 C 4,8 km/h (1 Bft) 98,53 %
22.11.2016 23:14 3,6 C 98 % 1016,1 hPa 0,0 l/m 3,9 km/h (1 Bft) S 184 0 min 0,000 mm 0,0 UV-I 0 W/m 3,3 C 3,6 C 4,8 km/h (1 Bft) 94,12 %
22.11.2016 23:16 3,6 C 98 % 1016,2 hPa 0,0 l/m 5,9 km/h (2 Bft) S-SW 201 0 min 0,000 mm 0,0 UV-I 0 W/m 3,3 C 3,6 C 8,0 km/h (2 Bft) 98,11 %
22.11.2016 23:18 3,6 C 99 % 1016,2 hPa 0,0 l/m 6,1 km/h (2 Bft) S-SW 202 0 min 0,000 mm 0,0 UV-I 0 W/m 3,5 C 3,6 C 6,4 km/h (2 Bft) 95,74 %
22.11.2016 23:20 3,5 C 99 % 1016,2 hPa 0,0 l/m 4,1 km/h (1 Bft) S-SW 202 0 min 0,000 mm 0,0 UV-I 0 W/m 3,4 C 3,5 C 6,4 km/h (2 Bft) 95,12 %
22.11.2016 23:22 3,3 C 99 % 1016,3 hPa 0,0 l/m 3,9 km/h (1 Bft) S-SW 202 0 min 0,000 mm 0,0 UV-I 0 W/m 3,2 C 3,3 C 4,8 km/h (1 Bft) 95,74 %
22.11.2016 23:24 3,3 C 98 % 1016,3 hPa 0,2 l/m 4,0 km/h (1 Bft) S-SW 202 0 min 0,000 mm 0,0 UV-I 0 W/m 3,0 C 3,3 C 4,8 km/h (1 Bft) 95,74 %
22.11.2016 23:26 3,4 C 99 % 1016,3 hPa 0,0 l/m 4,5 km/h (1 Bft) S-SW 202 0 min 0,000 mm 0,0 UV-I 0 W/m 3,3 C 3,4 C 6,4 km/h (2 Bft) 96,36 %
22.11.2016 23:28 3,4 C 99 % 1016,3 hPa 0,0 l/m 5,6 km/h (1 Bft) S-SW 202 0 min 0,000 mm 0,0 UV-I 0 W/m 3,3 C 3,4 C 6,4 km/h (2 Bft) 95,45 %
22.11.2016 23:30 3,5 C 99 % 1016,3 hPa 0,0 l/m 5,5 km/h (1 Bft) S-SW 202 0 min 0,000 mm 0,0 UV-I 0 W/m 3,4 C 3,5 C 6,4 km/h (2 Bft) 100,00 %
22.11.2016 23:32 3,4 C 99 % 1016,3 hPa 0,0 l/m 4,3 km/h (1 Bft) S 181 0 min 0,000 mm 0,0 UV-I 0 W/m 3,3 C 3,4 C 6,4 km/h (2 Bft) 100,00 %
22.11.2016 23:34 3,4 C 99 % 1016,3 hPa 0,0 l/m 3,3 km/h (1 Bft) S 180 0 min 0,000 mm 0,0 UV-I 0 W/m 3,3 C 3,4 C 4,8 km/h (1 Bft) 100,00 %
22.11.2016 23:36 3,3 C 98 % 1016,3 hPa 0,0 l/m 3,0 km/h (1 Bft) S 180 0 min 0,000 mm 0,0 UV-I 0 W/m 3,0 C 3,3 C 3,2 km/h (1 Bft) 100,00 %
22.11.2016 23:38 3,4 C 99 % 1016,3 hPa 0,0 l/m 3,5 km/h (1 Bft) S 181 0 min 0,000 mm 0,0 UV-I 0 W/m 3,3 C 3,4 C 4,8 km/h (1 Bft) 97,87 %
22.11.2016 23:40 3,6 C 99 % 1016,3 hPa 0,0 l/m 4,6 km/h (1 Bft) S 182 0 min 0,000 mm 0,0 UV-I 0 W/m 3,5 C 3,6 C 4,8 km/h (1 Bft) 100,00 %
22.11.2016 23:42 3,7 C 99 % 1016,4 hPa 0,0 l/m 5,0 km/h (1 Bft) S 185 0 min 0,000 mm 0,0 UV-I 0 W/m 3,6 C 3,7 C 6,4 km/h (2 Bft) 100,00 %
22.11.2016 23:44 3,8 C 99 % 1016,4 hPa 0,0 l/m 4,5 km/h (1 Bft) S 188 0 min 0,000 mm 0,0 UV-I 0 W/m 3,7 C 3,8 C 6,4 km/h (2 Bft) 98,11 %
22.11.2016 23:46 3,8 C 99 % 1016,4 hPa 0,0 l/m 4,6 km/h (1 Bft) S 189 0 min 0,000 mm 0,0 UV-I 0 W/m 3,7 C 3,8 C 6,4 km/h (2 Bft) 97,87 %
22.11.2016 23:48 3,7 C 99 % 1016,5 hPa 0,0 l/m 4,1 km/h (1 Bft) S 189 0 min 0,000 mm 0,0 UV-I 0 W/m 3,6 C 3,7 C 4,8 km/h (1 Bft) 100,00 %
22.11.2016 23:50 3,7 C 99 % 1016,5 hPa 0,0 l/m 3,9 km/h (1 Bft) S-SW 193 0 min 0,000 mm 0,0 UV-I 0 W/m 3,6 C 3,7 C 4,8 km/h (1 Bft) 100,00 %
22.11.2016 23:52 3,6 C 99 % 1016,5 hPa 0,0 l/m 4,0 km/h (1 Bft) S-SW 193 0 min 0,000 mm 0,0 UV-I 0 W/m 3,5 C 3,6 C 4,8 km/h (1 Bft) 100,00 %
22.11.2016 23:54 3,4 C 99 % 1016,4 hPa 0,0 l/m 3,5 km/h (1 Bft) S-SW 193 0 min 0,000 mm 0,0 UV-I 0 W/m 3,3 C 3,4 C 4,8 km/h (1 Bft) 100,00 %
22.11.2016 23:56 3,3 C 99 % 1016,4 hPa 0,0 l/m 3,9 km/h (1 Bft) S-SW 193 0 min 0,000 mm 0,0 UV-I 0 W/m 3,2 C 3,3 C 4,8 km/h (1 Bft) 100,00 %
22.11.2016 23:58 3,2 C 99 % 1016,4 hPa 0,0 l/m 3,6 km/h (1 Bft) S-SW 193 0 min 0,000 mm 0,0 UV-I 0 W/m 3,1 C 3,2 C 4,8 km/h (1 Bft) 100,00 %
_ Min-Zeit 06:44 13:34 00:42 - 03:18 - - - - - - 06:44 06:44 03:18 01:14
Minimum _ 1,9 C 80 % 1009,3 hPa - 0,0 km/h (0 Bft) - - - - - - 1,8 C 1,9 C 0,0 km/h (0 Bft) 91,49 %
_ Max-Zeit 13:34 00:08 23:48 03:32 13:40 - - 12:04 13:00 12:28 12:36 13:26 13:52 13:40 00:00
Maximum _ 13,3 C 99 % 1016,5 hPa 0,2 l/m 10,1 km/h
NO (2 Bft)
- - 4 min 0,178 mm 0,9 UV-I 452 W/m 10,3 C 13,2 C 16,1 km/h
O-NO (3 Bft)
100,00 %
Durchschnitt _ 6,3 C 96 % 1012,7 hPa #0,4 l/m 2,4 km/h (1 Bft) S-SW - #7:02 h #0,838 mm 0,7 UV-I 188 W/m 5,6 C 6,2 C 3,8 km/h (1 Bft) 98,66 %